GFSGL_850_dewp_000.txt.gz
Dewpoint
14 11 8 14 16 15 17 12 9 7 -1 6 5 3 8 1 10 12 11 10 11 10 10 11 12 12 10 9 8 8 8 9 8 8 8 8 9 10 10 10 10 10 9
11 8 10 16 16 17 16 9 0 8 -5 -7 0 3 8 5 10 13 12 10 10 10 11 12 12 10 11 11 10 10 9 10 10 9 9 9 9 9 10 10 10 9 9
16 16 14 13 15 17 10 0 -1 5 -7 -3 5 3 5 9 10 12 12 12 10 10 11 11 11 11 11 10 10 9 9 9 9 9 9 9 8 8 8 8 9 8 9
16 17 17 17 17 16 11 3 -0 3 -5 -1 4 6 6 8 12 12 12 12 9 10 11 12 12 12 11 11 10 11 11 10 9 9 9 8 8 8 7 8 7 7 6
16 16 18 18 18 15 10 9 8 5 -0 -0 2 4 6 10 5 10 12 11 9 9 12 12 12 12 10 8 9 9 8 9 8 8 8 7 7 8 8 7 7 7 7
17 17 18 18 18 15 14 12 13 10 7 5 2 2 6 6 4 8 7 11 12 13 13 13 10 8 9 9 8 8 8 8 7 8 9 8 9 10 9 8 8 8 8
17 18 18 18 16 15 15 15 14 14 12 8 3 6 8 6 8 8 5 8 12 12 12 8 8 9 11 10 10 9 8 8 7 8 10 10 9 9 9 9 9 9 8
16 18 18 15 14 14 15 15 15 14 13 9 8 9 10 11 8 11 10 9 9 11 9 9 8 9 9 9 10 9 9 8 10 10 10 9 9 8 6 7 7 8 7
16 16 13 13 14 15 15 15 15 15 13 14 13 13 13 13 10 10 9 11 11 8 8 6 7 7 9 8 8 8 9 9 9 9 7 4 3 3 2 5 7 8 8
6 8 9 13 15 15 15 15 15 15 14 14 13 13 13 12 8 7 8 10 8 7 7 7 7 7 8 8 8 9 10 9 9 7 7 8 6 7 6 7 7 7 7
5 7 10 13 16 16 15 14 15 14 14 13 13 14 13 9 9 9 10 9 8 7 6 8 9 6 9 8 8 7 8 5 2 3 6 4 3 4 5 5 6 5 3
10 10 13 16 16 16 15 15 15 14 14 13 13 14 13 12 11 10 7 9 8 7 8 10 10 8 8 7 7 7 6 4 5 6 5 3 3 3 3 3 3 2 1
9 13 15 16 16 15 15 15 14 15 14 13 13 13 12 13 11 8 8 8 8 8 10 7 7 7 7 6 6 6 5 5 6 5 3 2 3 3 3 2 0 -2 0
11 13 14 16 16 15 15 15 14 14 14 13 14 13 12 12 12 6 7 9 7 6 6 6 6 6 6 6 6 6 6 6 5 3 3 3 2 2 0 -2 -4 -2 4
13 15 16 16 15 15 15 15 14 13 13 12 12 11 10 11 11 11 10 9 8 8 7 7 7 7 7 7 7 6 5 4 3 3 2 2 0 -1 -3 -5 -4 2 6
17 16 16 15 15 14 14 13 12 12 9 8 8 9 8 8 7 7 7 6 6 6 6 6 6 6 6 5 5 4 3 2 2 1 1 -0 -2 -3 -4 -5 -3 2 6
15 14 14 13 12 12 13 12 11 9 8 9 7 7 6 6 8 7 6 5 4 4 4 5 5 5 4 4 3 1 1 0 0 -0 -1 -2 -4 -4 -5 -4 -3 1 4
14 12 13 12 12 11 11 11 11 11 10 7 6 7 7 8 7 5 4 4 4 4 4 4 4 3 3 2 2 1 -0 -1 -2 -3 -3 -4 -5 -5 -5 -5 -4 -0 3
11 11 11 10 10 10 10 10 10 10 9 10 8 8 8 6 5 4 4 4 5 4 4 3 2 1 1 2 1 0 -1 -4 -7 -5 -4 -5 -5 -6 -6 -5 -4 -2 2
10 10 10 10 11 11 11 10 10 10 9 10 8 8 6 6 5 5 4 6 5 4 3 2 2 2 2 2 -0 -2 -5 -7 -5 -5 -6 -5 -6 -6 -6 -6 -5 -4 1
10 10 10 10 10 9 8 8 7 7 8 7 7 8 7 7 6 7 6 6 4 4 4 3 3 2 1 -1 -4 -6 -8 -7 -6 -6 -6 -6 -6 -6 -6 -7 -7 -6 -4
10 9 8 6 6 7 9 9 9 8 7 7 7 8 7 6 7 7 7 5 5 4 3 3 1 -1 -3 -5 -8 -9 -8 -7 -6 -6 -7 -7 -7 -7 -7 -7 -8 -7 -6
9 8 9 9 9 9 9 8 8 8 7 8 8 9 7 7 7 7 7 5 4 3 3 1 -0 -3 -5 -9 -12 -10 -9 -7 -7 -7 -6 -6 -7 -7 -7 -7 -8 -8 -7
9 9 8 8 8 7 6 7 7 8 8 8 8 8 7 6 7 7 6 5 4 3 3 1 -1 -3 -6 -13 -13 -11 -10 -10 -14 -7 -10 -6 -7 -6 -6 -7 -8 -8 -8
7 7 7 7 7 6 6 6 6 6 6 6 5 5 6 6 7 7 6 5 4 3 2 0 -1 -3 -8 -15 -14 -13 -16 -21 -21 -19 -15 -5 -6 -5 -6 -8 -8 -8 -7
5 5 4 4 4 4 4 4 4 4 3 3 3 3 3 4 4 5 5 4 3 3 2 0 -1 -4 -7 -13 -12 -16 -17 -17 -15 -16 -17 -7 -6 -6 -8 -8 -8 -9 -8

GFSGL_850_dewp_003.txt.gz
Dewpoint
17 17 17 18 18 18 17 16 16 15 16 9 -11 -7 0 11 12 10 12 11 12 12 12 9 10 11 11 9 8 9 8 8 8 8 9 9 9 9 9 10 10 10 9
17 16 17 17 17 18 17 17 14 6 1 -6 -15 -8 7 4 9 5 12 11 11 11 11 11 11 11 12 12 10 10 10 9 10 10 9 10 10 9 9 9 9 9 8
16 17 17 17 17 17 17 15 9 5 -0 -5 -7 -9 -3 -2 3 0 4 12 12 11 11 11 12 12 11 11 11 10 10 9 10 9 9 8 9 8 8 8 8 8 7
15 16 17 17 17 17 16 12 8 -4 -6 -5 -4 -8 -4 3 1 9 7 12 13 12 11 11 12 12 12 11 12 12 10 11 10 9 9 9 9 8 8 7 8 8 8
14 16 16 17 17 17 17 13 10 1 -11 -10 -6 -8 -3 10 11 13 12 12 13 13 11 12 12 11 12 11 12 10 10 10 10 10 9 8 8 8 9 9 9 8 8
15 16 17 18 18 18 17 16 15 10 3 2 -1 -8 -5 8 10 7 9 10 12 12 12 12 12 11 11 10 7 9 11 10 10 9 9 9 9 9 10 9 9 8 7
15 17 17 18 18 18 18 17 16 13 10 9 1 -3 4 10 10 5 2 7 11 11 11 11 11 12 10 8 9 9 8 8 9 9 9 9 10 8 8 8 8 8 8
17 17 18 18 18 18 18 16 16 15 13 11 9 6 11 13 11 7 6 7 8 9 12 13 13 12 9 8 8 8 7 8 10 10 10 9 10 9 4 4 5 5 6
18 18 18 18 17 16 15 14 15 15 16 14 12 11 12 13 12 10 10 8 10 11 12 12 11 8 7 7 7 6 8 9 11 10 9 9 8 3 4 5 7 6 5
18 18 18 15 13 12 12 13 16 16 16 15 14 13 14 14 14 13 12 9 10 10 11 12 7 7 6 6 6 7 9 11 9 9 9 9 6 7 5 5 6 7 6
17 17 18 14 13 13 15 16 16 16 15 15 14 14 14 14 13 13 10 7 10 10 12 11 8 8 8 6 7 8 8 7 7 7 7 7 6 5 3 4 4 4 4
16 18 15 14 14 16 16 16 16 15 14 14 14 15 15 14 13 10 8 9 9 10 10 10 11 10 8 8 7 6 6 6 6 6 6 6 6 3 2 3 3 1 1
18 16 15 17 17 17 16 15 15 14 15 15 15 14 14 14 12 12 10 9 10 8 9 8 10 10 8 7 6 6 6 5 6 7 6 5 2 2 2 2 0 -2 -5
17 14 16 17 17 16 15 15 15 15 14 14 14 14 14 13 13 12 11 9 8 8 9 9 10 7 6 6 6 6 6 7 7 6 4 3 2 1 1 -1 -3 -5 -4
17 18 17 17 16 16 16 15 15 15 14 14 13 12 13 12 12 11 8 7 10 10 10 9 8 9 8 7 7 6 6 6 5 4 3 2 0 -0 -1 -3 -4 -4 -2
18 17 17 16 16 15 15 15 14 13 13 12 11 10 11 10 10 9 9 8 9 9 8 8 6 6 6 5 5 6 5 4 3 3 1 0 -1 -2 -3 -4 -4 -3 -2
16 16 16 15 15 15 14 14 13 13 12 8 7 7 7 7 8 7 7 7 7 6 4 5 5 6 5 5 4 3 2 2 1 0 -1 -1 -2 -4 -4 -4 -4 -3 -1
15 14 14 14 13 13 12 12 10 11 10 9 8 8 8 7 6 7 7 5 3 3 4 5 5 4 4 3 2 2 1 0 -1 -2 -3 -3 -4 -5 -5 -5 -4 -4 -3
14 13 12 11 11 11 10 10 9 9 9 10 8 6 7 7 7 6 5 4 6 5 5 4 4 3 3 2 2 2 1 -1 -4 -6 -3 -4 -5 -5 -5 -5 -5 -5 -4
12 12 11 10 11 10 10 9 8 8 7 9 9 8 7 8 7 6 5 5 6 6 4 4 4 3 3 3 2 1 -1 -5 -6 -4 -5 -5 -5 -5 -6 -6 -6 -6 -6
10 10 10 10 10 9 9 8 7 6 6 6 7 8 7 6 7 7 7 7 7 5 5 5 4 4 4 3 1 -2 -5 -8 -6 -5 -6 -6 -5 -6 -6 -6 -6 -7 -7
10 10 9 9 8 8 8 7 7 6 6 6 7 7 8 8 7 7 7 7 6 6 5 5 5 3 2 -1 -3 -5 -9 -8 -7 -6 -6 -6 -6 -6 -6 -6 -7 -7 -8
9 9 8 8 8 8 8 8 7 7 6 7 8 9 8 8 7 8 7 7 6 5 5 4 3 2 -1 -3 -7 -9 -9 -8 -6 -6 -5 -5 -6 -6 -5 -5 -7 -8 -8
9 8 8 8 8 8 6 6 6 7 6 7 8 7 8 8 7 7 7 7 6 5 4 4 2 0 -2 -4 -10 -11 -10 -9 -8 -7 -5 -5 -5 -5 -4 -5 -7 -7 -8
9 8 7 7 7 6 5 5 5 5 6 6 6 7 7 6 7 6 5 6 6 5 4 3 1 -0 -1 -4 -10 -13 -13 -14 -19 -22 -20 -6 -4 -4 -5 -6 -7 -8 -8
8 7 6 6 5 5 4 4 4 4 5 4 3 2 4 5 5 5 5 4 4 4 3 2 1 0 -2 -5 -7 -11 -17 -19 -18 -17 -16 -16 -4 -5 -5 -7 -7 -8 -8

GFSGL_850_dewp_006.txt.gz
Dewpoint
19 18 16 16 11 14 15 16 15 15 16 14 13 12 9 9 11 8 7 10 11 11 9 9 9 10 9 9 10 10 9 8 8 9 7 7 7 8 8 9 9 8 8
19 18 16 13 13 12 14 15 15 16 15 15 14 11 10 11 7 5 1 8 11 9 11 10 7 8 8 10 9 8 8 10 10 9 9 9 8 9 9 9 9 9 9
19 17 17 16 14 12 7 13 15 15 14 11 13 11 7 10 5 3 -0 0 5 6 9 10 9 11 11 11 12 11 11 11 10 11 10 9 8 7 6 6 7 8 8
18 17 18 17 14 10 7 4 11 13 14 12 11 10 6 3 2 3 5 3 1 2 10 11 11 11 11 11 10 9 9 10 11 10 11 11 10 9 8 9 9 9 9
16 18 18 17 16 15 14 7 12 15 15 14 15 15 12 2 2 7 9 8 7 7 12 11 11 11 12 8 8 9 10 10 8 9 10 8 7 9 9 8 8 7 6
14 16 17 17 18 18 16 16 17 18 18 18 16 15 12 7 -0 10 10 12 12 10 9 9 11 12 11 9 9 10 9 8 9 8 8 6 6 10 8 8 9 10 8
12 15 15 16 17 17 17 18 18 18 18 18 17 14 12 10 8 12 12 12 11 11 9 10 10 10 10 9 9 7 8 7 8 8 6 6 8 7 8 8 7 5 4
12 14 15 15 17 17 17 18 18 18 18 18 17 15 13 10 7 7 10 9 9 7 8 9 9 7 8 10 9 7 7 7 7 7 8 8 8 9 9 9 6 3 3
12 16 16 17 19 18 18 18 18 18 19 18 17 15 13 11 10 11 10 10 7 5 7 8 8 7 6 8 8 7 7 7 6 7 8 9 9 10 9 6 4 4 5
14 16 18 19 19 18 18 18 18 18 17 17 17 15 13 13 12 12 13 11 10 10 8 8 9 9 9 8 7 7 8 6 7 9 8 8 9 8 6 6 4 4 5
17 19 19 19 18 18 18 17 17 16 17 17 16 15 15 13 13 14 14 14 12 10 9 10 11 11 10 8 8 8 7 7 7 7 6 5 6 6 7 6 4 6 6
19 19 20 19 18 18 17 16 16 16 16 16 15 15 14 14 14 14 13 11 8 8 9 11 12 11 10 9 9 8 8 7 6 5 5 6 7 6 4 2 2 3 1
18 19 19 18 15 16 16 17 16 16 15 15 14 14 14 14 13 13 12 9 9 10 10 10 10 9 9 9 9 8 5 4 5 5 6 7 6 4 2 2 1 -0 -2
17 17 16 15 16 16 16 16 16 15 15 14 15 14 14 14 13 12 12 10 9 9 10 9 9 8 8 9 6 6 5 5 5 7 6 5 3 3 1 0 -1 -3 -4
15 16 15 17 16 16 16 16 15 14 14 14 14 13 12 13 12 11 10 7 5 8 7 8 8 8 7 7 7 6 6 5 5 6 5 4 3 1 -0 -1 -3 -4 -3
17 16 17 16 16 16 16 15 15 14 15 14 13 13 12 11 11 11 8 5 6 8 9 10 10 8 7 6 6 5 5 6 5 3 3 3 -0 -0 -2 -3 -4 -4 -3
14 16 16 16 16 16 15 14 14 14 13 13 12 11 10 8 9 8 6 7 8 8 8 8 5 5 6 6 5 5 4 3 2 2 -0 -1 -1 -2 -3 -4 -4 -4 -4
17 17 16 15 16 14 15 14 13 11 12 11 8 7 7 7 7 6 6 7 7 6 3 4 5 5 5 4 4 3 3 2 1 -0 -2 -3 -3 -4 -4 -5 -5 -5 -5
16 15 15 15 14 13 12 13 13 11 10 9 8 6 6 7 7 6 7 7 6 6 6 6 5 4 4 3 3 3 3 2 -0 -3 -4 -3 -4 -4 -5 -5 -5 -5 -6
14 14 13 12 12 12 12 10 10 9 10 10 8 7 6 6 6 7 7 5 4 5 6 5 5 4 4 4 4 4 3 -1 -5 -5 -4 -4 -5 -5 -5 -5 -5 -6 -6
12 12 12 11 11 10 10 9 8 8 8 8 9 8 6 6 6 6 6 7 7 7 6 5 5 5 5 4 3 1 -1 -5 -7 -5 -5 -5 -5 -5 -5 -5 -5 -6 -7
9 11 10 10 9 9 9 8 7 6 6 7 8 8 7 8 8 8 7 7 7 7 6 5 5 5 4 3 1 -1 -3 -7 -7 -6 -5 -5 -5 -5 -5 -5 -4 -6 -7
10 9 9 9 9 8 8 8 8 7 6 7 8 7 7 8 8 8 7 7 7 7 6 5 5 4 3 0 -1 -4 -8 -8 -6 -5 -6 -4 -4 -4 -4 -4 -5 -7 -7
9 9 9 8 8 8 8 8 7 6 6 7 8 9 9 8 7 7 5 5 6 6 6 5 4 3 1 -1 -3 -7 -10 -9 -8 -8 -11 -12 -7 -4 -4 -4 -6 -7 -7
9 9 9 8 8 8 6 6 5 5 5 6 6 7 7 8 7 4 4 5 5 5 4 5 4 3 1 0 -2 -9 -12 -12 -12 -13 -18 -20 -14 -4 -4 -5 -6 -7 -8
8 8 8 8 7 7 6 6 4 5 6 6 5 5 6 7 7 6 6 6 5 5 5 3 2 2 1 -0 -3 -6 -9 -12 -17 -19 -19 -17 -8 -3 -4 -7 -6 -7 -7

GFSGL_850_dewp_012.txt.gz
Dewpoint
13 13 14 14 14 14 14 13 14 16 16 16 15 14 13 13 14 13 8 -1 -2 -0 1 3 3 4 7 9 10 9 9 10 10 9 9 8 8 8 8 7 8 6 6
12 13 14 14 15 14 13 13 13 15 16 16 16 15 14 14 14 13 12 1 -2 -2 -1 4 7 7 8 9 10 10 10 10 9 9 9 8 8 8 8 9 8 9 8
13 13 14 14 15 14 11 12 11 13 14 17 17 16 15 14 14 14 12 7 -0 -1 -1 5 7 9 9 8 7 8 8 10 9 8 9 8 7 8 8 8 10 10 10
12 14 14 14 14 14 13 10 11 11 12 13 16 16 16 16 15 15 14 13 7 1 1 4 9 10 10 9 7 6 10 10 10 9 7 7 8 8 9 8 9 8 8
12 13 13 13 14 14 14 11 10 11 11 12 15 16 16 16 16 15 15 14 13 6 3 -0 4 6 10 10 9 8 10 9 9 7 7 8 8 8 8 8 8 7 7
12 12 12 13 14 14 14 13 9 10 12 14 14 15 16 16 16 16 16 15 15 10 7 1 4 7 11 12 8 10 10 10 8 9 9 9 7 7 7 8 8 9 8
12 12 13 13 13 13 14 14 13 11 12 15 16 17 17 17 16 16 16 16 16 13 9 3 6 9 11 12 10 9 8 9 9 9 8 8 7 6 7 8 8 8 8
13 12 12 12 12 13 14 14 15 15 15 16 16 17 17 16 15 16 17 17 16 13 10 4 8 10 11 11 10 10 10 9 8 9 8 8 7 5 6 8 9 8 8
14 13 12 12 13 14 14 13 14 16 17 17 17 18 17 8 17 18 17 16 14 10 7 11 12 12 11 10 10 11 8 7 8 9 9 8 7 7 8 8 7 8 7
12 11 11 12 13 14 14 15 15 16 16 17 18 17 12 12 17 17 16 14 12 11 12 13 13 12 12 11 10 8 8 9 9 9 9 9 7 7 6 6 6 7 7
7 10 14 13 13 13 14 17 16 16 18 18 18 17 15 17 17 15 14 13 12 11 10 12 12 12 12 10 9 9 10 9 9 9 8 5 4 4 5 7 6 4 3
10 14 15 15 15 15 16 18 17 16 17 16 17 17 18 16 15 14 13 13 12 12 13 13 12 11 10 9 9 9 9 9 9 6 4 4 4 7 6 5 4 4 3
13 14 15 16 15 15 17 18 17 17 16 17 18 18 16 15 14 14 14 13 13 14 13 12 11 9 9 9 10 9 8 7 5 5 4 4 5 5 5 4 4 3 -0
13 14 14 15 16 17 18 17 16 17 16 17 17 15 15 15 14 14 13 14 14 14 13 10 9 9 10 10 9 6 5 5 5 5 4 4 4 5 5 3 2 -2 -4
13 15 17 18 18 19 19 18 16 15 15 15 13 14 14 14 14 12 13 12 12 12 11 10 10 11 9 6 6 7 7 6 5 5 5 5 5 5 3 -1 -4 -4 -4
17 18 18 18 19 19 18 17 16 15 15 14 13 12 12 12 13 12 11 10 8 5 6 7 8 7 6 5 6 7 7 6 6 6 7 5 3 1 0 -3 -4 -4 -5
16 17 17 16 16 15 8 9 16 15 14 13 13 13 13 9 10 11 10 7 5 3 5 6 6 7 5 5 6 6 5 5 4 4 3 2 2 1 -1 -4 -4 -5 -5
17 16 17 17 15 13 13 14 14 13 14 14 13 13 12 10 8 8 10 8 6 6 7 7 7 6 5 6 6 5 4 4 3 3 3 2 -2 -7 -4 -4 -5 -5 -5
16 17 17 16 15 15 15 15 14 13 12 12 12 12 11 10 8 8 9 7 5 6 8 7 5 5 5 5 5 4 4 3 3 3 3 -5 -5 -5 -5 -5 -6 -5 -5
15 15 16 16 16 16 16 15 13 13 10 11 11 11 9 7 7 7 7 6 6 7 6 6 6 6 6 5 4 4 4 4 1 -3 -7 -6 -5 -5 -5 -6 -5 -5 -5
15 16 16 15 15 14 13 11 9 5 9 10 9 10 6 5 5 4 5 6 5 6 6 6 6 5 5 4 5 5 4 4 2 -1 -6 -6 -5 -6 -6 -6 -5 -5 -5
12 12 11 12 12 12 11 10 10 11 10 9 9 9 7 6 5 5 5 5 5 5 5 5 5 5 4 4 5 5 4 3 1 -2 -6 -7 -7 -6 -7 -7 -6 -4 -6
9 9 9 9 10 12 12 12 11 10 10 9 9 9 7 6 6 6 6 6 6 6 6 6 6 5 5 4 4 3 3 3 0 -2 -8 -6 -6 -7 -13 -7 -5 -5 -7
12 11 12 12 12 11 10 9 9 7 8 8 8 8 7 7 7 6 7 8 7 7 7 7 5 4 4 4 3 3 2 2 0 -4 -9 -9 -11 -13 -20 -9 -4 -5 -6
9 8 8 10 9 10 10 10 9 7 7 7 7 7 7 7 7 7 7 7 7 7 6 6 4 4 5 4 3 3 1 -0 -2 -8 -11 -12 -14 -19 -19 -6 -5 -6 -6
9 9 9 9 9 8 8 7 7 7 8 7 7 7 7 7 7 7 6 4 3 1 1 1 1 5 5 4 2 1 0 -2 -7 -8 -10 -16 -23 -23 -14 -7 -6 -6 -6

GFSGL_850_dewp_015.txt.gz
Dewpoint
11 12 12 13 13 14 14 12 11 11 13 13 12 14 15 15 13 13 13 12 4 -2 -1 -0 2 3 3 8 11 10 9 9 9 8 9 9 8 8 9 8 9 9 8
11 11 12 12 13 14 14 12 10 11 11 14 15 15 15 15 13 13 13 14 11 1 -2 -1 -0 4 3 6 8 10 11 10 10 9 9 8 8 8 8 8 8 8 9
11 11 12 12 13 13 14 13 10 11 12 13 15 16 16 15 14 14 14 14 13 10 -1 -1 -2 4 6 6 6 9 10 9 10 10 9 8 9 8 7 8 7 6 7
10 11 12 12 12 13 14 14 12 11 11 13 14 15 16 16 15 15 14 14 14 13 8 0 -1 2 4 9 9 8 9 10 9 9 10 9 7 7 9 8 7 6 7
10 11 11 12 12 13 13 14 14 11 11 11 13 14 14 16 16 16 15 15 15 15 14 7 3 -0 2 6 9 10 10 9 10 10 10 9 8 9 9 7 7 6 6
12 10 11 11 12 12 13 14 14 14 11 11 12 12 13 14 15 16 16 16 15 15 15 13 7 5 1 5 8 11 10 10 10 10 9 9 9 9 8 7 6 7 7
11 11 12 12 11 12 13 14 14 14 14 11 12 12 12 12 12 14 16 15 12 15 15 15 11 8 2 5 9 11 11 10 9 8 9 9 9 8 8 7 5 7 8
10 11 13 12 11 12 14 14 14 14 13 13 11 11 12 12 12 14 17 9 8 15 16 16 13 10 5 7 10 11 12 10 10 10 9 8 9 9 8 7 5 7 8
11 11 12 12 11 12 13 14 15 15 14 13 14 11 11 11 13 15 17 12 15 16 16 13 13 12 8 10 12 11 9 10 10 8 8 9 9 9 8 8 7 8 7
10 9 9 11 12 12 12 13 15 15 15 15 14 12 13 15 16 17 10 11 17 16 13 11 8 9 11 12 12 12 11 9 8 9 10 9 9 8 7 5 5 6 7
8 8 11 13 12 12 13 14 14 16 16 15 15 15 16 17 17 18 13 17 16 14 11 10 10 11 12 13 12 12 11 9 9 9 9 9 5 3 3 5 6 5 4
9 12 14 13 15 16 15 16 17 17 17 16 17 17 18 18 18 16 17 15 12 12 11 11 11 12 12 11 10 10 9 10 9 9 8 4 4 3 5 6 6 4 4
10 10 11 14 16 16 17 17 18 19 17 18 17 18 17 18 17 16 14 13 12 12 12 12 13 13 12 10 10 9 9 9 8 6 4 4 4 3 4 4 4 3 1
12 10 11 13 15 8 17 17 18 19 17 17 16 15 16 15 16 15 14 13 13 12 12 13 13 12 10 9 9 9 9 7 5 5 4 4 4 4 4 5 3 -1 -5
13 13 15 16 16 17 19 19 19 18 16 14 15 14 14 14 14 12 13 13 13 13 14 14 11 9 9 10 9 7 6 6 6 5 5 5 5 5 5 2 0 -3 -5
15 14 15 16 17 18 18 19 19 18 15 15 13 11 10 13 13 12 12 12 13 13 13 12 9 9 10 8 6 6 7 7 6 6 6 5 4 3 1 0 -2 -4 -5
18 17 17 17 18 18 18 18 17 15 12 12 10 9 12 13 13 11 12 12 11 11 9 7 6 7 7 6 5 5 6 6 5 4 3 3 2 2 2 -3 -4 -5 -7
15 16 17 18 18 18 17 16 13 11 10 9 13 12 12 12 13 13 12 10 8 5 4 4 5 6 7 4 4 5 6 5 3 3 3 3 3 2 -6 -5 -5 -7 -6
12 10 12 14 16 15 11 10 12 11 11 14 14 13 13 12 11 11 10 8 6 4 5 5 6 7 5 4 4 6 5 4 4 4 3 -0 -3 -6 -5 -7 -7 -6 -5
12 13 12 15 13 9 8 9 13 14 14 14 14 13 12 11 12 11 10 9 8 6 6 5 6 5 5 5 5 5 4 4 4 3 -0 -4 -7 -5 -6 -6 -7 -6 -5
13 14 14 15 14 14 14 13 12 11 12 13 13 11 10 9 8 6 7 7 7 5 6 6 6 5 6 6 5 4 4 4 4 3 2 -2 -7 -7 -6 -6 -7 -7 -6
13 14 14 13 13 13 13 12 13 13 12 11 11 10 9 5 5 6 4 5 6 5 5 5 5 5 5 5 5 4 5 4 4 3 1 -3 -8 -7 -6 -6 -9 -7 -5
8 9 11 12 12 11 11 11 9 8 8 7 6 7 9 7 6 5 5 5 5 5 5 5 5 5 4 4 4 4 4 3 2 2 2 -3 -8 -6 -6 -11 -15 -8 -5
10 11 11 10 8 9 9 9 10 10 10 10 10 9 8 6 5 5 5 6 6 6 6 6 6 5 5 4 3 3 3 2 2 1 0 -6 -9 -9 -11 -14 -19 -8 -5
9 9 8 8 9 11 11 11 11 10 10 9 9 9 8 7 6 6 6 6 7 7 6 6 7 7 5 4 4 3 2 2 1 -1 -4 -8 -10 -11 -12 -17 -19 -6 -6
8 8 8 9 9 9 9 9 9 9 9 8 8 7 7 7 7 7 7 7 6 4 4 3 3 3 1 4 4 3 1 -1 -5 -8 -8 -8 -9 -15 -19 -20 -10 -7 -7

GFSGL_850_dewp_021.txt.gz
Dewpoint
8 9 10 10 11 12 13 13 13 13 14 14 13 12 12 13 13 14 15 14 11 7 3 -1 -1 -2 -1 1 2 5 9 10 10 11 9 9 9 9 9 8 9 9 8
9 9 9 10 10 11 11 12 12 12 14 14 14 13 12 14 13 13 14 14 12 8 6 4 -1 -1 -1 -1 0 0 2 8 11 10 11 9 9 9 9 9 9 8 8
10 10 10 10 10 11 11 11 12 12 13 14 14 13 12 12 13 12 13 14 13 11 10 10 10 4 0 1 1 2 2 5 8 10 11 10 8 9 10 9 9 8 8
11 10 10 10 9 9 10 11 11 12 12 13 14 13 11 12 12 12 13 14 14 12 12 12 13 13 6 2 3 4 6 5 7 9 11 11 9 10 10 11 11 10 9
10 10 8 8 9 10 10 10 11 12 12 12 13 14 10 11 11 11 11 13 14 13 13 14 14 14 14 9 5 6 7 8 9 11 12 11 11 11 11 11 9 11 10
10 7 8 10 10 10 11 11 11 11 12 12 12 13 12 9 8 9 11 13 13 14 14 14 14 15 15 14 9 8 8 9 10 12 12 12 12 8 11 9 11 10 10
8 9 10 11 10 10 10 11 10 11 11 11 12 13 13 8 7 7 10 13 14 14 15 15 15 15 15 15 15 10 9 10 11 11 12 11 11 9 9 9 9 9 11
9 10 10 10 10 11 12 11 11 11 11 11 12 12 13 12 6 7 9 11 13 14 14 15 16 16 16 16 15 14 12 10 9 11 11 11 11 10 10 8 8 9 9
7 7 7 8 10 11 12 11 11 12 12 11 12 12 12 11 8 6 9 12 13 14 14 15 15 16 16 14 16 14 12 10 9 11 12 11 10 10 8 9 9 9 9
7 7 11 12 12 11 11 14 13 12 11 11 11 12 12 11 10 8 10 12 13 14 14 14 14 16 13 14 15 15 12 8 10 11 11 10 9 9 9 9 8 8 7
8 9 10 11 11 12 13 13 14 15 15 13 11 11 11 11 11 11 12 13 13 14 14 14 14 16 15 15 15 15 12 8 12 12 11 10 9 9 9 6 3 4 6
10 10 10 11 12 14 14 14 14 15 15 16 15 15 12 12 12 13 13 15 14 13 13 14 15 15 15 15 14 13 11 13 12 12 11 10 10 9 5 2 1 2 3
12 12 12 13 13 14 14 15 16 17 16 17 18 17 16 15 14 14 15 14 15 15 15 16 15 14 15 13 11 12 12 12 12 12 11 9 9 6 3 2 2 3 4
11 12 11 12 14 15 16 16 17 17 18 18 18 17 13 15 12 15 16 17 17 17 17 16 15 15 12 10 11 12 12 11 10 10 9 9 7 3 4 4 4 4 3
6 6 7 11 13 14 14 15 15 16 16 17 18 18 16 11 6 17 17 17 17 16 14 15 13 13 12 11 12 12 11 9 9 9 9 8 4 4 4 4 3 4 2
5 5 5 5 8 13 16 15 16 16 16 16 18 18 17 15 18 18 18 17 16 13 10 10 11 12 12 11 12 12 10 9 9 9 8 5 5 5 6 3 2 2 2
7 7 7 8 14 15 16 17 18 17 18 18 18 18 18 18 18 18 16 12 11 11 10 10 10 12 12 12 12 10 8 9 9 6 5 6 6 7 4 4 2 2 -1
7 7 8 10 15 16 16 16 16 16 17 18 19 18 18 18 17 13 12 11 12 11 10 10 10 12 12 12 10 8 10 9 5 6 6 5 3 3 3 3 1 -2 -2
10 10 12 13 12 12 11 11 14 15 16 17 17 18 16 15 14 13 13 10 10 11 12 13 12 12 12 10 8 9 8 5 5 6 4 4 4 4 2 0 -2 -5 -6
11 12 12 12 12 12 12 11 8 11 13 12 14 13 11 10 9 10 11 10 11 12 13 13 12 12 10 10 9 8 6 5 6 5 4 4 4 2 1 -1 -2 -3 -3
11 12 12 12 12 12 11 10 8 9 9 9 11 11 11 10 9 10 12 11 11 10 12 13 12 8 6 5 6 6 4 5 6 5 4 4 4 3 1 -2 -3 -4 -5
11 11 12 13 13 11 11 11 10 11 12 12 12 12 13 12 13 13 13 12 11 11 11 8 4 4 4 5 6 5 5 5 5 5 4 4 3 2 -0 -2 -4 -4 -4
10 12 12 13 13 13 13 13 13 12 12 12 12 12 12 13 13 12 12 11 10 8 6 4 4 5 6 7 6 5 5 5 5 4 4 3 3 2 0 -2 -4 -4 -5
10 10 10 11 12 12 12 13 13 13 13 13 13 13 13 11 10 9 9 8 8 7 6 6 6 6 6 5 6 6 6 5 4 4 3 3 2 1 -0 -2 -3 -5 -7
7 8 9 10 11 11 11 11 11 11 12 12 12 11 11 10 10 9 8 8 9 9 6 5 4 4 4 4 4 4 4 4 3 3 3 2 2 1 -1 -3 -5 -8 -8
10 9 9 9 9 10 10 10 10 10 10 10 10 10 11 11 10 9 10 10 10 8 5 4 5 4 4 5 5 4 4 4 4 4 2 2 0 -2 -4 -6 -7 -7 -7

GFSGL_850_dewp_024.txt.gz
Dewpoint
8 7 9 10 11 11 12 12 13 13 14 14 14 13 13 14 12 13 13 17 10 9 8 7 0 4 10 11 11 10 10 10 9 8 9 10 9 9 11 10 11 12 11
9 7 7 8 9 10 10 11 11 12 13 13 14 14 13 14 13 12 11 16 13 11 10 8 8 7 -0 6 12 11 11 11 10 11 10 11 11 12 11 13 12 11 11
16 14 12 9 8 8 9 9 10 11 12 12 13 14 14 13 13 12 11 11 15 12 12 10 12 10 1 8 8 10 11 12 10 10 10 12 11 12 12 11 13 13 12
15 16 16 10 8 7 8 9 9 10 11 12 12 13 14 13 14 12 11 10 13 13 13 12 14 13 10 8 4 3 8 10 11 11 10 10 11 12 12 10 11 12 12
14 15 16 10 10 10 9 9 9 10 10 11 12 12 13 14 15 11 9 10 10 12 13 12 14 14 12 13 12 8 8 7 10 11 10 10 10 11 11 10 10 10 10
14 14 15 16 13 10 12 11 11 11 11 11 11 12 12 13 14 11 7 8 9 10 13 12 14 14 13 14 14 13 11 7 10 10 10 10 11 12 12 11 11 10 10
13 15 14 15 13 13 14 14 11 12 13 12 11 12 12 12 12 9 5 7 6 8 10 13 16 16 13 14 15 15 14 11 7 13 13 12 12 13 13 12 12 11 11
12 12 13 13 13 17 16 13 13 14 14 12 12 11 11 12 12 12 10 7 10 12 13 15 17 17 14 15 15 15 15 15 12 9 12 13 13 14 13 11 11 10 11
10 7 7 11 14 15 14 11 12 14 15 14 14 12 11 11 11 11 12 12 11 14 16 17 17 16 15 15 16 16 16 15 14 10 10 12 13 12 11 12 12 11 10
9 11 10 8 10 9 9 11 13 14 13 17 17 13 11 11 11 11 12 13 13 13 16 15 13 15 14 15 16 16 16 15 15 13 10 11 12 11 10 9 11 11 9
14 15 13 12 10 10 11 12 14 15 17 17 17 17 15 11 11 11 10 12 13 15 14 16 17 14 14 15 16 15 13 15 15 14 12 11 11 10 10 9 9 8 6
15 16 16 13 15 17 15 15 16 18 18 17 18 18 18 15 12 11 12 12 12 14 15 15 16 12 13 14 16 15 15 15 15 13 13 13 12 12 10 9 7 3 6
15 15 16 17 17 16 17 18 19 18 18 19 18 18 18 17 16 13 11 12 13 14 16 16 16 12 14 16 16 15 15 15 14 12 13 12 12 10 9 8 3 0 1
15 16 17 18 18 19 18 19 18 18 19 18 18 18 18 18 18 18 15 17 16 16 17 17 17 16 16 16 15 15 14 13 11 12 12 12 11 9 8 7 6 6 5
17 17 18 17 18 18 19 18 18 18 18 18 18 18 18 18 18 18 16 17 17 17 17 17 17 16 16 15 15 13 12 11 11 12 12 11 10 9 7 7 6 5 5
7 11 13 13 14 16 17 18 17 17 18 18 18 18 18 18 18 17 16 18 17 17 17 17 16 16 15 14 12 10 10 10 13 12 11 10 9 8 7 7 6 5 4
12 10 14 13 15 14 15 15 16 17 19 18 18 18 18 18 19 18 17 18 17 17 17 16 15 14 13 11 10 11 10 12 12 12 10 10 8 7 7 6 6 5 3
12 10 13 14 15 15 13 13 13 13 15 15 16 16 17 18 19 18 18 18 17 17 16 14 11 10 10 10 11 12 12 12 12 11 10 9 8 7 7 6 5 4 2
14 14 14 13 12 12 13 13 12 13 13 12 12 15 15 16 17 18 18 17 16 15 12 11 11 10 11 11 12 12 12 12 11 10 9 8 8 7 6 5 4 2 -0
13 11 12 14 14 14 14 13 12 12 13 12 12 11 11 11 11 10 15 15 14 12 11 12 12 11 12 12 12 12 12 11 10 9 8 8 7 6 5 4 2 0 -1
12 12 12 12 12 13 14 13 12 12 11 12 10 9 9 9 11 11 11 12 13 13 13 13 13 12 12 12 12 11 11 10 9 8 7 7 6 5 4 2 1 -1 -3
12 12 12 12 13 13 13 13 13 13 12 12 10 9 9 9 9 9 9 10 12 13 13 13 12 12 13 13 11 10 9 8 8 8 7 6 5 5 3 2 0 -1 -4
11 13 13 13 13 13 12 12 12 13 13 12 12 12 12 12 12 12 12 12 12 12 13 13 13 13 12 11 9 9 7 7 7 7 6 5 5 4 3 1 -0 -2 -4
10 11 12 12 12 13 13 12 12 12 13 13 12 12 12 12 12 12 13 13 13 13 12 12 11 8 8 9 8 7 6 6 6 6 6 5 4 3 2 1 -0 -2 -3
8 9 10 10 10 10 10 10 10 10 10 11 12 12 12 12 13 12 13 13 12 11 9 6 7 7 5 5 8 8 6 6 6 6 6 5 3 2 2 0 -1 -2 -3
7 7 8 8 8 8 9 9 9 10 10 10 10 11 11 11 12 12 12 12 11 8 7 5 5 8 6 7 7 6 6 6 6 5 5 4 3 3 2 1 -1 -2 -6

GFSGL_850_dewp_027.txt.gz
Dewpoint
11 9 7 6 9 9 12 15 14 16 17 15 17 16 15 14 16 16 16 16 16 13 14 14 12 6 11 11 11 10 10 10 9 9 9 10 10 8 12 11 11 12 11
14 11 8 8 7 8 8 10 13 12 13 17 15 17 15 14 15 16 15 16 17 16 16 15 14 6 2 9 11 11 10 10 10 10 10 11 11 12 9 13 12 11 11
17 16 16 12 9 8 8 8 9 10 11 12 15 16 15 15 14 13 13 11 14 16 16 17 13 11 6 7 6 11 12 12 12 11 10 11 11 12 13 13 12 12 10
16 17 17 17 9 10 12 9 7 8 9 10 13 14 14 14 14 12 9 9 10 10 12 15 16 14 9 6 6 4 10 11 12 12 11 10 10 11 12 11 11 11 12
15 16 17 17 18 18 17 14 10 9 8 8 9 12 13 13 16 15 14 12 10 9 12 15 17 17 15 8 8 9 9 10 10 11 12 11 10 10 11 11 12 11 11
14 15 16 17 18 18 18 17 16 11 8 8 8 9 11 11 14 16 15 13 12 14 16 17 16 17 17 14 10 12 12 12 11 11 10 11 10 11 11 11 11 11 11
13 15 15 16 17 18 19 19 17 15 15 12 10 10 10 11 11 12 15 15 13 14 16 17 17 17 17 16 12 12 14 14 14 13 10 11 11 12 12 12 12 12 12
14 14 15 16 17 17 17 15 18 18 15 16 15 14 12 10 10 11 12 14 14 16 16 16 16 14 16 16 14 13 14 14 14 14 13 11 9 12 13 12 12 13 12
8 13 15 17 17 17 15 14 17 17 17 17 18 18 14 11 11 10 11 13 14 15 15 15 16 15 15 16 15 14 14 14 15 15 15 12 11 13 9 12 13 13 12
8 11 15 16 17 17 16 16 16 18 18 18 17 16 14 11 13 12 11 14 15 14 15 15 15 15 16 16 16 15 15 14 15 15 15 14 10 11 8 11 12 12 11
14 15 16 16 17 18 16 15 16 18 19 19 18 19 19 18 14 11 11 15 14 15 16 17 17 14 14 15 16 14 13 14 15 16 15 14 12 12 9 11 11 10 11
13 15 17 17 18 18 17 18 18 18 18 18 19 19 19 18 18 16 13 14 13 15 16 16 17 17 16 16 17 15 14 16 17 16 15 15 14 13 13 12 11 10 9
15 16 17 17 18 17 18 19 19 19 19 19 19 19 19 18 19 19 18 16 17 17 15 16 16 16 16 17 17 17 17 17 16 15 15 14 13 12 12 12 11 9 7
17 17 18 18 19 19 18 19 19 18 19 19 18 18 18 18 18 18 19 19 19 18 18 17 16 16 15 16 17 17 17 16 15 15 14 13 12 12 11 11 10 9 6
19 19 19 19 19 19 19 18 18 18 18 18 18 18 17 18 18 18 18 19 19 19 19 18 17 17 16 17 17 16 16 15 15 15 14 12 12 12 11 10 9 8 7
18 18 17 17 18 18 18 19 18 18 18 18 18 18 18 18 18 18 18 18 18 18 18 18 18 17 16 17 16 16 15 15 15 14 11 11 12 12 11 10 8 7 6
16 14 14 13 13 13 14 15 15 16 17 17 17 17 18 18 18 18 18 18 19 19 19 18 18 17 17 17 16 16 15 15 12 11 12 11 12 11 10 8 8 7 6
13 13 14 14 14 15 16 15 15 14 14 14 13 13 14 15 15 15 17 17 18 18 18 18 17 17 17 17 16 15 14 12 12 12 12 12 12 10 9 8 7 7 6
15 15 14 13 12 13 14 14 13 13 13 13 13 12 9 8 9 10 11 13 15 16 17 17 17 16 16 15 15 14 12 12 12 13 13 12 10 9 8 8 7 6 5
13 12 14 14 14 14 14 13 12 12 12 13 12 10 9 10 9 10 10 11 13 13 13 14 15 15 15 15 15 13 13 12 12 13 12 10 10 8 7 7 6 5 4
14 14 14 13 13 14 14 14 14 13 13 12 12 10 8 9 12 11 11 11 13 13 13 13 14 14 13 13 13 13 13 13 12 12 11 10 8 8 7 6 5 4 2
13 13 13 13 13 13 13 13 12 12 12 12 13 13 11 12 12 11 11 10 9 9 10 10 10 8 10 12 12 13 13 12 12 11 10 9 8 7 6 5 3 2 0
12 13 13 13 13 13 13 13 12 12 12 12 12 12 12 12 12 12 12 12 12 12 11 11 12 13 13 13 13 12 12 11 11 9 8 8 7 6 5 4 3 1 0
11 12 12 12 11 11 11 11 11 11 11 12 12 12 12 12 12 12 12 12 12 12 12 13 13 13 13 13 12 11 10 9 9 8 8 7 6 5 5 4 3 1 -0
9 9 9 10 10 9 9 9 9 9 9 9 10 11 12 11 11 12 12 13 13 13 12 12 12 13 12 11 10 7 8 8 7 7 7 6 5 5 4 4 2 1 -0
6 6 6 6 6 6 6 6 7 7 7 8 8 9 10 10 11 11 11 12 12 12 12 11 10 9 7 8 8 7 7 7 7 6 6 6 6 5 4 2 1 0 -1

GFSGL_850_dewp_030.txt.gz
Dewpoint
13 7 8 9 7 7 9 10 13 15 17 14 17 16 15 15 14 15 15 14 13 15 16 15 9 4 4 10 11 11 10 10 9 8 10 10 10 9 10 11 10 10 10
14 14 11 9 7 5 6 7 9 13 13 17 15 18 16 16 13 13 12 13 16 15 14 14 13 8 7 8 11 11 10 10 10 9 9 11 10 10 10 8 8 11 12
18 18 16 13 10 8 5 4 7 9 12 11 15 15 17 16 15 13 11 11 11 17 16 15 15 10 6 5 7 10 11 11 10 10 10 10 10 11 12 11 11 11 8
17 18 18 17 15 14 12 9 6 8 8 10 10 14 15 14 13 14 14 11 9 10 15 17 16 14 10 5 5 3 6 10 10 10 10 9 11 11 11 12 11 11 11
16 17 17 17 17 16 16 15 14 11 8 7 9 10 12 14 12 12 13 14 13 10 9 15 17 15 11 8 7 6 4 9 11 11 11 11 11 10 11 11 12 11 11
15 15 16 16 17 18 18 18 16 13 12 12 10 10 11 11 10 10 10 12 13 13 12 11 16 15 13 12 10 10 8 6 6 8 9 10 11 11 10 10 12 12 12
14 15 15 16 17 17 17 18 18 17 16 14 14 13 10 9 8 8 9 11 13 14 13 13 13 13 14 14 14 12 12 10 11 11 11 10 11 11 11 11 12 11 11
14 14 16 16 16 17 17 17 18 18 17 16 16 15 14 10 9 8 9 11 13 14 15 13 13 13 15 15 14 15 13 13 11 12 13 13 11 11 12 12 12 12 11
10 13 13 15 16 17 17 17 17 18 19 18 16 17 16 14 15 14 15 16 15 14 15 15 15 15 14 16 17 14 13 14 13 12 13 13 14 13 11 12 13 12 9
7 7 11 13 14 16 17 18 18 18 19 19 18 17 18 17 18 18 18 18 17 16 17 16 16 16 16 15 17 17 17 14 13 13 13 14 14 14 13 13 12 12 11
7 10 10 11 13 16 17 19 19 19 19 19 19 19 18 18 18 19 20 19 19 18 18 18 18 18 18 17 16 17 15 16 14 14 13 14 14 15 14 12 12 12 13
9 10 12 13 15 17 18 19 20 19 19 19 19 19 19 19 19 19 19 20 20 20 19 18 18 18 18 18 18 17 17 18 17 16 15 15 15 15 14 13 11 10 11
13 12 13 14 17 17 19 19 19 19 19 19 19 19 20 20 19 20 20 19 19 19 19 19 18 18 18 18 18 18 18 18 18 17 17 16 16 15 14 13 12 11 11
14 16 16 17 18 18 18 19 19 19 19 19 20 20 20 19 19 19 19 19 19 19 19 19 19 19 17 18 18 18 18 18 17 17 17 16 16 15 14 13 11 10 10
17 18 18 18 19 19 19 18 20 19 19 19 19 19 18 18 19 19 18 19 19 19 19 19 19 19 19 18 17 17 17 18 18 18 17 16 16 15 14 13 11 12 11
19 19 19 18 18 18 19 18 18 18 19 18 18 18 18 18 18 18 18 18 18 18 19 19 19 19 18 18 18 17 17 18 18 17 17 16 15 14 13 12 12 12 11
17 17 16 17 15 19 18 19 19 18 18 18 18 18 18 18 17 17 17 18 18 18 18 18 18 19 19 18 18 18 18 17 17 17 16 16 15 14 13 12 12 11 9
15 14 14 14 15 16 16 16 16 16 15 15 15 15 15 15 12 9 9 9 10 11 14 16 17 18 18 17 17 17 17 17 17 16 16 15 14 10 12 12 11 10 8
14 14 13 13 13 13 14 14 13 13 13 13 12 11 8 8 7 7 8 8 8 8 9 13 14 15 15 16 17 16 16 16 16 15 15 15 11 11 12 12 11 9 8
13 14 15 15 14 14 14 14 13 13 12 13 13 11 9 10 10 10 10 9 10 10 11 13 13 13 14 13 13 14 15 16 16 15 14 13 13 12 12 11 9 8 8
14 14 14 14 14 14 14 14 14 14 14 13 13 13 12 12 13 13 12 12 11 10 10 13 12 12 11 11 13 14 14 14 13 13 13 13 13 12 11 10 9 7 7
14 13 13 13 13 13 13 13 13 12 12 12 12 12 12 12 12 13 12 13 12 12 12 10 10 11 11 12 10 10 10 10 9 11 13 13 12 11 9 8 8 7 6
12 13 12 12 12 12 12 11 11 11 12 12 12 12 12 12 12 12 12 12 12 12 12 12 12 12 13 13 12 11 11 12 13 13 12 12 11 9 8 7 7 6 4
11 11 11 11 11 10 10 10 10 9 9 10 11 11 11 11 11 12 12 12 13 12 12 12 12 12 12 12 13 13 13 13 13 12 11 10 9 8 8 7 5 4 2
8 8 8 8 8 8 8 8 8 7 7 7 8 8 9 10 10 11 11 12 12 12 12 12 13 13 13 13 13 12 11 9 10 11 10 9 8 8 7 5 4 4 3
6 5 5 5 6 6 6 5 4 4 4 5 6 6 7 8 8 8 9 10 10 11 11 12 11 11 12 11 12 11 10 9 8 7 8 8 7 6 6 5 4 3 2

GFSGL_850_dewp_033.txt.gz
Dewpoint
14 13 11 8 7 12 11 9 13 16 15 15 16 16 15 15 15 15 12 12 13 14 14 12 7 1 10 11 11 10 8 7 7 9 10 10 10 10 10 10 10 11 10
13 13 14 11 8 8 10 7 9 10 15 14 14 15 17 16 15 15 12 10 13 13 13 14 10 9 4 7 8 10 10 8 6 5 8 11 10 10 10 10 10 9 9
13 13 13 14 12 8 7 6 6 7 7 13 17 16 15 17 17 16 15 9 8 9 10 14 14 13 9 7 6 8 10 10 9 8 7 9 10 11 11 11 11 10 10
13 13 12 12 12 11 7 6 6 6 6 8 11 17 16 15 15 16 15 14 11 8 10 10 14 15 11 8 8 7 9 10 10 9 8 9 9 10 11 11 11 11 10
13 13 12 11 11 11 9 6 4 5 7 7 8 9 13 15 15 15 14 14 13 12 11 9 9 9 9 8 8 8 6 8 9 9 9 9 9 9 10 10 11 11 11
13 13 14 14 14 14 11 8 8 6 6 7 7 8 10 11 12 12 12 13 13 13 11 11 11 10 9 8 10 10 10 8 7 7 5 7 7 8 8 10 11 11 12
14 14 14 15 15 15 15 15 12 11 10 8 9 9 10 9 10 12 13 14 13 12 11 11 10 11 11 11 11 13 14 12 12 9 6 5 7 8 9 10 10 10 11
14 14 15 15 15 15 16 16 16 16 14 13 12 12 13 10 10 11 14 16 16 16 15 13 12 11 11 11 11 13 15 15 14 14 12 8 7 8 10 10 11 11 11
14 15 14 15 15 15 16 16 16 17 17 17 17 16 15 15 16 16 17 17 17 17 18 17 16 15 14 14 15 15 15 15 14 15 15 13 10 10 10 12 12 12 12
13 14 14 15 15 15 16 16 16 17 17 17 17 17 17 17 18 19 19 19 18 18 18 18 18 18 18 18 17 17 16 15 15 14 16 16 15 12 12 11 12 12 12
10 10 11 11 13 14 15 16 17 17 17 18 18 19 19 18 19 20 20 20 19 19 19 19 19 19 19 19 19 19 18 17 16 16 16 16 16 14 13 13 13 13 13
9 9 8 8 9 10 13 15 17 18 18 19 19 19 20 19 19 19 20 20 20 19 19 19 19 19 19 19 18 18 19 19 19 18 18 17 16 16 15 14 13 14 14
7 8 11 12 12 13 14 16 18 19 19 20 20 19 19 19 19 19 19 19 19 19 19 19 19 19 18 19 18 18 18 19 19 18 18 17 17 17 16 15 14 13 13
10 9 7 14 15 15 16 18 19 19 19 19 19 19 18 18 19 19 19 20 20 20 20 19 19 19 19 19 19 19 18 18 18 19 18 18 17 17 17 16 15 14 13
16 15 16 16 15 16 17 18 19 18 18 18 18 18 18 19 19 19 20 20 19 19 19 19 19 19 19 18 19 19 18 18 18 18 18 18 17 17 17 17 16 15 13
18 18 18 18 17 18 18 18 19 19 20 20 19 19 20 20 18 19 18 18 18 18 18 18 18 18 18 19 19 19 18 17 17 17 17 18 18 16 16 16 16 15 14
19 19 18 18 18 18 18 19 19 19 19 20 20 19 18 18 18 18 18 18 17 17 17 16 14 16 18 18 18 18 18 18 17 17 16 17 17 16 16 16 16 14 13
16 15 16 16 17 19 19 19 20 19 18 17 17 16 16 17 16 16 14 11 6 6 7 7 7 8 11 14 15 15 15 15 16 17 17 17 17 16 15 15 15 14 12
14 14 14 15 15 16 16 14 14 14 14 14 13 12 10 8 7 7 7 7 7 8 8 9 10 11 11 11 10 10 12 12 13 13 13 15 16 16 16 14 13 13 12
14 14 13 13 14 14 14 13 13 13 13 12 12 11 11 9 9 10 10 11 11 10 10 9 10 11 10 10 10 11 11 11 11 13 14 14 13 13 13 13 12 12 11
14 14 14 14 14 14 14 13 13 13 13 13 13 12 12 12 12 13 13 12 13 13 12 12 12 12 12 12 13 13 11 11 10 10 10 9 7 7 9 10 11 12 11
14 13 13 13 13 13 13 13 13 13 13 13 12 12 12 12 11 12 12 12 12 12 12 13 12 12 12 13 13 13 12 11 11 11 11 11 10 9 12 12 12 11 10
13 13 12 12 11 12 11 12 11 11 11 12 11 11 11 11 11 11 12 12 12 12 12 13 13 12 12 12 12 12 12 13 13 13 13 12 12 12 12 11 11 10 9
12 11 11 11 10 10 9 9 9 9 9 9 9 9 9 10 10 10 10 11 11 11 11 12 12 12 12 13 13 12 12 13 12 13 13 12 12 11 11 10 10 8 8
8 8 8 7 7 7 6 6 6 6 6 6 7 7 7 8 8 8 9 9 9 10 10 11 11 11 11 12 13 13 11 12 13 12 11 11 10 9 9 8 8 8 7
6 6 6 6 5 5 5 5 5 5 4 4 3 4 6 7 7 7 8 8 7 7 6 9 10 10 12 12 11 11 9 10 12 11 10 10 9 8 8 7 6 5 3

GFSGL_850_dewp_036.txt.gz
Dewpoint
13 13 14 14 15 14 12 11 12 11 13 15 16 15 15 15 15 15 15 14 12 12 13 11 4 2 6 8 9 9 9 8 8 8 9 10 10 10 10 10 10 10 10
12 13 13 13 14 14 12 10 10 10 13 15 15 15 16 16 15 15 15 15 14 12 11 11 9 8 1 3 7 7 8 9 8 5 5 8 9 10 10 10 10 10 10
13 13 13 14 14 14 11 8 8 10 11 15 17 16 15 15 16 16 15 15 15 10 10 11 7 10 10 6 2 6 7 8 9 9 7 7 7 10 10 10 10 10 10
13 13 13 13 13 12 10 8 7 7 8 10 13 16 15 14 15 15 16 16 15 14 10 8 9 8 7 9 12 8 5 7 10 10 9 9 8 8 10 10 10 10 10
12 12 12 11 11 10 9 8 7 6 5 6 8 11 12 15 15 15 15 15 15 14 13 12 9 8 6 5 7 10 12 12 9 10 11 10 9 9 9 9 10 10 10
12 12 12 11 10 9 8 7 6 6 5 5 6 6 7 8 11 15 15 15 16 15 14 13 13 13 12 11 10 8 8 11 13 12 9 10 9 8 8 9 9 10 11
12 12 12 12 11 10 8 8 7 5 5 5 5 5 5 7 7 8 9 12 14 14 14 14 14 13 13 13 12 12 12 10 11 12 13 11 8 7 6 8 9 9 8
12 12 12 13 13 13 14 14 13 13 12 10 8 7 7 7 8 9 10 12 14 14 14 14 15 14 13 13 14 14 13 13 12 12 13 11 12 11 11 9 6 8 9
12 12 12 13 13 13 14 14 15 15 15 15 15 15 15 14 14 15 15 16 16 16 16 16 15 14 15 16 17 17 17 15 15 14 14 14 14 14 14 14 11 10 10
13 12 13 13 13 13 14 14 14 15 15 15 16 16 16 16 17 18 18 18 18 18 18 18 18 19 19 19 19 19 18 17 18 18 17 17 16 16 16 16 15 11 10
12 12 13 13 13 14 14 15 15 15 16 16 16 17 17 17 17 18 19 19 19 19 19 18 18 19 19 19 19 19 18 18 18 18 18 18 18 18 17 17 16 15 12
14 12 13 13 14 15 15 15 16 16 16 17 17 18 18 18 18 19 19 19 19 19 18 18 18 19 18 18 18 18 18 17 18 19 19 18 18 18 17 17 17 16 15
12 13 14 14 14 14 14 14 15 16 17 18 18 18 19 19 19 19 18 18 19 19 19 19 19 19 19 19 20 19 19 19 19 19 19 19 18 18 18 17 17 17 16
6 7 9 8 10 12 12 13 14 14 16 18 19 19 19 18 18 18 18 19 19 19 19 19 19 19 19 18 19 18 18 18 19 19 19 18 18 19 18 18 18 17 17
16 11 8 7 7 11 15 15 16 15 17 18 19 18 18 19 18 18 19 19 19 19 18 18 18 18 18 18 18 18 17 17 17 17 18 18 18 18 18 17 17 17 15
18 18 17 17 16 17 17 17 18 18 19 19 18 18 19 19 18 19 19 18 18 19 18 18 17 16 15 16 17 18 18 18 18 17 17 17 18 17 17 17 17 17 16
16 17 18 19 18 18 17 17 18 19 18 18 19 18 18 17 20 19 19 18 17 17 15 13 10 8 8 10 13 14 15 13 11 10 10 10 11 15 17 15 16 15 15
17 16 17 18 18 19 19 19 19 19 18 18 18 19 18 18 18 16 14 11 10 8 7 7 8 8 9 10 11 10 9 9 9 10 10 10 13 14 14 13 13 14 15
15 15 16 16 17 17 19 20 19 18 17 15 13 12 10 10 9 9 9 9 8 8 8 7 8 9 10 10 10 9 10 11 11 10 10 11 12 10 9 12 13 13 14
14 14 15 15 16 15 17 18 16 15 13 12 12 11 11 10 10 10 10 10 11 10 10 10 11 11 11 11 11 11 11 11 10 11 11 10 8 9 10 11 11 11 11
15 14 13 14 14 14 14 14 14 13 13 12 12 12 12 12 11 11 11 12 12 12 12 12 13 12 12 12 12 12 12 12 12 11 11 11 9 10 10 10 9 8 8
14 14 14 14 14 13 13 13 13 13 13 13 12 12 12 12 12 12 12 12 12 12 12 12 12 12 12 12 12 12 12 12 13 13 13 12 10 10 11 11 11 10 10
14 14 14 13 13 13 13 12 12 12 12 12 11 11 11 11 11 11 11 10 10 11 11 11 12 12 12 12 13 12 12 12 12 12 12 13 12 10 11 11 10 11 11
13 12 11 11 11 10 11 11 10 10 10 10 9 8 8 8 9 9 9 9 10 10 10 10 11 11 11 12 11 12 12 13 13 12 12 12 12 12 11 10 10 10 9
11 11 10 10 9 8 8 7 7 7 7 7 7 7 7 7 8 8 8 7 6 6 7 9 10 10 10 10 11 12 11 12 12 11 12 11 11 10 10 9 9 8 8
7 6 5 5 5 4 4 4 4 3 3 3 4 5 5 5 6 6 6 6 7 7 6 6 7 9 10 10 11 11 11 11 12 11 11 11 11 10 9 9 9 9 8

GFSGL_850_dewp_039.txt.gz
Dewpoint
12 12 13 13 13 13 13 12 12 12 13 13 13 14 15 15 15 15 15 14 14 12 12 12 8 7 9 10 10 11 11 11 10 6 6 8 9 9 9 10 9 10 10
12 12 13 13 13 13 13 13 12 12 13 12 13 13 15 15 15 15 15 15 15 14 11 11 11 11 5 4 7 9 10 9 10 8 7 7 6 6 8 9 10 10 10
13 12 13 13 13 13 13 13 13 12 12 13 12 13 14 15 15 15 16 15 15 15 15 12 8 9 9 5 3 2 6 8 10 10 7 7 8 8 7 7 9 10 10
13 13 13 13 13 13 13 13 13 12 10 11 12 12 15 15 15 15 16 16 16 15 15 15 13 9 8 7 7 8 8 6 5 6 7 7 8 9 9 8 7 9 10
13 13 12 12 12 12 13 13 13 11 9 7 9 10 10 15 15 15 14 14 14 14 14 14 13 12 9 8 8 7 8 10 12 11 10 8 8 8 8 7 8 7 7
12 12 12 12 12 11 12 12 11 9 8 7 6 7 8 9 9 11 13 13 13 13 13 13 13 13 13 13 12 12 11 10 11 12 13 14 12 11 9 8 8 10 9
12 12 12 12 12 10 9 10 9 8 7 5 5 5 5 6 6 6 9 11 11 13 13 13 13 12 13 14 14 15 15 14 14 14 13 13 11 10 12 13 11 9 9
12 12 12 13 13 12 12 11 10 10 9 8 6 5 6 5 5 6 7 8 9 9 9 9 11 12 13 14 15 15 15 15 16 16 16 15 14 13 14 14 14 15 14
12 12 12 12 13 13 13 13 12 12 12 12 11 12 12 11 11 10 11 12 12 11 12 13 14 15 16 17 18 18 17 17 17 17 17 17 17 17 17 17 18 17 16
11 11 12 12 12 13 13 13 13 13 14 15 15 15 15 16 16 16 17 17 17 17 17 17 18 18 18 19 19 18 18 18 18 18 18 17 17 17 17 18 18 16 16
11 12 12 11 12 12 12 13 13 13 14 15 15 15 16 16 16 17 17 18 18 18 18 19 19 18 18 18 18 18 18 18 18 18 19 19 18 18 17 17 17 17 17
13 13 13 13 13 13 13 14 14 14 15 15 16 16 16 17 17 17 18 18 19 19 19 18 18 18 18 18 19 19 19 19 20 19 19 19 19 18 17 17 18 17 18
15 15 15 15 15 15 15 14 15 15 16 16 16 17 17 17 17 18 18 19 19 19 18 18 18 19 19 19 18 19 20 20 20 18 18 18 17 18 19 19 18 18 18
12 13 14 15 15 15 16 16 16 16 16 16 16 16 16 18 18 18 18 18 18 18 19 19 19 19 19 19 19 20 19 18 18 18 18 18 18 17 18 18 18 17 17
10 10 10 10 10 11 12 15 16 17 16 16 16 17 18 19 19 19 19 19 18 18 19 19 19 19 18 18 18 18 17 17 18 18 17 17 16 13 13 10 12 14 16
12 11 11 10 10 10 10 11 13 15 17 17 18 19 19 20 19 19 19 19 19 19 19 19 18 17 17 17 16 15 14 15 16 16 15 13 10 9 8 9 11 13 14
9 11 13 15 17 17 16 17 18 18 18 18 19 19 19 18 18 18 18 19 18 19 18 16 15 14 11 8 7 9 10 10 10 10 10 9 9 9 10 9 9 9 9
15 14 14 17 18 19 19 18 18 18 18 19 19 19 19 19 19 18 18 17 15 13 11 9 8 8 9 10 10 10 10 10 9 9 10 10 10 9 9 10 9 10 10
15 16 16 16 18 17 18 18 19 17 18 17 16 16 17 17 16 14 13 12 11 9 8 8 9 9 9 9 9 10 10 10 10 10 10 10 10 10 9 10 9 10 10
14 14 15 15 15 16 16 18 19 17 16 14 13 12 12 12 12 11 11 10 11 11 11 12 12 12 11 11 11 11 11 11 11 11 11 11 11 10 9 10 9 9 9
15 14 14 14 14 15 16 18 17 16 14 13 13 12 12 12 11 11 11 11 11 12 12 12 12 12 12 11 12 12 12 11 11 11 12 13 12 10 9 10 9 8 11
13 14 14 14 14 15 15 16 15 14 13 13 12 12 12 11 11 11 11 11 11 11 11 11 11 11 11 12 11 11 12 13 13 12 12 12 12 11 10 11 11 10 10
12 13 13 14 14 14 14 14 13 13 12 12 12 11 11 11 10 10 10 10 10 10 10 10 10 10 10 11 11 12 12 12 12 13 12 12 12 12 11 11 11 11 10
14 12 12 13 13 13 13 13 12 12 11 11 11 10 10 9 9 9 8 8 8 7 8 8 9 9 9 10 10 11 11 11 12 12 12 12 12 12 12 12 11 11 10
13 13 12 12 12 12 11 11 10 10 9 8 8 8 7 7 8 7 7 7 7 6 6 6 6 6 7 9 10 10 10 11 11 11 11 11 11 11 12 12 11 11 10
11 10 10 9 9 9 8 7 6 6 5 5 5 5 4 4 3 3 3 3 3 3 3 3 3 4 5 5 7 8 10 10 11 11 11 11 11 11 11 11 11 10 10

GFSGL_850_dewp_042.txt.gz
Dewpoint
12 12 12 13 12 12 12 13 13 12 11 10 12 13 14 14 14 15 15 14 13 12 11 12 12 12 10 12 12 11 11 11 11 7 8 6 6 5 6 7 9 9 9
12 12 12 12 12 12 12 13 13 12 11 10 10 11 12 13 14 15 15 15 15 14 13 12 10 12 10 7 7 7 8 8 9 7 5 4 5 7 7 7 5 7 8
12 12 12 12 12 12 12 13 13 13 12 11 11 10 10 12 14 15 15 15 15 15 15 15 14 12 10 10 10 8 4 3 3 4 2 2 2 4 5 6 7 7 6
13 13 13 12 12 12 12 13 13 13 13 11 10 9 8 10 12 13 13 14 15 15 15 15 14 14 12 9 7 8 8 9 10 11 10 8 8 6 6 6 6 6 7
13 13 13 12 12 12 12 12 13 13 13 12 11 9 9 8 8 10 10 11 13 14 15 14 13 12 11 11 11 7 7 7 8 8 8 8 7 7 8 9 11 10 10
13 12 12 13 13 12 12 12 12 12 12 13 12 9 7 6 6 6 8 9 9 11 10 10 11 11 11 11 12 12 14 14 15 14 14 14 13 13 12 11 12 12 12
12 12 12 12 12 12 12 11 11 12 11 11 11 9 7 4 3 4 5 7 8 8 9 9 9 9 10 11 11 12 13 15 16 16 16 16 16 16 16 16 16 15 15
11 11 12 12 12 12 12 11 11 11 11 11 10 8 7 5 4 4 5 6 7 6 6 7 8 8 8 9 10 11 11 13 15 16 17 17 17 18 18 18 18 18 17
10 11 11 11 12 12 12 12 11 11 10 10 10 9 8 7 7 6 7 8 8 7 8 8 9 10 10 11 13 14 15 16 17 17 17 17 17 17 18 18 18 17 17
10 10 11 12 12 12 12 12 12 13 12 13 12 12 12 13 13 14 15 15 15 14 14 14 15 15 16 17 18 18 19 18 18 17 17 17 17 17 17 17 17 17 17
11 11 11 12 12 12 13 13 13 14 14 14 14 15 15 15 15 16 16 17 17 17 17 17 18 18 18 18 18 17 17 18 18 18 18 19 19 18 17 17 17 18 18
12 12 12 12 12 13 13 13 14 14 15 15 15 15 15 15 15 16 17 17 18 18 18 18 19 18 18 18 18 18 18 19 19 19 19 19 19 19 19 19 18 18 18
13 13 13 13 13 13 13 13 14 14 15 15 15 15 15 15 15 16 17 18 18 19 19 19 18 19 19 20 20 20 20 20 19 19 19 19 18 18 18 17 17 17 15
14 14 14 15 15 15 15 15 15 15 15 15 15 15 16 16 16 17 18 18 18 18 17 18 19 19 19 19 20 20 19 19 18 17 17 18 18 17 16 15 13 10 9
13 14 15 16 16 16 16 16 16 16 16 16 16 16 17 16 16 18 18 17 17 18 18 18 19 19 19 19 19 18 17 17 17 17 17 16 15 13 10 9 9 9 9
13 12 11 11 11 12 13 13 14 14 15 17 18 18 18 18 19 19 18 17 19 19 19 19 20 19 18 17 17 16 16 15 13 13 13 11 9 9 9 8 9 9 9
9 11 13 12 11 11 12 14 14 14 17 18 18 18 19 20 19 17 17 18 19 19 19 19 19 18 16 15 13 10 9 9 9 9 9 10 10 9 9 9 9 9 9
10 9 11 15 16 16 17 17 18 18 18 19 20 20 20 19 18 17 16 17 18 18 17 15 14 13 10 9 9 10 10 10 9 10 10 10 10 9 10 10 9 9 10
14 15 15 16 18 19 19 19 18 18 17 16 16 17 17 17 17 18 17 16 13 12 12 10 9 9 9 9 9 10 10 11 11 11 11 11 11 11 11 9 9 9 9
14 15 16 16 17 18 19 19 18 18 17 15 15 15 15 14 13 13 13 13 13 11 10 10 11 11 12 11 11 11 12 12 12 11 11 11 12 12 11 9 10 9 8
14 14 14 14 15 17 18 18 18 17 16 14 14 13 12 12 12 12 12 11 11 10 11 12 12 11 12 12 12 12 12 12 12 12 12 12 12 12 12 11 10 10 9
13 13 13 14 14 15 16 17 16 16 14 14 13 13 13 12 12 12 11 11 11 11 11 11 10 10 10 10 10 11 12 12 12 12 12 12 13 12 12 12 10 11 10
13 12 13 11 13 15 15 15 15 14 14 13 13 12 12 11 11 10 11 10 10 9 10 9 10 10 10 10 9 9 10 10 11 11 11 11 12 12 12 12 11 10 11
13 12 13 12 11 13 14 14 13 13 12 12 12 11 11 10 10 10 9 9 9 8 7 7 7 6 7 7 8 9 9 9 9 10 11 11 11 11 11 12 12 12 11
14 13 12 13 12 13 12 12 12 11 10 9 9 9 9 8 8 7 7 7 6 5 4 4 3 3 3 3 4 5 6 8 9 10 11 11 11 11 11 11 11 12 11
13 12 12 12 12 11 10 9 8 8 8 7 7 6 5 4 3 2 2 1 1 1 1 0 -0 -1 -2 -2 -1 0 2 4 5 8 10 11 11 11 11 10 10 11 11

GFSGL_850_dewp_045.txt.gz
Dewpoint
11 11 11 11 12 12 12 12 12 13 13 11 10 10 12 13 14 14 14 15 15 14 13 12 12 13 13 11 10 11 11 11 11 11 8 5 5 6 6 6 6 5 6
12 11 11 11 12 12 12 12 12 13 13 12 11 9 11 12 13 14 14 15 14 14 13 13 12 11 11 12 12 8 7 7 7 4 3 3 1 1 2 4 5 6 6
12 12 12 12 12 12 12 13 12 12 13 13 11 10 10 11 12 13 14 14 14 14 14 14 14 14 13 11 9 9 9 9 9 8 6 7 5 6 6 6 6 6 6
12 12 12 13 12 12 12 12 12 12 13 13 11 10 9 8 9 10 13 13 13 14 14 14 14 14 13 12 12 11 10 10 9 8 7 10 10 6 6 5 7 7 8
12 12 12 12 12 12 12 12 12 12 12 13 13 11 9 9 7 6 9 11 12 12 13 13 13 12 12 12 13 13 13 13 13 15 16 16 15 15 15 15 15 15 14
11 11 12 12 12 12 12 12 12 12 12 13 13 13 11 8 6 3 4 6 7 8 9 9 10 11 10 11 12 13 14 15 14 14 16 16 16 16 17 16 17 17 16
11 11 12 12 12 12 12 12 12 12 12 12 13 13 12 10 6 4 4 5 5 5 5 4 4 5 4 6 7 8 10 12 14 15 14 15 15 16 17 17 18 18 18
11 11 11 11 11 12 12 12 12 12 12 12 12 12 12 10 8 6 5 7 7 6 5 4 5 4 5 5 5 7 7 8 8 9 10 12 15 17 18 18 18 18 17
11 11 10 11 11 12 12 12 12 12 12 11 11 11 10 8 7 5 6 8 7 5 5 5 5 5 5 6 7 8 8 10 12 14 16 17 17 17 17 18 18 18 18
10 10 11 11 11 11 11 12 11 11 11 11 10 9 9 8 7 7 8 10 9 7 8 8 8 8 9 11 13 15 16 17 18 17 18 18 17 17 17 18 18 18 18
11 11 11 11 10 10 11 11 12 12 12 11 10 10 11 11 12 12 13 13 14 14 15 16 16 16 17 17 18 18 18 17 17 17 17 18 17 17 18 18 18 18 18
11 11 11 11 11 12 12 13 13 13 13 13 13 14 14 14 15 15 15 16 16 17 17 17 17 18 18 19 18 17 17 18 18 19 18 18 19 19 19 18 18 18 17
11 11 11 12 12 13 13 13 14 14 14 14 14 14 15 15 15 15 16 16 17 18 18 18 19 19 19 18 18 19 20 19 19 19 19 19 19 18 18 18 17 14 12
12 12 12 12 13 13 14 14 14 14 15 16 16 17 16 15 15 15 16 16 17 18 19 19 19 18 18 19 19 19 19 19 19 19 18 17 17 17 17 13 10 9 8
14 13 13 13 13 14 15 16 16 15 17 16 17 16 15 16 16 16 16 16 17 18 19 19 19 19 19 19 19 20 20 19 18 17 17 17 16 11 9 9 9 9 11
18 17 16 15 15 15 15 15 15 16 16 16 16 17 17 17 17 17 17 17 18 18 18 19 19 19 19 19 19 19 17 16 16 15 13 10 9 9 9 9 9 11 11
17 17 17 16 17 15 16 16 16 16 17 17 17 18 18 18 18 18 17 17 18 18 19 19 19 19 19 19 18 15 14 13 10 9 9 9 9 9 10 11 12 12 11
13 11 8 15 13 16 14 14 14 15 16 16 18 19 19 19 19 18 18 17 17 17 19 19 19 18 16 14 13 11 10 9 10 9 9 10 11 11 12 12 12 9 8
15 15 16 18 18 18 17 17 17 17 18 17 18 19 19 19 18 17 18 18 17 17 17 16 14 13 12 11 9 9 9 10 11 11 11 11 12 12 12 11 11 9 9
15 16 16 17 18 18 19 19 18 18 18 18 18 17 17 17 17 16 17 16 15 14 14 13 11 10 10 10 10 11 12 12 13 13 12 12 13 12 12 12 12 10 10
14 14 14 15 17 19 19 18 18 18 17 16 15 15 15 14 14 13 13 12 12 12 12 11 11 11 11 12 12 12 12 12 12 12 12 12 12 12 12 12 12 12 10
13 12 12 12 14 17 18 18 17 17 16 15 14 13 13 12 12 12 12 12 11 11 11 11 11 11 10 10 10 10 10 10 10 11 11 11 11 11 11 11 12 12 12
14 14 13 12 11 14 15 16 16 15 15 14 13 13 12 12 12 12 11 11 11 10 10 10 10 9 9 9 8 8 8 8 9 8 8 10 10 11 11 11 11 11 12
13 14 13 13 11 13 15 15 15 15 14 13 13 12 12 11 11 11 10 10 10 9 9 8 7 6 6 5 5 5 4 4 5 8 9 9 10 11 11 11 11 11 11
12 13 14 13 12 11 13 13 13 13 13 12 11 11 10 9 9 9 8 8 6 6 5 3 2 1 1 0 -0 0 1 1 2 3 7 9 10 11 11 11 11 11 11
11 12 13 13 12 12 12 12 12 11 11 10 9 8 8 7 7 6 4 3 1 0 -0 -1 -2 -4 -5 -7 -9 -12 -13 -11 -7 -1 2 6 9 9 10 10 10 10 10

GFSGL_850_dewp_048.txt.gz
Dewpoint
14 15 14 13 12 10 13 12 12 13 13 12 12 12 16 16 15 13 15 17 17 17 17 17 16 16 16 15 15 14 14 14 12 11 10 11 9 2 2 4 3 4 7
13 12 12 11 11 15 11 12 12 12 13 12 13 11 13 16 17 16 15 16 17 17 17 17 17 16 11 11 15 16 14 13 13 13 13 13 12 12 8 5 6 10 12
15 13 13 14 13 12 11 11 12 12 12 12 13 12 11 14 16 16 15 16 17 17 17 17 17 17 17 15 17 16 15 17 17 16 15 14 14 14 14 15 14 13 12
15 15 14 11 12 11 11 11 12 12 12 12 13 13 11 9 14 16 16 13 16 17 17 17 18 17 17 17 17 17 17 17 16 16 15 14 13 13 14 15 15 15 15
14 15 15 10 11 11 11 11 12 12 12 12 12 13 13 14 14 15 15 16 15 15 17 16 15 15 15 14 17 17 17 17 16 15 14 14 14 14 15 15 16 16 16
15 15 15 11 11 11 12 12 12 12 12 12 12 13 13 15 13 11 11 15 15 15 15 14 12 12 10 11 12 12 13 14 16 17 16 15 15 16 16 16 16 16 16
15 15 15 12 11 11 11 12 12 12 12 12 12 13 13 12 10 7 6 7 14 14 13 14 14 15 14 11 9 6 7 8 10 11 12 13 13 14 15 17 17 18 18
16 15 14 13 12 12 12 12 12 12 12 12 12 12 12 12 9 8 6 7 7 8 11 14 9 6 10 14 16 16 15 14 12 8 7 7 9 15 18 18 18 17 17
16 14 12 12 12 12 12 12 12 12 12 12 12 12 12 10 8 5 8 10 9 6 4 4 5 4 2 3 4 5 7 10 15 15 14 15 17 18 17 18 18 18 17
15 11 11 11 11 12 12 12 12 12 12 13 12 12 10 9 8 6 7 10 13 12 8 5 4 3 3 4 5 6 8 11 17 18 19 19 19 19 17 18 19 19 19
16 17 17 14 11 12 12 11 11 12 14 12 14 12 9 7 7 6 7 9 11 14 15 14 15 14 8 11 13 15 16 18 18 19 19 19 19 18 18 18 19 18 19
16 17 16 12 13 16 13 12 13 12 12 12 11 11 14 9 7 6 6 8 10 12 14 15 17 18 17 17 17 18 18 18 18 17 17 18 18 18 19 19 18 18 18
17 17 17 15 12 16 15 15 17 16 18 17 18 17 17 17 14 10 11 13 14 15 15 18 19 19 19 18 18 19 19 18 18 19 19 20 19 18 18 18 17 17 15
18 18 19 19 18 18 18 18 18 18 18 18 18 17 17 18 18 19 15 15 16 16 16 17 17 18 18 19 19 18 19 19 19 19 19 18 18 17 18 17 14 13 13
18 19 19 19 19 19 19 18 18 18 18 18 17 18 18 18 18 19 19 19 16 16 17 17 18 18 18 19 18 18 19 20 19 19 18 17 18 17 15 13 13 13 12
18 18 18 18 19 18 19 18 18 18 18 18 18 18 18 18 19 19 18 19 17 16 17 18 19 19 19 19 19 19 19 19 18 17 16 16 15 13 13 13 13 13 13
18 17 17 17 18 18 19 18 17 18 19 18 18 18 19 19 19 17 17 17 17 18 19 19 19 20 20 19 19 19 18 16 16 14 14 14 13 13 13 13 13 13 13
18 14 18 17 14 12 11 12 10 12 17 18 18 18 17 18 18 18 18 18 19 19 20 20 19 19 19 18 17 15 15 15 14 12 11 13 13 13 13 13 13 13 12
17 16 15 11 9 8 7 6 6 10 17 17 17 18 18 19 19 18 19 19 18 17 17 17 18 18 18 17 15 13 12 11 10 10 10 12 13 13 13 12 13 12 12
16 15 14 14 12 12 11 9 10 17 17 17 18 19 19 19 19 18 18 18 17 17 17 16 16 15 13 12 11 10 10 11 11 12 12 13 12 12 13 12 12 12 12
15 16 17 17 9 11 17 17 17 17 16 17 18 18 17 17 17 17 16 15 15 15 14 13 13 12 11 11 11 11 12 12 12 12 11 11 11 11 11 11 11 11 11
14 14 15 16 17 17 17 16 17 17 17 17 17 16 17 17 16 15 14 14 13 13 12 12 11 11 11 10 10 10 10 9 9 9 9 8 9 9 10 10 11 11 11
13 14 13 13 14 16 15 15 15 15 15 15 15 14 14 13 13 13 13 12 12 12 11 11 10 10 10 9 9 8 7 6 6 7 7 8 9 9 10 11 11 11 11
12 13 12 12 11 14 14 15 15 15 14 14 14 13 13 13 12 12 12 12 11 10 10 10 10 9 7 5 4 3 2 2 1 1 1 4 8 8 10 11 10 11 11
11 13 12 13 12 13 13 14 14 14 14 13 13 13 12 12 12 11 11 10 10 9 8 6 5 3 2 1 -0 -1 -2 -4 -6 -6 -3 6 7 7 8 10 10 10 11
11 11 11 10 11 12 12 13 13 13 12 12 12 11 11 10 10 9 9 8 4 4 1 1 -0 -2 -3 -5 -8 -12 -18 -23 -24 -23 -15 4 5 5 6 7 8 8 9

GFSGL_850_dewp_051.txt.gz
Dewpoint
16 15 13 11 13 6 13 14 15 16 16 14 16 16 16 16 17 17 16 16 16 16 17 17 17 16 16 14 14 14 14 14 13 12 11 11 11 12 10 10 10 11 14
16 16 15 13 12 14 10 14 14 15 16 17 17 17 16 16 17 17 17 15 18 17 17 16 17 17 15 13 15 15 14 14 14 13 14 14 15 14 14 14 14 15 15
16 16 16 15 13 13 12 11 14 13 12 16 17 17 16 15 16 17 17 17 17 17 17 17 17 17 17 17 16 16 15 16 17 17 16 16 15 15 14 14 14 15 16
15 15 16 16 16 14 13 9 11 10 11 12 14 16 16 16 16 16 17 17 17 17 17 17 17 17 17 17 17 17 17 16 16 16 16 15 14 13 13 14 15 15 15
14 15 15 16 15 15 13 14 9 10 11 12 12 14 14 16 16 16 17 17 17 17 17 17 17 17 17 18 18 17 17 17 17 16 15 14 13 13 15 16 15 16 15
14 14 14 15 15 13 11 11 10 11 11 12 12 13 14 16 15 14 14 16 16 17 17 17 16 17 17 16 15 13 13 15 15 16 16 15 15 15 16 16 15 15 16
15 15 15 16 15 14 11 10 10 11 11 12 12 12 12 13 14 14 13 14 15 14 15 15 16 15 16 15 14 12 11 11 12 10 10 10 10 10 11 12 17 18 19
15 16 15 16 16 15 15 13 11 11 11 11 12 12 12 12 11 11 11 12 12 11 13 13 12 11 12 16 17 17 17 15 9 13 15 14 13 14 17 18 18 18 18
16 16 16 16 17 16 16 15 12 12 11 12 12 11 11 11 11 10 11 12 12 10 8 6 7 9 6 5 7 8 8 8 13 13 14 15 16 18 18 19 18 18 19
17 17 17 17 17 17 15 14 14 12 11 11 11 12 11 11 11 11 10 12 15 14 12 7 5 5 4 5 5 8 10 12 15 16 17 18 19 19 18 19 19 19 19
17 17 18 18 18 17 17 16 15 13 17 14 17 15 14 12 11 10 9 10 12 15 15 13 14 14 13 12 12 12 11 11 14 18 19 19 19 19 19 18 19 19 19
17 17 18 18 18 18 18 18 18 18 18 18 17 18 18 14 11 9 8 7 8 10 12 12 12 13 13 14 16 17 17 17 18 18 18 19 18 18 18 18 18 17 17
16 17 18 18 19 18 18 18 19 18 18 18 19 18 17 16 17 16 10 6 6 8 9 14 13 14 16 18 19 19 18 18 19 19 18 18 19 19 18 18 17 17 16
17 18 18 18 19 18 19 20 19 18 19 17 17 17 16 14 14 16 16 11 6 7 9 11 14 16 18 19 19 19 18 19 19 18 19 19 19 18 18 17 17 16 14
17 18 18 18 19 19 19 19 18 18 17 17 15 14 13 13 13 14 16 18 15 12 13 14 16 17 19 19 19 19 19 19 18 19 19 19 17 17 17 16 14 13 13
18 18 18 18 19 19 19 18 18 18 18 18 17 16 17 16 16 16 17 19 20 19 17 18 19 19 19 19 20 20 19 19 19 19 19 17 16 16 15 14 13 13 13
18 18 18 18 18 18 18 18 18 18 18 18 18 18 18 19 18 18 18 18 19 20 19 19 19 20 20 19 19 19 19 19 18 18 16 16 15 14 13 13 13 13 13
18 18 17 18 18 19 19 19 18 18 18 18 18 17 17 17 17 17 17 16 19 19 19 18 19 19 19 19 19 18 17 16 16 16 15 15 14 14 13 13 14 14 13
18 18 18 18 18 18 18 17 15 16 16 15 11 12 15 16 17 17 18 18 18 19 19 19 19 18 18 17 17 16 16 15 15 14 12 12 14 13 13 13 13 13 13
17 18 17 17 17 12 9 8 9 10 9 10 9 8 7 14 18 18 19 19 18 18 17 16 16 16 16 15 15 14 13 12 11 11 11 12 12 13 13 13 12 12 12
16 16 16 16 16 14 12 10 11 7 6 6 5 5 11 17 18 17 17 17 17 16 15 14 14 15 14 13 12 11 11 11 11 11 11 12 12 12 12 12 12 12 13
15 15 16 16 16 16 15 12 11 9 8 10 12 13 17 16 15 14 14 15 15 14 14 14 12 12 11 11 11 10 10 10 10 10 10 10 10 10 11 11 11 11 12
14 14 13 14 16 16 16 16 16 15 16 15 15 15 14 13 13 12 12 13 13 13 13 12 12 11 11 10 9 7 7 7 6 6 6 7 9 9 9 10 10 10 11
12 14 13 13 12 14 14 15 15 15 14 14 13 13 13 13 13 12 12 12 12 11 11 11 9 8 8 5 4 5 4 2 1 -0 -1 1 7 7 8 8 9 9 10
11 12 12 12 12 12 11 14 13 12 11 12 12 12 12 12 12 12 11 11 10 9 8 6 5 5 5 4 3 1 -1 -2 -4 -8 -12 -13 5 6 5 6 6 7 8
11 11 10 11 13 12 12 12 13 13 12 11 11 10 10 10 10 11 9 9 6 4 3 1 -0 -2 -1 -2 -3 -6 -9 -13 -20 -25 -24 -4 1 2 3 2 4 5 4

GFSGL_850_dewp_054.txt.gz
Dewpoint
16 14 9 0 3 3 9 8 11 14 15 13 16 15 15 15 16 15 14 17 16 14 16 16 16 15 16 15 15 14 14 14 14 13 13 12 12 11 11 12 14 14 13
16 16 14 9 1 0 2 8 11 13 14 14 13 16 16 15 16 16 14 15 17 17 14 17 17 17 12 13 15 15 16 15 15 14 11 10 14 15 14 14 13 13 14
18 17 17 15 12 7 1 2 10 10 12 14 15 13 14 13 14 15 15 13 16 17 17 15 15 15 16 16 13 14 13 15 16 17 17 17 16 14 14 13 13 14 16
17 17 17 17 15 12 11 4 8 9 9 12 12 13 12 12 11 14 16 16 14 16 16 16 16 16 15 15 14 14 15 14 14 16 15 16 16 15 14 16 16 16 15
15 17 17 17 17 16 14 12 7 7 6 8 10 13 12 12 12 11 13 16 16 15 15 16 16 16 16 16 17 16 16 17 17 18 18 17 15 14 13 13 13 16 12
15 16 16 17 17 17 16 16 14 9 8 8 10 11 13 13 13 15 14 13 16 16 15 14 17 17 17 16 16 16 14 16 16 16 15 13 11 11 10 10 12 12 14
14 15 15 16 17 17 17 16 16 15 9 7 8 10 12 13 12 14 15 15 14 14 16 16 15 15 16 15 14 14 14 13 12 11 12 11 11 12 13 13 16 17 18
14 15 15 15 16 17 17 17 16 16 13 7 7 9 12 12 12 12 14 14 14 13 13 14 14 13 13 16 17 17 17 16 15 15 16 14 15 14 15 16 17 18 18
15 15 15 15 15 15 16 16 16 16 15 10 8 9 11 12 12 12 12 14 14 12 11 11 14 16 12 9 11 14 16 15 14 12 13 14 15 16 15 18 18 19 19
15 16 15 16 15 16 15 15 16 15 12 10 10 10 11 11 11 11 11 13 13 13 12 10 8 8 8 8 9 8 7 5 7 9 11 12 14 17 18 19 19 19 18
16 16 16 17 16 17 17 17 16 17 17 16 14 13 13 11 11 11 11 12 12 12 12 11 9 5 8 11 12 13 13 14 15 16 17 17 18 18 18 18 17 18 18
17 16 17 17 18 18 18 18 18 18 18 19 17 18 18 16 12 11 11 11 11 12 13 15 14 13 13 12 13 13 14 16 18 18 18 18 18 19 19 18 18 18 18
15 17 17 18 18 18 18 19 19 18 19 19 19 18 19 19 16 15 14 13 13 13 13 13 12 12 14 14 14 15 16 18 19 19 18 18 19 18 18 19 17 17 17
16 16 17 18 19 19 18 19 19 19 19 19 19 19 18 18 19 18 17 15 13 13 13 13 13 13 13 13 13 14 17 18 19 19 19 19 19 19 19 17 17 16 16
17 17 17 18 19 19 19 19 19 19 18 18 19 18 19 18 17 17 17 16 14 14 13 12 10 11 14 15 15 16 18 19 19 19 19 19 19 19 17 17 16 15 14
18 18 18 18 19 19 19 20 19 19 19 19 18 18 18 17 16 15 13 14 14 15 18 18 15 13 14 15 17 19 19 18 19 19 19 19 19 16 16 16 15 14 13
19 19 18 18 19 19 19 19 19 19 19 18 18 18 16 15 14 13 15 14 14 17 18 18 17 19 19 19 19 19 18 18 18 19 18 17 16 16 15 14 14 13 13
19 18 18 18 19 19 19 19 19 19 18 18 17 17 17 17 17 17 17 17 18 18 17 19 19 18 20 19 18 19 19 19 18 17 16 16 16 15 14 14 14 14 14
18 18 19 19 18 19 19 19 19 18 18 18 18 17 17 18 18 17 17 17 16 16 14 11 15 19 18 18 18 18 17 17 16 16 15 15 14 13 14 14 14 13 13
18 18 18 18 18 18 19 19 19 19 18 17 16 15 16 16 14 15 15 15 15 17 16 12 17 18 17 17 17 17 16 16 16 15 14 12 11 12 12 13 12 12 12
16 17 18 18 18 18 18 18 18 15 16 16 14 13 12 11 10 13 13 12 10 9 15 15 15 16 15 15 15 14 13 12 12 11 11 12 12 12 12 12 12 12 12
15 16 16 15 14 14 14 15 14 14 12 8 8 12 15 16 16 16 13 12 11 13 15 14 13 12 13 13 12 12 11 11 11 11 11 11 11 11 11 11 10 8 10
14 13 15 16 16 14 15 16 15 14 14 13 15 15 15 15 15 15 15 15 15 14 14 13 13 12 11 11 11 10 10 10 9 8 8 8 8 9 9 9 9 9 10
13 13 12 13 15 15 16 15 14 14 14 14 15 15 14 15 14 14 14 14 13 13 12 11 11 10 11 11 10 8 8 7 4 2 0 1 7 7 7 6 7 7 8
11 13 12 12 12 13 12 13 13 13 15 14 13 13 12 12 12 12 12 11 11 10 10 10 9 9 9 7 6 5 2 0 -2 -6 -11 -11 2 5 5 5 5 5 6
10 8 12 12 11 11 11 10 10 10 11 11 12 12 11 11 11 10 10 8 9 7 5 5 7 6 4 3 0 -3 -3 -6 -12 -18 -18 -8 -3 -1 -1 -1 -4 2 1

GFSGL_850_dewp_060.txt.gz
Dewpoint
12 11 11 9 8 10 12 13 14 14 15 14 15 15 15 14 14 11 11 11 12 13 14 13 8 8 13 14 15 14 14 13 13 12 12 11 11 11 12 14 14 15 15
12 12 12 10 7 7 8 12 13 14 14 13 13 14 15 15 14 13 8 12 13 14 13 14 12 13 11 12 14 15 15 14 14 14 13 12 12 13 13 15 15 15 16
12 12 12 12 10 6 7 8 12 13 14 13 13 13 15 15 14 13 10 8 11 13 15 15 15 15 15 15 13 14 15 15 16 16 15 14 12 10 14 14 15 15 10
13 13 13 12 13 12 5 6 7 12 12 13 13 13 14 14 14 13 11 7 6 10 13 16 16 16 14 14 15 13 13 13 13 13 14 12 11 14 14 13 12 10 10
13 13 13 13 13 13 13 9 3 5 10 11 10 13 16 16 15 14 13 10 8 6 8 12 14 14 15 15 14 13 13 13 13 13 13 14 13 9 9 10 12 14 13
14 14 14 14 14 14 14 14 13 3 4 5 8 6 13 15 16 14 12 9 9 9 7 9 10 10 12 13 15 14 14 15 15 14 13 12 9 10 11 15 15 14 16
15 15 15 15 15 15 15 14 14 13 7 3 4 5 5 11 13 13 12 11 11 10 9 8 7 10 11 10 11 13 15 15 15 15 15 14 14 13 15 16 17 15 15
16 16 16 16 15 16 16 15 15 15 14 10 4 4 4 5 6 7 8 11 10 10 10 9 8 8 9 10 11 11 10 11 14 16 16 15 15 13 17 16 15 15 17
15 16 17 17 17 17 16 16 15 16 15 13 10 9 5 4 5 6 8 10 10 10 10 11 11 11 10 11 12 11 10 7 6 9 10 10 12 15 14 15 16 17 18
15 15 16 17 18 17 16 16 15 16 16 15 14 13 12 11 10 8 8 8 9 10 10 11 11 12 12 12 13 11 10 5 5 6 8 11 12 14 16 17 18 18 18
10 14 15 16 17 18 16 16 15 15 16 16 15 14 13 12 13 11 10 10 9 9 10 11 11 11 12 11 12 12 11 10 10 10 13 14 14 16 17 18 18 18 18
11 10 12 13 15 17 17 16 16 16 16 16 16 16 15 14 12 11 10 10 7 9 9 10 11 11 11 12 12 12 12 11 13 13 14 14 14 16 18 18 18 18 18
10 13 14 12 16 17 17 17 16 16 16 16 16 16 15 15 14 12 9 8 8 11 10 11 10 11 12 12 12 12 12 14 14 15 14 14 14 16 19 19 19 18 18
8 7 13 15 17 17 16 17 16 15 16 16 16 16 16 16 15 14 12 11 11 13 13 13 13 13 14 14 15 14 15 14 14 15 14 14 15 17 18 19 19 19 17
9 8 8 14 15 16 17 17 17 16 16 16 16 16 16 16 15 14 14 12 10 9 12 13 14 15 16 16 17 17 17 16 16 14 14 15 17 17 17 18 18 17 16
12 10 9 14 14 15 17 18 17 17 17 17 17 16 16 16 16 16 16 16 15 16 16 15 15 15 16 16 17 18 17 17 16 16 16 17 17 17 18 18 18 17 16
13 14 12 13 16 18 17 18 18 18 18 18 18 18 18 18 18 18 18 18 18 17 18 18 18 17 16 16 17 17 18 18 17 16 16 18 17 18 18 18 16 15 14
10 10 14 15 17 18 18 18 18 18 18 18 19 19 19 19 19 19 19 19 18 18 17 18 17 17 17 17 18 18 18 18 18 18 17 16 17 18 18 16 16 15 14
12 14 16 17 19 19 18 18 19 18 18 18 19 19 18 19 18 19 19 18 18 17 17 17 16 16 17 17 18 18 18 18 16 14 8 12 16 16 16 15 15 14 14
13 14 15 15 17 19 18 18 18 18 19 18 18 18 19 18 19 20 18 17 18 17 17 16 15 17 17 17 16 16 16 14 11 7 6 8 14 16 16 16 15 14 14
14 14 14 15 15 17 17 16 17 18 18 18 17 18 19 19 19 19 18 15 17 17 16 16 15 15 16 16 15 14 12 11 11 9 10 13 15 16 15 13 12 11 11
14 15 15 15 14 15 17 18 17 17 17 18 18 18 18 19 19 18 17 16 17 16 16 15 15 16 16 14 13 12 12 12 12 12 11 14 14 14 12 11 11 11 11
13 14 15 15 16 16 16 17 18 17 18 18 18 17 16 17 16 17 16 16 16 16 16 17 17 16 14 13 11 12 12 12 12 12 13 13 12 11 11 11 10 10 9
12 13 14 16 16 16 17 17 17 17 16 16 16 15 15 14 14 14 15 15 16 15 15 14 14 14 13 13 13 12 12 12 12 12 12 11 10 10 10 9 9 8 7
11 12 14 14 14 14 14 14 14 14 14 13 14 14 15 15 14 13 13 14 13 13 13 13 13 13 13 13 12 12 12 12 11 10 10 8 8 8 8 7 6 5 6
10 10 10 12 11 11 10 10 11 12 13 13 14 14 14 14 13 13 13 13 12 12 13 11 11 11 10 11 11 10 10 10 9 7 3 1 3 6 6 5 4 4 5

GFSGL_850_dewp_063.txt.gz
Dewpoint
11 11 11 10 7 8 12 14 14 13 13 13 14 14 15 14 13 12 12 13 13 9 9 11 10 11 11 12 14 15 14 13 12 11 11 11 11 12 12 12 14 15 15
11 11 11 11 11 6 7 12 14 13 13 14 16 15 15 14 15 14 14 13 13 12 12 12 13 11 9 10 13 14 15 15 15 13 13 13 12 12 11 11 15 15 16
12 12 12 11 11 11 6 6 12 13 13 14 14 14 14 14 15 15 14 13 12 12 13 14 14 14 13 13 12 12 14 14 15 15 14 14 13 11 9 12 10 10 8
13 12 12 12 12 12 12 6 5 8 12 13 14 14 14 13 13 14 14 13 11 10 11 12 14 15 15 14 15 15 15 13 13 13 12 11 10 10 13 9 6 10 10
14 14 13 12 12 12 12 12 8 3 6 11 13 13 14 14 13 13 14 14 14 11 10 9 10 14 15 16 15 14 15 14 14 13 13 11 9 8 9 11 14 14 11
14 14 14 13 13 13 12 12 13 12 4 4 8 12 13 13 13 13 14 14 14 13 11 10 8 9 10 13 13 13 14 15 14 14 14 13 10 10 11 14 15 16 16
14 15 15 14 14 14 13 13 13 13 13 12 4 4 9 11 12 10 13 14 14 13 11 10 10 9 8 10 10 10 11 12 13 15 15 12 12 11 14 14 15 16 15
14 14 15 15 15 15 14 14 14 14 14 14 14 12 3 3 5 9 7 11 14 13 12 11 10 11 11 10 10 11 12 11 11 12 12 13 15 13 14 15 15 14 15
13 14 16 16 15 15 15 15 15 15 15 15 15 14 14 8 1 0 3 6 10 9 7 9 10 10 10 11 13 12 10 8 8 9 9 10 10 10 12 14 14 16 17
14 14 15 17 17 16 16 16 16 16 16 16 16 15 14 13 9 4 2 3 6 7 6 6 8 9 10 11 13 14 13 7 7 7 9 10 11 12 14 14 15 17 17
14 12 14 15 17 18 17 16 16 17 17 17 16 16 15 13 12 10 8 9 5 6 6 6 4 6 8 9 11 13 12 10 11 12 12 12 11 13 14 15 16 17 18
8 11 12 12 13 17 17 17 16 17 17 17 17 16 16 15 13 12 12 12 12 12 10 8 3 5 6 9 10 11 11 12 13 13 13 12 12 13 14 15 16 18 18
-0 5 10 8 13 13 13 15 14 16 17 16 17 17 16 15 15 14 13 13 13 14 12 11 7 5 7 9 11 11 12 13 13 13 13 12 13 14 14 15 16 18 18
0 2 5 8 8 13 14 15 16 17 17 17 17 17 17 16 15 15 15 14 14 13 12 12 10 9 9 11 12 13 14 14 14 13 14 15 15 14 13 15 16 17 18
2 1 -2 6 8 10 14 14 15 16 16 16 16 16 16 15 15 15 15 15 14 13 11 13 14 13 12 12 12 13 14 16 16 15 16 16 15 14 16 17 17 17 17
4 -1 0 2 9 8 10 12 13 14 15 17 17 17 16 16 16 16 16 16 16 16 16 16 14 13 12 12 12 13 14 16 17 17 17 16 16 15 17 18 17 17 17
6 7 0 5 0 2 7 13 14 13 14 16 17 17 17 17 17 17 17 17 17 18 18 18 17 16 13 12 12 14 15 16 17 18 18 18 17 16 18 16 17 17 17
7 11 3 8 9 7 4 6 9 9 13 17 17 17 17 18 18 18 18 17 18 19 19 19 18 16 16 16 17 16 16 16 17 18 18 18 16 18 17 15 15 16 16
10 10 6 6 7 7 11 15 17 16 16 17 18 17 17 18 18 18 17 17 18 18 18 18 17 16 16 17 17 17 16 15 16 17 17 16 16 15 13 11 12 14 16
9 9 8 8 9 9 14 16 17 19 18 18 18 18 18 18 19 19 18 17 18 18 18 18 18 17 15 15 15 14 15 16 16 16 16 16 14 11 11 13 14 15 15
10 10 10 10 9 8 7 13 16 18 19 18 18 19 18 19 18 17 18 18 17 17 17 17 18 17 16 16 16 15 15 15 15 15 16 16 11 10 13 15 15 15 14
9 10 10 10 13 11 14 15 16 18 18 17 17 18 18 18 17 17 18 19 18 17 17 16 17 17 15 14 14 14 15 16 15 13 12 12 12 14 15 15 15 14 13
8 9 10 11 14 15 15 14 14 14 17 18 16 16 16 17 18 17 18 19 18 18 18 16 15 15 16 16 15 15 15 14 13 12 12 14 14 15 14 14 12 12 11
10 11 12 12 13 14 14 15 15 15 17 18 18 17 17 17 17 17 17 16 17 16 16 16 16 16 16 16 15 15 13 13 13 13 13 13 13 12 12 11 11 10 10
9 10 10 11 12 14 14 15 16 16 16 17 17 17 17 17 17 16 16 15 15 15 15 15 15 15 15 14 14 13 13 12 12 12 12 12 11 10 10 10 9 9 8
7 8 8 8 8 12 14 14 14 15 15 15 15 15 16 15 15 15 14 14 14 13 13 13 12 12 11 12 12 11 10 10 10 10 9 8 8 8 8 7 7 6 5

GFSGL_850_dewp_066.txt.gz
Dewpoint
11 11 11 11 10 10 9 11 12 14 13 12 13 14 14 14 13 13 12 12 12 13 11 10 11 12 12 12 11 13 14 15 14 13 12 12 12 12 11 9 9 15 14
11 11 11 11 11 9 8 8 11 13 13 13 13 13 14 15 15 15 14 14 13 13 13 11 10 10 10 11 10 11 13 14 15 14 13 12 12 12 10 8 13 11 9
11 11 11 11 11 11 9 6 6 10 13 13 13 13 15 15 15 14 15 15 14 12 13 13 14 14 14 12 13 13 13 13 14 14 13 13 12 9 8 9 8 5 8
13 12 12 11 11 12 11 11 7 6 9 12 12 12 13 14 13 13 13 15 14 13 10 12 13 14 14 14 14 14 15 15 15 14 13 12 11 10 10 9 6 9 6
13 13 12 12 12 12 12 12 11 9 6 7 11 12 12 12 12 12 13 13 14 13 13 11 9 9 11 14 15 15 15 14 14 14 13 12 11 10 11 12 13 12 7
14 14 14 13 13 12 12 12 12 12 11 6 5 8 9 12 12 12 11 12 14 14 13 13 13 12 11 10 11 13 14 14 13 14 13 12 11 12 11 15 14 14 13
14 14 14 14 13 13 13 13 13 12 12 12 9 4 4 6 9 11 11 12 12 12 13 13 12 12 11 12 10 10 11 11 11 12 12 12 11 10 15 15 14 14 13
11 13 14 14 14 14 14 14 14 13 13 13 13 13 9 4 3 5 8 10 10 9 7 8 12 12 11 11 12 12 11 9 11 12 12 10 9 11 15 15 13 12 12
14 13 15 15 15 15 14 14 14 14 14 14 14 14 14 13 13 9 4 6 8 7 6 2 3 7 7 9 11 11 12 9 9 9 9 8 9 10 12 13 13 14 15
14 15 14 15 16 16 16 15 15 15 15 15 15 15 15 15 15 14 14 11 5 3 2 1 -0 -0 1 4 7 10 12 8 9 9 9 9 10 11 13 13 13 14 15
3 12 15 14 15 15 16 16 16 16 16 16 16 16 16 16 16 14 14 14 13 7 1 -0 -1 -1 0 2 4 7 9 10 11 12 12 12 12 12 13 13 13 15 15
-2 -3 4 12 12 13 17 17 17 17 17 17 16 16 16 16 16 16 15 13 14 12 8 5 5 3 3 3 4 4 7 10 12 13 13 12 11 10 10 12 14 15 15
-4 -7 -4 2 9 12 14 17 17 17 17 16 16 15 15 16 15 15 16 15 13 13 13 11 10 9 9 8 6 4 6 9 12 13 13 11 9 11 12 14 14 14 15
-8 -2 -7 -6 0 8 11 14 14 13 14 15 15 15 15 16 16 15 15 15 15 15 13 12 12 12 12 9 8 7 7 9 11 13 13 12 12 13 13 15 15 13 15
-2 2 2 -4 -5 1 8 13 17 15 14 15 15 15 15 15 15 15 15 15 15 15 15 14 13 12 11 11 8 6 7 9 12 12 13 13 14 14 15 15 14 14 16
6 4 3 3 -2 -4 -2 4 11 15 16 16 16 17 16 15 16 16 15 16 16 16 17 16 16 15 14 10 8 7 7 8 9 11 13 14 16 16 16 16 15 16 16
5 6 6 7 5 1 -0 -2 -1 5 14 16 15 17 16 15 16 16 17 17 17 17 17 17 17 17 16 15 12 9 9 8 9 11 13 14 16 17 18 17 16 17 18
9 9 9 9 9 7 3 3 -1 4 5 9 12 13 13 16 16 17 18 18 18 18 17 18 18 18 17 17 16 14 11 11 12 12 14 16 16 17 17 18 17 16 17
8 9 10 10 10 9 6 4 1 1 4 7 12 12 15 16 17 17 18 18 18 18 18 18 17 18 17 17 17 16 16 16 16 16 15 15 16 17 18 18 17 16 16
8 9 10 9 9 9 8 4 3 2 5 11 9 11 16 15 15 17 17 18 18 18 18 17 17 17 18 17 17 16 16 16 16 16 16 15 15 15 16 17 16 16 15
6 7 9 9 9 10 9 6 4 3 4 8 12 17 14 17 15 15 17 18 18 18 18 18 17 17 17 17 17 17 16 15 15 14 14 14 15 15 15 15 14 11 12
5 6 7 8 9 10 10 7 5 4 3 2 5 15 17 18 16 17 17 18 18 18 18 18 18 18 17 17 16 17 17 17 16 15 15 14 14 14 15 14 13 12 14
5 5 6 7 8 8 6 7 7 10 7 16 16 14 16 17 17 17 17 18 18 17 18 18 18 19 18 17 16 17 15 14 14 15 15 15 14 13 12 13 13 14 14
6 6 7 8 8 9 9 9 9 13 14 16 17 17 17 18 18 17 16 17 17 17 18 17 17 18 17 17 16 16 16 16 15 15 13 12 12 12 13 14 14 13 13
5 7 7 8 9 10 11 11 12 13 14 15 16 16 16 17 17 17 17 17 17 17 17 17 17 17 16 16 16 16 15 15 15 14 13 13 12 13 13 13 12 12 12
4 4 5 7 8 9 10 11 11 12 14 14 15 15 16 16 16 16 16 16 16 15 15 15 15 15 14 14 14 14 14 13 13 13 12 12 12 11 10 10 11 10 9

GFSGL_850_dewp_069.txt.gz
Dewpoint
12 12 12 11 11 11 11 11 10 12 13 12 13 13 14 14 13 13 13 12 13 13 11 11 11 12 12 12 12 11 11 12 15 15 12 12 11 11 11 9 7 11 9
12 13 12 11 11 12 11 10 10 12 12 13 12 13 13 14 14 14 14 14 13 12 12 12 10 10 10 11 10 10 10 11 13 16 15 14 12 11 9 7 7 8 5
13 13 13 12 11 11 11 11 10 11 12 13 13 12 13 13 14 14 15 14 15 14 13 12 12 12 12 13 14 12 14 13 12 13 14 15 10 10 7 8 6 5 8
14 13 13 12 12 11 11 11 11 9 10 12 13 12 12 13 14 14 14 14 14 15 14 12 12 12 14 14 14 14 14 15 16 14 16 17 16 13 9 13 14 15 9
15 15 13 13 12 11 11 11 12 11 10 8 10 12 12 12 13 14 13 13 13 14 14 13 10 8 9 11 13 15 15 16 17 17 17 16 16 16 15 16 16 17 11
14 15 15 14 13 13 12 12 12 12 12 11 9 8 11 12 11 11 11 12 12 12 13 13 13 13 13 11 10 9 11 13 14 17 16 16 16 16 16 16 16 17 16
14 11 13 15 14 14 13 13 13 12 12 12 12 12 8 7 10 11 10 11 11 10 11 12 13 13 12 11 10 11 11 10 10 11 11 10 11 9 11 10 16 17 16
15 13 12 13 14 14 14 14 13 13 13 13 12 12 12 12 6 6 8 10 11 10 9 9 8 7 10 11 12 12 11 11 10 10 9 7 8 10 11 14 14 12 11
13 15 14 15 14 14 15 14 14 14 14 14 13 13 13 12 12 11 6 6 8 9 8 7 7 7 4 4 9 11 10 9 10 10 10 8 8 9 11 12 15 16 15
5 10 16 15 15 16 15 15 15 15 15 15 14 14 14 13 13 13 13 13 9 6 4 3 2 3 3 3 3 5 7 5 7 9 9 9 11 11 11 11 12 16 15
-6 7 3 10 13 14 15 16 16 16 16 16 15 15 15 15 15 14 14 14 14 14 14 12 3 -3 -3 -1 -0 1 1 2 5 8 10 11 12 12 11 11 11 13 16
-7 -8 1 1 9 12 14 15 16 16 16 17 17 16 16 16 15 15 15 15 15 15 15 14 11 6 0 -1 -1 -1 0 1 5 8 14 15 14 15 14 12 11 12 13
-8 -8 -10 0 3 -0 5 11 12 16 17 16 17 17 17 16 16 15 15 15 15 16 14 14 13 11 8 6 6 7 6 6 8 8 11 12 13 13 12 12 11 12 13
-5 -8 -9 -11 1 1 1 5 9 14 16 17 17 17 17 17 17 15 15 15 16 16 15 14 13 13 12 11 11 11 12 12 10 7 6 8 10 11 11 11 12 13 15
1 -2 -5 -8 -9 2 1 -0 4 10 15 16 16 17 17 17 17 15 15 15 15 15 16 15 15 14 13 13 14 14 13 11 10 6 6 8 9 10 11 11 13 13 17
5 1 1 -3 -5 2 4 -2 -3 -2 4 13 16 15 16 16 16 17 16 16 16 17 17 16 16 16 15 15 13 13 13 11 7 5 6 8 10 11 12 13 15 16 17
7 7 7 5 -0 6 6 7 1 -5 -4 0 6 13 15 15 16 17 16 17 16 17 17 16 16 16 15 16 16 16 16 16 14 9 8 8 9 11 12 14 17 18 18
5 6 7 8 8 8 7 9 9 3 -1 -6 2 -1 8 14 14 15 17 17 17 17 17 17 17 16 16 16 16 16 16 17 17 14 11 10 10 11 13 14 15 17 17
4 5 6 7 8 8 9 10 10 10 0 -5 -4 -1 -2 7 13 13 15 17 18 17 17 16 17 17 17 17 17 17 17 17 17 17 16 15 14 14 14 16 16 16 17
3 4 5 6 7 7 8 9 10 9 5 3 -2 -2 3 -3 12 13 14 16 18 18 18 17 17 17 17 17 17 17 17 17 17 17 17 16 16 16 16 16 15 15 16
3 3 5 6 6 7 8 9 9 9 8 8 5 -1 -0 8 5 12 13 14 14 17 18 18 17 17 17 17 17 17 17 17 18 17 17 16 16 16 16 15 15 15 16
3 3 4 5 5 5 5 7 9 9 9 11 11 4 1 3 4 9 15 12 12 16 17 18 18 18 17 18 18 18 18 17 17 17 18 17 16 16 16 15 15 15 15
3 3 4 5 5 5 6 6 8 8 9 10 11 8 6 6 11 15 16 15 15 14 14 16 16 18 17 18 18 18 18 18 17 17 18 18 17 17 16 16 16 15 14
2 3 4 5 5 6 6 6 7 8 7 9 11 11 11 12 15 16 17 18 18 17 17 17 15 17 17 17 18 17 17 18 17 17 17 17 17 16 15 14 14 14 13
2 3 4 4 4 6 6 7 8 9 10 11 10 10 12 13 14 15 16 17 17 17 17 17 17 17 17 17 17 16 17 17 17 16 16 16 15 14 14 13 13 14 14
0 1 3 4 5 5 6 7 8 9 10 10 11 11 13 13 14 15 15 15 16 16 16 16 16 16 16 16 16 16 16 16 16 15 15 15 14 14 14 14 13 12 12

GFSGL_850_dewp_072.txt.gz
Dewpoint
14 14 13 14 12 11 11 15 16 16 16 16 13 15 16 16 15 13 16 16 16 16 15 16 15 15 14 14 15 15 15 15 14 13 15 16 14 14 11 9 13 14 13
16 16 13 13 15 15 11 11 13 15 16 17 13 13 14 17 17 13 14 16 16 16 17 16 16 15 12 13 15 15 15 15 15 15 15 15 17 16 13 7 15 14 14
16 16 13 13 13 15 14 11 11 12 13 16 17 14 13 15 17 14 14 16 17 17 17 17 17 16 16 14 16 15 15 16 16 16 15 15 15 16 16 15 15 16 14
15 16 16 14 13 15 15 12 11 11 11 11 15 17 15 16 16 15 15 15 17 17 17 17 17 17 17 17 16 17 17 16 15 16 15 15 15 15 16 15 14 14 15
16 16 16 16 16 16 16 16 12 11 12 11 10 14 16 17 16 17 17 17 17 17 18 17 17 15 14 15 16 17 17 17 15 15 15 15 15 14 15 14 14 14 14
15 15 16 16 17 17 15 12 15 14 12 12 12 11 11 14 14 15 16 17 17 17 17 17 14 14 11 9 9 8 12 16 17 16 15 15 16 16 15 14 14 14 14
15 15 14 15 17 18 17 17 14 13 14 13 12 12 12 10 10 13 14 14 16 17 17 17 17 15 14 13 12 10 10 10 9 9 14 14 14 15 16 17 15 16 15
15 15 16 14 16 16 17 17 17 17 17 16 15 12 12 12 12 11 8 9 13 15 16 17 16 15 16 16 14 15 13 12 10 10 9 8 9 11 12 16 16 15 16
1 12 15 15 15 15 16 16 16 17 17 17 17 16 13 12 12 12 12 11 10 8 13 14 15 16 14 10 10 15 15 15 14 13 10 9 9 8 9 12 14 13 12
-6 -2 9 13 15 13 14 15 16 16 16 17 18 17 17 14 12 12 12 12 14 13 10 8 8 10 12 11 9 8 10 11 14 14 14 13 8 9 9 9 11 14 12
-7 -6 -5 5 9 12 14 15 15 17 16 16 16 17 18 17 14 13 13 13 14 14 14 13 12 12 6 3 4 6 6 9 11 13 14 13 13 15 17 15 11 12 12
-6 -8 -8 -7 -3 4 10 14 15 15 16 16 16 17 18 17 17 14 14 14 14 15 15 14 14 14 14 13 11 5 2 2 10 10 10 10 10 11 12 14 15 15 13
1 -7 -8 -8 -6 -3 3 3 5 15 15 15 16 17 18 18 18 17 15 15 15 15 16 16 16 16 16 16 15 13 11 10 10 10 10 10 10 10 11 13 15 16 17
5 4 -5 -8 -8 -7 2 8 10 10 14 15 16 16 16 17 18 18 18 17 15 15 16 16 16 16 16 16 16 15 13 11 12 13 12 11 11 11 11 13 14 14 15
4 5 5 4 -5 -3 5 8 9 7 13 13 15 16 17 17 17 17 17 18 18 16 16 16 16 16 17 17 16 16 16 14 11 14 14 14 13 12 11 12 13 14 14
4 4 4 5 5 5 6 6 7 4 -3 2 2 10 15 17 17 17 17 16 16 17 17 17 17 17 17 17 16 15 16 16 16 16 15 15 14 13 12 13 13 14 14
3 4 5 6 7 7 7 7 7 7 5 -4 -1 -1 2 7 14 15 15 16 16 17 17 17 17 17 17 17 17 17 16 15 15 16 15 15 14 14 13 13 13 14 15
2 3 4 5 6 7 8 7 8 8 8 8 9 9 9 6 1 6 13 15 16 17 17 17 17 17 17 18 18 18 17 17 17 17 16 16 16 15 14 14 14 15 15
2 3 4 5 5 6 7 7 7 8 8 9 9 9 7 7 2 2 2 13 15 16 16 17 17 17 18 18 18 18 18 18 18 18 18 17 17 17 16 16 15 15 15
1 2 3 3 4 5 6 7 7 7 7 8 9 9 9 10 11 12 2 8 13 14 16 16 16 17 17 17 18 18 18 18 18 18 18 18 18 18 18 17 17 17 17
1 2 2 3 4 5 5 6 6 7 7 7 8 9 9 10 12 14 11 -0 11 13 13 16 14 15 17 18 17 18 18 18 18 18 18 18 18 18 18 18 19 19 19
1 1 2 3 3 4 4 6 7 7 7 7 7 9 9 10 11 11 12 12 -1 10 15 17 17 18 18 18 18 18 18 18 18 18 18 18 18 18 19 19 18 19 18
0 1 2 2 3 4 4 5 6 7 8 8 8 8 9 10 11 12 13 14 12 11 13 15 13 10 14 12 12 15 18 18 18 18 18 17 17 18 18 18 17 17 17
0 1 1 2 2 3 4 5 5 6 7 7 8 8 9 9 10 12 13 12 8 11 15 17 16 14 12 11 10 10 17 17 16 18 18 17 17 18 18 18 17 17 17
-1 -1 0 1 2 2 3 4 4 5 6 7 8 8 10 10 11 13 13 13 11 14 15 15 17 17 15 15 14 14 14 14 16 14 16 17 17 16 16 16 16 15 15
-2 -1 -1 -1 -0 1 2 3 4 4 5 6 7 8 8 7 7 10 9 10 13 13 15 15 16 17 17 17 16 16 16 14 15 16 16 16 16 16 15 15 15 15 14

GFSGL_850_dewp_075.txt.gz
Dewpoint
17 17 17 17 17 18 17 17 16 16 17 16 17 17 17 17 17 16 16 16 16 15 14 15 16 13 15 13 13 13 14 14 13 13 14 15 17 16 17 7 14 14 14
16 17 17 17 17 17 18 17 17 17 16 16 17 17 18 17 17 17 17 15 16 16 16 16 16 15 14 12 15 14 15 15 15 15 15 14 15 16 16 14 16 15 15
15 16 16 16 17 17 17 17 17 17 16 16 17 17 17 17 17 17 17 17 17 16 16 16 16 16 16 16 15 14 14 15 16 16 16 15 15 15 15 16 15 15 14
16 15 16 17 17 17 17 17 17 17 14 15 16 17 17 17 17 17 17 16 17 17 17 16 16 16 17 16 15 16 14 14 15 15 15 14 14 14 15 15 15 13 14
15 16 17 16 17 16 17 17 17 17 16 13 13 16 16 16 15 16 16 17 16 17 17 17 16 16 16 17 17 16 16 16 16 15 14 14 14 14 15 16 15 14 14
15 16 17 17 17 17 17 18 18 18 17 17 14 14 15 15 14 15 15 16 16 16 16 16 16 16 16 13 9 11 17 17 15 17 16 15 14 15 15 15 15 15 13
15 14 15 15 16 17 17 17 17 18 18 17 17 17 15 12 13 13 14 15 16 17 16 16 16 15 15 14 10 9 9 8 8 7 9 10 13 13 13 11 14 15 16
9 15 16 15 15 16 16 17 17 17 17 17 18 17 17 16 14 13 11 11 13 13 15 16 16 15 15 17 16 17 16 11 8 7 8 7 7 7 9 14 15 15 16
-6 -0 13 15 16 16 16 16 17 16 17 17 17 17 17 17 17 16 14 13 13 11 8 8 14 16 16 13 16 17 16 16 14 13 13 12 12 12 12 13 15 14 12
2 -5 -6 3 13 14 15 16 17 17 18 18 17 17 17 17 17 17 15 16 15 14 14 12 6 6 9 13 12 13 14 13 15 12 14 14 14 14 14 14 12 15 14
7 5 -0 -7 -6 4 10 13 14 16 16 16 17 15 16 17 17 16 16 16 16 15 15 15 14 12 9 8 9 12 11 12 15 14 13 12 11 13 14 15 15 14 13
6 5 1 -1 -5 -7 -2 0 9 14 16 16 16 15 16 16 17 17 17 16 15 16 15 14 14 14 13 13 12 12 12 12 13 14 14 12 10 10 11 10 11 12 14
6 6 5 1 -0 -1 -8 -8 -0 9 10 11 16 14 15 16 16 17 17 17 16 16 15 15 15 15 15 15 15 15 15 15 15 15 15 13 11 9 8 9 9 11 14
5 5 5 5 3 2 4 -6 -4 6 9 11 14 15 16 15 15 17 17 17 17 16 16 15 15 15 15 16 16 16 16 16 16 16 15 13 12 10 9 10 10 10 11
4 4 4 4 4 4 4 5 5 5 8 10 11 14 14 16 17 17 16 17 18 17 17 17 16 16 15 16 16 17 17 17 16 15 16 15 14 12 12 11 11 10 11
3 3 3 3 3 4 5 5 5 5 4 -2 2 1 4 8 14 16 15 16 16 17 17 17 17 17 17 17 17 17 17 17 16 16 16 15 15 14 14 13 13 11 11
2 3 3 3 3 4 4 5 6 6 6 5 -3 -6 -2 -4 -3 -1 4 14 17 17 17 17 17 17 17 17 16 16 16 16 15 15 15 16 16 15 15 15 14 13 13
1 2 3 2 3 3 4 4 5 6 6 6 6 6 7 8 7 0 7 4 9 15 15 16 17 17 17 17 17 16 16 16 16 16 16 16 15 15 15 15 15 14 13
1 1 2 2 3 3 4 5 5 5 5 6 6 6 5 8 9 9 6 6 7 12 15 16 15 16 17 17 17 17 17 17 16 17 17 17 17 16 16 16 15 15 14
0 0 1 2 2 2 3 4 4 5 5 5 5 5 6 7 9 9 9 7 10 6 12 15 17 16 16 17 17 17 18 18 16 17 17 17 17 17 17 17 16 16 16
-0 0 0 1 1 1 2 2 4 4 5 5 4 5 6 7 8 9 10 12 13 10 10 15 17 17 17 17 17 17 17 18 18 17 17 17 17 18 18 18 18 17 16
-1 -0 0 1 1 2 2 2 3 4 5 5 5 5 5 6 7 8 9 10 11 12 13 11 14 16 16 17 17 17 17 17 17 17 17 17 18 18 18 18 18 17 16
-1 -0 0 0 1 1 2 2 2 3 4 6 6 5 6 6 7 7 8 9 10 10 12 15 12 13 9 12 16 17 17 16 11 14 16 16 17 17 18 18 18 18 17
-2 -2 -1 -1 0 1 2 2 3 3 3 5 6 6 6 6 6 7 7 9 11 11 12 13 15 15 11 15 14 13 13 17 15 11 12 11 16 16 17 17 17 17 17
-2 -2 -2 -1 -1 -1 0 1 1 2 3 4 5 5 6 6 7 6 8 9 10 12 12 11 10 14 13 13 14 16 14 13 11 12 13 14 16 17 17 17 17 17 16
-4 -3 -3 -3 -2 -2 -1 -1 -0 1 2 3 4 4 5 6 7 8 10 11 9 11 12 11 10 11 13 15 14 16 16 14 14 15 16 16 15 14 14 15 16 16 16

GFSGL_850_dewp_078.txt.gz
Dewpoint
17 17 17 16 15 12 13 13 14 15 15 16 13 13 16 16 15 14 14 17 15 12 13 15 14 13 14 15 13 13 13 14 14 13 14 15 15 14 14 15 11 9 14
17 17 17 17 17 17 14 13 14 12 12 16 14 16 16 16 16 15 13 17 15 15 11 14 15 15 9 14 15 15 15 15 15 14 13 13 11 14 15 15 15 14 14
17 16 17 17 17 17 17 16 16 16 12 10 12 15 14 15 15 16 15 13 15 16 15 15 14 14 14 10 9 14 14 14 14 15 15 16 16 15 14 15 14 15 14
16 17 17 16 17 17 17 17 17 16 17 14 13 14 14 14 15 15 15 15 13 16 16 15 16 16 15 14 14 13 14 15 16 16 16 15 14 14 14 14 15 15 12
16 15 15 17 17 17 17 17 17 17 17 16 14 14 16 15 16 15 15 14 14 14 16 17 15 16 16 16 15 15 15 14 15 14 15 15 14 15 16 16 16 15 15
15 15 14 13 15 16 16 16 17 17 17 17 17 14 13 14 15 15 15 15 15 14 14 14 17 16 17 16 16 12 16 16 16 16 17 16 16 15 15 16 15 15 13
14 14 14 14 11 11 17 17 17 17 17 17 17 17 16 14 13 13 14 15 15 16 16 16 15 16 16 15 14 13 10 7 12 12 12 6 4 3 6 6 5 7 9
5 8 14 15 15 15 16 17 17 17 17 17 17 17 17 16 15 13 13 13 14 14 14 17 17 15 14 15 17 17 17 16 14 11 11 8 7 8 10 10 9 11 14
2 -4 2 11 15 15 15 16 16 16 16 17 16 16 17 17 17 17 15 14 13 13 12 11 11 15 14 10 11 15 17 17 17 15 13 13 12 13 14 14 14 14 13
6 3 -3 -5 -2 10 14 15 16 16 16 17 17 17 17 16 16 16 17 16 16 15 14 13 12 11 10 12 16 13 11 9 13 15 16 15 14 13 13 14 13 13 13
7 5 2 -2 -5 -4 -3 6 12 13 14 15 16 16 17 17 17 17 17 16 17 17 16 16 15 13 13 13 12 10 8 5 7 9 11 11 12 12 11 11 10 12 12
5 4 4 1 -1 -2 -4 -6 -7 -5 5 12 13 15 15 15 15 16 16 17 17 17 17 16 16 16 16 15 14 13 13 12 12 12 14 16 16 15 14 13 11 11 12
4 3 -0 -1 -1 -2 -2 1 -3 -6 -7 -2 9 11 11 13 14 14 16 16 16 16 17 16 15 15 15 16 15 15 14 14 13 13 13 14 14 15 14 11 8 10 9
3 3 4 3 -1 -3 -1 0 3 4 -0 -3 6 10 12 13 15 17 17 16 16 17 17 17 17 17 16 15 14 15 15 15 15 15 15 15 15 16 16 15 14 10 7
1 2 2 3 3 3 3 4 4 4 5 5 3 9 11 12 14 15 16 17 17 17 16 16 17 18 17 17 16 15 15 15 15 15 16 16 16 16 16 16 14 12 11
1 1 2 2 3 3 3 2 2 4 5 6 5 4 1 2 5 3 3 4 3 10 15 17 16 18 17 17 17 17 16 16 16 17 16 16 16 16 15 16 15 14 13
2 2 1 1 2 2 2 3 3 2 4 4 7 7 6 5 -1 -3 6 5 1 1 3 12 15 15 16 16 17 18 17 17 17 17 17 17 17 16 16 16 15 14 15
1 1 1 1 2 2 2 3 3 4 5 5 2 5 6 7 6 6 8 8 3 1 -0 2 10 15 16 16 17 16 17 17 17 17 16 16 16 16 17 17 17 16 16
1 1 1 1 1 1 1 2 2 3 4 5 6 6 5 5 5 5 6 8 9 9 5 7 7 9 12 14 16 16 16 16 18 18 17 17 17 17 17 16 16 16 16
1 1 1 0 0 1 1 1 2 3 2 4 4 4 5 5 5 5 6 7 8 8 9 6 5 8 14 15 15 16 17 16 16 16 17 16 16 16 16 16 16 16 16
-0 0 -0 -0 0 1 1 1 1 1 2 3 4 5 5 6 6 6 6 8 10 12 11 11 12 15 14 15 17 17 17 17 17 16 16 16 16 16 16 16 16 16 16
-1 -0 -0 -0 -0 -0 0 1 1 1 1 2 3 3 4 5 5 6 7 6 7 9 10 12 11 12 12 13 16 17 16 16 16 16 16 16 16 15 16 16 16 17 17
-3 -4 -3 -2 -1 -1 -1 -0 1 1 1 1 2 2 3 3 4 5 6 8 7 4 6 7 10 11 10 12 13 16 16 15 15 16 16 16 16 15 15 15 16 17 15
-3 -4 -4 -4 -2 -2 -2 -2 -1 0 1 1 2 3 3 3 4 4 3 5 8 7 7 10 11 11 11 11 12 14 14 15 13 13 12 12 11 14 14 15 15 16 17
-2 -3 -4 -5 -4 -3 -3 -3 -2 -1 -1 -0 1 2 2 3 4 5 5 7 7 8 8 9 10 11 12 12 12 11 12 12 13 13 11 12 14 14 14 15 15 16 16
-2 -3 -2 -3 -4 -4 -4 -3 -3 -3 -2 -2 -1 0 1 2 3 4 5 5 7 8 9 10 11 11 12 12 11 10 9 8 11 11 14 14 15 15 16 16 16 16 16

GFSGL_850_dewp_081.txt.gz
Dewpoint
10 11 12 12 13 13 13 15 15 15 14 14 11 12 12 15 16 14 14 14 13 11 11 13 12 11 12 15 13 11 13 14 13 14 14 15 15 14 13 14 14 13 14
13 13 12 13 13 12 12 11 15 15 15 14 13 12 13 14 15 15 13 13 16 15 13 12 13 12 10 11 14 12 14 15 15 14 14 13 11 8 10 13 14 15 14
16 15 15 14 14 13 13 13 12 13 12 12 14 14 15 14 14 16 16 13 16 16 14 12 12 13 12 10 11 14 14 14 14 14 13 13 12 12 13 14 14 15 15
14 15 15 15 15 14 14 16 15 14 15 12 10 12 11 12 14 16 14 15 13 13 15 15 15 14 14 13 10 9 9 10 13 12 14 15 16 13 15 16 16 16 16
14 12 15 16 16 15 15 16 16 17 15 15 15 14 14 15 14 13 14 13 13 13 13 15 15 15 16 16 15 13 12 10 11 13 12 15 15 17 17 16 15 15 15
14 14 14 13 10 12 14 16 16 16 17 17 15 16 14 14 13 14 14 14 14 14 13 14 14 15 16 16 16 16 15 13 12 15 15 16 16 16 16 10 7 8 6
15 15 13 13 13 11 11 13 14 16 17 17 17 17 15 15 13 12 15 17 16 15 15 14 14 13 14 14 14 15 15 14 13 9 7 8 7 4 5 4 6 8 7
4 7 12 14 14 15 14 11 13 14 15 17 17 17 17 17 17 15 13 14 15 15 15 16 15 14 16 15 15 16 16 16 16 16 16 15 11 8 12 13 13 13 11
5 4 0 5 11 14 15 15 15 15 15 16 17 17 17 17 17 17 17 14 14 14 14 14 15 14 14 14 15 14 14 12 11 11 10 10 10 10 11 13 14 15 13
5 2 0 -3 -3 -1 4 11 14 14 15 16 16 16 17 16 16 16 16 17 16 15 14 14 13 13 12 12 13 12 12 8 8 9 9 9 9 12 14 13 13 13 12
6 3 1 -1 -3 -4 -4 -2 -1 3 7 12 14 15 15 16 16 16 16 17 16 15 15 16 16 15 14 13 13 13 12 12 12 12 11 11 10 10 10 10 11 11 9
1 -0 -1 -2 -3 -4 -5 -5 -5 -5 -5 -4 -2 6 11 12 14 15 15 15 16 17 16 16 16 17 16 16 15 16 15 15 15 14 14 13 12 13 13 13 13 14 13
0 -2 -3 -3 -3 -3 -3 -5 -6 -5 -2 -2 -1 -2 3 9 11 13 14 13 16 15 16 16 16 16 17 17 16 17 16 16 16 16 15 14 14 14 14 14 14 15 15
-3 -4 -3 -3 -3 -3 -2 -1 2 3 3 5 6 6 6 10 14 15 15 15 17 17 16 16 16 16 16 17 18 17 16 16 16 16 15 15 14 14 14 14 15 15 16
-5 -5 -5 -5 -4 -5 -5 -3 -2 1 4 5 6 6 6 4 7 7 9 11 12 13 13 15 15 15 15 15 16 16 16 16 16 15 15 15 15 15 15 15 16 16 16
-5 -6 -5 -6 -6 -5 -5 -6 -6 -5 -3 0 3 5 5 6 6 4 5 3 0 -2 -1 2 3 6 14 15 15 16 16 16 16 16 16 16 15 15 15 15 16 16 16
-5 -6 -6 -6 -5 -5 -4 -3 -4 -8 -6 -6 -4 -1 3 5 6 7 7 6 4 5 5 1 -1 0 2 8 15 16 16 16 15 16 16 16 16 16 16 16 16 16 15
-4 -2 -1 -2 -3 -4 -4 -3 -2 -1 -3 -6 -6 -5 -3 0 4 6 6 7 6 6 8 8 4 3 2 -0 2 5 13 14 15 16 17 16 17 17 17 16 16 15 16
-4 -3 -2 -2 -2 -2 -2 -2 -1 -0 -0 -0 -1 -3 -3 -0 3 5 6 6 6 5 5 7 7 6 6 5 6 8 12 13 14 16 16 16 16 16 16 16 16 16 16
-6 -5 -3 -2 -1 -1 -1 0 0 0 0 1 1 1 0 2 5 6 6 7 6 4 5 8 8 9 10 10 8 7 9 12 13 14 15 15 15 15 16 16 16 16 16
-6 -7 -7 -6 -5 -3 -1 -1 -0 -0 0 1 1 1 1 1 1 3 5 6 6 7 8 9 13 14 13 13 14 14 13 12 14 15 15 16 15 16 16 16 16 16 15
-5 -5 -6 -6 -6 -6 -6 -4 -3 -2 -1 -0 0 1 1 1 1 2 2 3 5 6 8 7 6 9 11 13 12 11 11 11 12 15 16 15 16 16 16 16 16 16 16
-4 -4 -5 -6 -6 -6 -5 -5 -4 -3 -2 -2 -1 -0 1 2 2 2 2 2 2 4 6 8 9 9 7 7 9 12 12 8 11 14 15 17 15 15 15 16 14 15 13
-2 -3 -2 -2 -5 -6 -4 -4 -3 -3 -3 -3 -3 -2 -1 0 1 1 2 3 3 3 4 5 6 7 7 8 10 13 14 14 12 11 13 14 15 15 14 13 12 13 11
-1 -0 -3 -2 -4 -6 -5 -4 -3 -3 -4 -4 -3 -3 -2 -2 -1 0 1 1 2 4 4 5 7 8 8 9 9 9 13 14 13 12 11 10 9 11 14 14 12 13 14
-2 -2 -1 -1 -4 -6 -5 -5 -4 -4 -4 -4 -4 -3 -3 -3 -2 -2 -1 0 1 1 3 4 5 6 8 9 10 11 11 12 13 12 11 9 6 8 12 14 14 13 15

GFSGL_850_dewp_084.txt.gz
Dewpoint
11 11 11 11 13 10 12 13 14 14 14 15 15 15 11 12 15 15 14 11 10 9 10 10 11 11 11 13 14 13 13 13 14 14 14 14 14 14 13 10 11 14 15
13 12 12 11 12 12 12 12 14 14 14 14 14 13 11 13 15 15 13 13 12 11 9 11 12 12 12 12 13 13 13 14 14 14 14 13 13 12 12 13 12 14 15
14 13 13 13 13 14 13 14 14 13 15 15 14 14 12 12 13 14 14 13 12 14 15 14 11 12 12 12 11 10 13 13 13 14 14 14 13 12 11 14 14 15 15
13 15 14 13 13 14 14 13 13 13 12 13 12 10 12 14 15 15 14 14 15 13 15 15 10 9 10 10 10 9 10 10 10 10 11 12 12 12 14 16 16 16 16
14 13 13 13 13 13 14 14 15 15 15 14 13 13 12 14 14 15 15 15 15 14 14 12 14 11 10 11 14 14 14 13 11 9 8 10 9 8 12 16 16 15 9
14 14 14 12 13 12 13 13 14 14 14 15 15 14 16 14 14 15 16 14 13 14 14 13 13 14 15 14 13 15 16 16 13 12 7 8 12 13 13 11 7 6 6
14 14 14 13 13 13 13 10 12 12 13 15 15 15 16 15 16 14 14 15 15 16 16 15 15 14 13 13 15 15 14 14 15 16 15 15 14 11 12 9 9 12 13
10 13 14 14 14 13 13 12 12 10 13 14 14 15 15 15 15 15 15 14 14 16 16 15 16 15 15 15 15 16 14 15 16 16 16 15 15 13 12 10 12 12 11
5 5 7 10 13 12 12 14 13 12 13 14 14 13 14 15 15 15 15 15 15 14 14 15 15 15 14 15 16 15 13 12 13 13 13 11 11 11 11 11 11 10 10
5 4 3 2 3 6 10 9 10 12 13 13 13 14 14 14 15 15 16 16 16 15 14 13 13 14 14 14 14 14 14 13 12 11 11 11 11 12 13 14 15 15 15
5 4 2 1 -0 -1 -1 0 0 0 0 7 12 12 14 15 15 16 16 16 16 16 16 15 15 15 15 15 16 16 15 14 14 14 13 13 14 14 13 12 12 13 13
-0 -2 -3 -4 -5 -6 -6 -5 -5 -4 -4 -1 0 -1 -1 6 10 11 12 14 15 15 15 16 16 16 16 16 15 16 16 16 16 16 16 16 14 14 13 13 13 13 13
-4 -4 -5 -5 -5 -6 -6 -6 -6 -6 -5 -4 -3 -0 0 1 9 13 15 15 16 14 16 17 16 15 16 16 16 16 16 17 17 17 17 16 15 14 15 15 14 14 14
-5 -7 -7 -7 -7 -7 -6 -6 -6 -4 -3 -1 -1 0 1 2 2 8 11 12 11 12 13 14 15 16 16 16 16 15 16 16 16 17 16 16 16 16 15 15 15 15 15
-6 -6 -7 -7 -8 -8 -8 -8 -8 -7 -5 -5 -3 -1 1 -1 1 3 5 7 8 8 9 11 11 12 12 14 13 13 15 15 15 16 16 16 16 15 15 14 14 15 15
-10 -9 -7 -7 -7 -7 -7 -9 -8 -8 -8 -7 -5 -4 -3 -0 2 2 4 5 6 5 6 6 5 0 -2 0 1 2 6 13 15 16 16 16 17 17 17 16 16 16 15
-13 -12 -10 -10 -9 -9 -9 -8 -10 -12 -11 -10 -10 -8 -6 -5 -5 -4 0 3 5 5 5 3 2 1 0 1 1 1 1 -0 2 7 14 15 14 14 17 17 17 16 16
-10 -9 -9 -8 -7 -7 -7 -7 -7 -7 -9 -12 -10 -9 -9 -8 -6 -5 -4 -1 2 5 6 6 5 5 4 6 6 4 4 5 6 10 11 12 13 14 15 16 16 15 15
-9 -9 -9 -8 -8 -8 -8 -8 -7 -7 -7 -8 -8 -8 -6 -6 -7 -5 -2 1 3 4 5 6 5 5 4 4 5 7 8 9 9 11 13 14 14 15 16 16 16 15 14
-8 -8 -8 -8 -8 -8 -8 -8 -8 -8 -7 -7 -6 -5 -5 -4 -4 -4 -4 -2 -0 3 4 6 5 5 8 10 12 12 11 13 14 14 13 13 13 15 16 16 16 16 15
-7 -6 -6 -6 -6 -7 -8 -8 -8 -8 -8 -7 -6 -5 -4 -3 -3 -2 -1 -0 0 -1 1 5 6 6 8 8 8 8 13 14 15 14 14 14 14 17 16 15 15 16 16
-5 -4 -4 -4 -5 -6 -8 -8 -8 -7 -7 -6 -6 -5 -5 -4 -3 -1 0 1 2 2 2 1 2 5 6 7 8 8 8 10 12 13 13 11 13 14 13 16 15 15 16
-4 -4 -3 -5 -6 -5 -7 -8 -6 -6 -6 -5 -5 -3 -3 -3 -4 -3 -2 -0 1 1 2 3 2 2 4 5 6 8 9 10 12 13 14 14 12 13 12 15 15 14 14
-3 -2 -4 -5 -4 -4 -5 -7 -7 -6 -6 -6 -4 -4 -4 -4 -4 -3 -3 -2 -2 -1 1 2 1 2 3 3 5 6 8 8 8 11 12 11 14 12 12 11 12 14 14
-2 -1 -3 -3 -3 -3 -4 -5 -6 -6 -6 -6 -5 -5 -5 -4 -4 -4 -4 -4 -4 -3 -2 -0 1 2 2 4 5 7 8 9 10 11 11 12 12 12 12 11 8 9 13
-1 -2 -3 -2 -1 -2 -3 -5 -6 -6 -6 -6 -5 -5 -5 -5 -5 -5 -5 -5 -4 -4 -3 -2 -1 -1 0 1 3 5 6 7 8 9 10 10 11 11 11 10 8 6 7

GFSGL_850_dewp_087.txt.gz
Dewpoint
14 14 12 13 14 13 13 14 13 13 14 14 15 14 15 15 13 12 13 12 10 11 10 9 10 9 8 12 13 14 14 13 13 13 14 14 14 13 12 11 10 10 14
14 12 13 13 13 14 13 13 14 14 14 14 14 15 15 12 12 14 14 15 14 11 11 10 10 10 11 11 12 13 13 13 13 14 14 13 13 13 13 12 12 14 14
14 14 12 13 13 12 12 13 12 13 14 14 14 14 13 12 12 13 14 13 14 13 13 14 11 12 11 12 12 12 12 11 12 13 13 13 13 13 13 12 11 13 16
13 15 13 13 13 13 13 13 14 13 14 15 14 14 14 14 12 13 14 14 14 14 13 14 14 14 12 12 12 11 11 10 11 11 11 10 10 10 10 9 8 13 15
13 14 14 14 14 13 14 13 13 14 13 13 14 15 15 13 13 14 15 14 14 13 14 15 14 13 14 12 12 11 13 14 15 14 14 12 8 8 10 12 13 12 10
13 14 13 12 11 13 13 13 13 13 13 13 13 13 14 15 15 14 14 15 16 15 14 14 14 14 13 14 15 14 14 14 15 16 15 15 14 14 10 10 11 8 7
13 13 14 14 14 14 13 13 13 12 12 12 14 14 14 14 15 15 14 14 14 15 15 14 15 15 15 15 14 14 14 15 15 15 14 15 15 13 15 14 14 13 10
14 14 14 14 14 13 12 13 13 12 11 11 12 13 14 14 14 14 15 15 15 13 14 15 16 16 15 15 15 16 15 15 15 15 14 16 15 14 14 14 14 13 11
10 11 12 13 14 13 13 13 13 13 12 11 12 11 12 13 13 13 13 13 14 14 14 14 13 14 14 14 15 14 13 13 13 13 13 12 12 12 12 13 14 14 13
5 5 5 6 8 10 12 11 12 11 13 13 13 13 12 13 14 13 13 14 14 14 14 15 15 15 15 14 14 15 15 14 14 13 13 13 13 13 13 13 13 13 14
4 4 3 2 1 0 1 1 5 10 8 6 6 8 8 8 12 13 14 14 14 14 15 15 16 16 16 15 16 16 15 16 16 16 16 16 15 14 13 13 14 14 14
-1 -2 -3 -3 -4 -4 -4 -4 -4 -4 0 3 -4 -1 1 3 9 11 13 13 13 14 15 15 15 15 15 15 15 15 16 16 16 16 17 16 16 14 14 14 14 14 15
-4 -5 -6 -6 -5 -6 -6 -6 -5 -5 -6 -5 -5 -4 -3 2 1 8 10 12 13 14 14 14 14 14 15 15 16 15 15 16 16 16 16 16 16 16 16 16 16 15 15
-8 -9 -9 -9 -8 -8 -8 -8 -8 -7 -6 -5 -5 -5 -5 -4 -2 1 2 7 11 12 13 12 12 13 13 13 13 13 14 13 11 12 15 15 15 15 16 16 16 15 16
-8 -8 -8 -8 -8 -8 -8 -9 -9 -8 -8 -9 -9 -9 -10 -10 -9 -7 -6 -4 -1 3 7 10 10 10 10 11 11 9 5 6 5 3 5 13 15 16 16 16 16 16 17
-12 -11 -9 -9 -8 -8 -9 -8 -8 -9 -9 -9 -8 -9 -8 -8 -9 -10 -10 -10 -9 -6 -3 0 2 3 4 4 4 2 -1 -0 0 2 4 2 4 10 14 15 16 15 14
-12 -10 -9 -8 -9 -9 -10 -11 -13 -10 -11 -10 -10 -9 -9 -9 -9 -8 -9 -9 -9 -9 -8 -7 -4 -0 3 4 4 4 2 1 4 4 5 7 5 10 11 10 12 14 14
-10 -10 -9 -9 -9 -9 -10 -10 -11 -12 -13 -14 -12 -11 -11 -10 -10 -9 -8 -7 -8 -7 -6 -5 -5 -3 1 4 5 5 4 4 4 4 6 7 8 11 14 15 15 15 15
-10 -10 -10 -9 -9 -9 -9 -9 -10 -10 -11 -11 -12 -12 -11 -12 -11 -10 -8 -7 -6 -5 -5 -5 -4 -2 1 4 5 5 6 6 7 9 7 10 12 11 10 12 14 15 16
-9 -8 -8 -8 -7 -7 -8 -10 -10 -10 -10 -10 -10 -10 -10 -10 -10 -11 -9 -7 -6 -5 -3 -1 -2 -3 -2 2 4 5 6 9 10 11 12 13 15 15 15 13 14 15 15
-7 -7 -6 -6 -6 -8 -9 -11 -11 -11 -9 -8 -8 -7 -7 -7 -7 -7 -7 -6 -5 -5 -3 -1 1 1 0 -0 0 4 6 7 8 8 10 12 13 14 14 13 13 12 13
-7 -6 -6 -5 -7 -7 -8 -10 -11 -11 -10 -8 -8 -7 -7 -7 -7 -6 -6 -5 -5 -5 -4 -4 -4 -0 2 2 2 1 2 5 6 8 10 12 12 13 14 13 13 11 13
-6 -5 -5 -5 -5 -5 -6 -8 -10 -11 -9 -8 -8 -7 -7 -7 -7 -7 -7 -6 -5 -5 -5 -5 -5 -4 -3 1 2 2 3 5 7 8 8 9 10 12 12 13 13 12 11
-4 -4 -3 -3 -4 -4 -4 -5 -7 -9 -10 -8 -7 -7 -7 -7 -7 -7 -7 -6 -6 -6 -5 -5 -6 -6 -5 -4 -1 2 2 3 5 5 6 8 9 9 10 12 11 13 12
-2 -2 -2 -2 -3 -2 -3 -3 -4 -4 -8 -8 -7 -7 -7 -7 -7 -7 -7 -6 -6 -5 -5 -4 -5 -5 -4 -4 -2 -1 1 1 2 4 6 7 7 8 10 11 12 13 12
-2 -1 -2 -3 -4 -3 -3 -3 -3 -3 -4 -9 -8 -6 -6 -7 -7 -7 -7 -7 -6 -6 -5 -5 -5 -5 -5 -4 -4 -2 -1 -1 -1 1 4 5 6 7 8 9 9 9 10

GFSGL_850_dewp_090.txt.gz
Dewpoint
15 14 14 14 13 14 14 14 14 14 14 14 14 14 14 15 15 15 12 13 13 12 10 8 8 10 10 9 10 13 14 14 13 13 12 13 13 13 13 13 12 11 12
15 14 14 14 13 13 14 14 14 14 14 14 13 14 15 15 15 14 12 13 13 12 11 10 9 10 10 9 9 10 12 13 13 13 13 12 12 13 13 13 12 11 12
16 14 14 14 14 13 13 13 13 12 13 13 13 13 14 14 13 12 13 14 13 12 13 13 13 12 9 10 10 12 12 12 12 11 11 12 12 11 10 8 9 9 9
15 14 14 14 15 14 14 13 12 13 13 13 14 14 14 14 14 14 13 14 14 14 13 12 13 13 14 14 13 13 13 12 12 13 13 14 13 11 9 10 11 12 12
15 15 14 13 14 14 14 13 13 13 13 12 13 14 13 14 14 13 14 14 15 15 14 14 14 14 14 13 14 13 13 13 13 15 15 15 16 13 14 14 14 14 11
14 13 12 12 14 13 13 12 13 13 13 13 12 13 12 13 14 15 15 15 15 15 15 13 14 14 14 14 14 14 15 15 15 15 15 13 13 14 15 16 16 16 15
13 13 13 13 14 13 12 13 12 12 13 13 12 12 14 13 14 13 14 14 14 14 14 15 14 14 15 15 15 14 14 15 15 15 15 15 15 13 15 15 14 14 13
14 14 14 14 14 14 14 14 13 12 13 12 12 10 12 12 13 13 13 13 13 13 14 13 13 13 14 15 15 15 15 14 14 15 15 15 15 15 15 14 13 12 11
13 13 13 14 14 14 13 13 12 13 13 13 13 11 12 12 11 12 12 13 13 13 13 13 13 13 13 13 13 13 13 13 13 13 13 13 13 13 13 14 13 13 13
7 7 8 8 10 12 13 12 11 11 11 12 12 12 12 12 11 12 12 13 13 13 14 14 14 14 15 15 15 14 14 13 13 13 13 13 14 14 14 15 15 15 15
3 3 2 2 2 2 3 5 5 6 8 7 3 7 9 12 12 12 12 12 13 13 14 14 14 15 15 15 15 15 15 15 15 15 15 15 14 14 14 14 15 15 15
-2 -3 -4 -4 -4 -4 -4 -4 -4 -3 -3 0 2 1 2 2 4 7 10 12 12 13 13 14 14 15 15 15 15 15 15 16 15 15 15 15 15 14 14 15 15 15 15
-4 -6 -6 -7 -7 -6 -7 -6 -6 -5 -6 -6 -5 -5 -3 -1 2 1 3 7 10 11 12 12 12 13 14 14 14 14 14 13 13 13 14 13 11 11 13 14 14 15 15
-9 -9 -10 -10 -10 -9 -9 -9 -9 -9 -8 -8 -8 -8 -8 -8 -7 -7 -5 -2 0 2 5 9 11 12 12 12 12 11 11 9 6 5 4 5 5 4 7 13 15 15 16
-10 -10 -10 -9 -9 -9 -9 -9 -10 -11 -11 -11 -11 -11 -12 -11 -11 -12 -13 -14 -13 -13 -12 -11 -8 -5 -2 1 4 5 5 5 5 2 1 1 2 2 1 2 6 12 15
-12 -12 -11 -10 -9 -9 -8 -9 -9 -9 -10 -11 -12 -12 -11 -12 -14 -13 -12 -13 -14 -15 -15 -14 -13 -12 -11 -10 -9 -8 -5 -2 2 2 2 2 4 5 4 3 7 14 13
-13 -13 -12 -12 -11 -10 -11 -11 -11 -11 -11 -11 -12 -11 -12 -13 -14 -15 -16 -16 -15 -15 -14 -14 -12 -11 -10 -8 -8 -6 -5 -4 -2 1 2 3 3 5 8 7 7 12 14
-12 -11 -11 -10 -11 -11 -11 -11 -12 -13 -13 -13 -13 -13 -13 -13 -13 -13 -14 -15 -15 -14 -12 -11 -11 -10 -10 -8 -7 -6 -3 -2 -0 4 7 6 6 7 9 12 13 13 12
-12 -11 -11 -10 -10 -10 -10 -11 -12 -12 -12 -12 -12 -12 -12 -13 -12 -11 -11 -10 -10 -10 -10 -10 -9 -8 -8 -6 -5 -5 -4 -3 1 2 4 7 8 9 12 14 14 15 15
-10 -9 -9 -9 -8 -8 -9 -11 -12 -13 -12 -11 -10 -10 -10 -10 -10 -10 -9 -8 -8 -8 -7 -7 -7 -6 -5 -5 -6 -4 -2 -1 -2 -2 1 4 7 8 8 10 12 13 14
-8 -8 -7 -7 -7 -8 -8 -9 -11 -13 -12 -10 -9 -9 -9 -9 -9 -9 -8 -8 -7 -7 -7 -7 -7 -6 -6 -6 -5 -4 0 2 1 0 -1 0 5 7 9 8 11 12 13
-8 -7 -6 -6 -6 -6 -6 -7 -9 -11 -11 -12 -11 -9 -8 -8 -9 -9 -9 -8 -8 -8 -7 -7 -7 -6 -5 -6 -6 -6 -5 -2 -0 2 4 5 6 7 7 8 9 11 12
-7 -6 -5 -5 -5 -4 -4 -5 -6 -7 -9 -11 -12 -12 -10 -8 -8 -8 -8 -8 -8 -8 -8 -7 -7 -7 -6 -5 -5 -6 -6 -6 -4 -2 2 3 4 5 5 7 8 8 9
-5 -5 -5 -4 -5 -4 -4 -4 -4 -5 -6 -7 -10 -12 -12 -9 -8 -8 -8 -8 -8 -8 -8 -8 -7 -7 -6 -6 -6 -5 -5 -6 -6 -4 -1 2 3 4 4 5 7 8 9
-4 -3 -3 -4 -4 -5 -5 -4 -4 -5 -5 -5 -7 -11 -12 -11 -7 -7 -7 -8 -8 -8 -8 -8 -7 -7 -7 -6 -5 -5 -5 -5 -5 -5 -5 -2 1 2 3 4 5 6 7
-3 -2 -2 -2 -4 -4 -4 -4 -4 -4 -4 -4 -4 -7 -10 -10 -7 -6 -7 -7 -7 -7 -7 -7 -7 -7 -6 -6 -5 -5 -5 -5 -4 -4 -4 -3 -2 -0 1 2 3 4 6

GFSGL_850_dewp_093.txt.gz
Dewpoint
14 14 14 14 13 13 14 14 14 14 14 14 14 14 14 14 14 14 15 13 12 11 13 11 10 9 10 11 10 9 10 13 15 15 13 13 12 12 12 12 11 12 15
14 14 14 14 14 14 13 13 14 14 14 14 14 14 14 14 14 15 15 13 13 12 12 11 10 9 9 9 10 10 11 10 13 14 14 12 11 11 12 11 9 12 13
14 14 14 14 14 14 13 12 14 13 13 14 13 13 13 14 14 14 13 12 13 13 13 13 12 11 10 10 10 10 13 12 13 13 14 12 10 10 10 11 8 9 11
14 14 15 15 13 13 14 13 12 12 11 12 12 12 14 14 14 14 14 13 13 13 13 12 12 13 13 13 14 14 13 12 14 14 16 16 16 14 13 14 16 16 15
14 14 14 14 14 14 15 14 13 12 12 13 13 13 13 13 14 13 13 14 13 14 14 14 14 14 14 14 14 12 13 13 16 15 15 15 15 16 15 16 17 17 16
15 15 15 15 15 14 13 13 13 13 13 13 13 13 12 12 12 12 13 13 13 14 14 14 14 13 14 14 14 14 14 14 14 16 16 16 16 15 16 16 16 16 15
15 14 14 14 14 14 14 13 13 13 13 13 13 12 13 13 12 13 13 13 13 13 13 13 13 16 14 14 14 15 15 14 14 15 15 14 15 15 15 15 17 16 16
13 14 14 14 14 14 14 13 13 13 12 13 12 12 11 11 12 12 13 13 13 13 13 13 13 13 12 13 14 14 14 14 14 15 14 14 14 14 14 15 14 13 13
13 13 13 14 14 14 14 14 13 13 12 13 13 13 13 12 11 11 11 12 12 12 13 14 14 14 14 13 13 13 13 12 13 13 13 13 13 13 13 14 15 16 15
12 12 12 12 12 12 12 12 11 11 11 10 11 12 13 12 12 11 11 10 11 12 12 13 13 14 13 13 13 13 15 16 15 14 14 14 14 14 14 14 15 17 16
4 3 3 3 3 4 4 6 7 7 8 8 8 7 7 9 12 12 12 11 11 11 11 12 13 14 13 13 13 14 14 15 15 15 14 15 16 16 16 17 15 14 17
-2 -3 -3 -4 -4 -3 -3 -3 -3 -2 -1 0 3 3 3 3 3 4 6 8 9 10 11 12 12 13 13 14 14 14 14 14 14 14 14 14 13 13 13 13 12 12 14
-6 -7 -7 -7 -7 -7 -6 -6 -7 -7 -6 -5 -4 -2 -0 0 0 0 1 1 1 2 3 5 8 10 11 12 12 12 12 11 10 11 11 11 10 10 8 9 10 11 10
-9 -10 -10 -10 -10 -9 -9 -8 -8 -8 -8 -8 -8 -7 -7 -8 -8 -8 -8 -8 -7 -7 -6 -6 -5 -4 -2 0 3 5 7 8 8 7 10 11 10 10 10 12 13 13 13
-12 -12 -11 -10 -10 -9 -9 -9 -10 -10 -10 -10 -11 -12 -12 -12 -13 -15 -16 -17 -18 -18 -19 -19 -19 -18 -17 -16 -14 -11 -11 -9 -7 -3 3 7 9 9 10 11 12 13 13
-12 -12 -12 -10 -9 -9 -9 -9 -9 -9 -10 -11 -12 -12 -12 -13 -14 -15 -16 -17 -19 -19 -18 -17 -16 -17 -17 -18 -16 -13 -7 -5 2 1 6 8 9 9 10 10 11 12 13
-13 -13 -13 -12 -11 -10 -10 -10 -9 -10 -11 -11 -12 -12 -13 -14 -15 -16 -17 -18 -18 -18 -16 -16 -15 -12 -10 -11 -3 -3 -7 0 -3 5 5 7 9 9 10 10 10 10 11
-13 -13 -11 -11 -11 -11 -11 -11 -12 -11 -11 -11 -12 -13 -13 -13 -14 -14 -15 -15 -14 -14 -14 -14 -13 -12 -11 -11 -9 -3 -5 -5 -3 1 3 4 5 7 7 9 10 11 12
-12 -12 -12 -11 -11 -11 -11 -12 -13 -13 -13 -12 -12 -12 -12 -12 -13 -13 -13 -12 -12 -11 -10 -10 -9 -9 -8 -8 -8 -8 -8 -8 -4 -0 3 3 4 4 5 6 7 8 8
-11 -10 -10 -9 -9 -9 -10 -11 -12 -13 -13 -12 -11 -11 -11 -11 -11 -11 -10 -10 -10 -9 -9 -8 -8 -8 -8 -8 -8 -7 -3 -1 -1 1 2 3 3 4 5 6 7 7 9
-10 -9 -8 -7 -7 -8 -8 -9 -10 -12 -13 -13 -12 -11 -12 -12 -10 -10 -10 -9 -9 -9 -9 -9 -8 -7 -6 -6 -8 -8 -6 -3 -2 -2 -1 1 2 2 2 5 6 7 7
-5 -8 -8 -6 -7 -6 -6 -6 -8 -9 -10 -11 -11 -13 -14 -12 -11 -9 -8 -8 -8 -8 -8 -8 -6 -6 -5 -5 -5 -4 -6 -6 -5 -3 -2 -1 -1 -0 1 2 3 5 6
-3 -7 -6 -6 -6 -5 -4 -5 -5 -5 -5 -7 -9 -11 -13 -13 -12 -10 -8 -7 -7 -7 -6 -6 -6 -6 -5 -6 -5 -5 -4 -4 -4 -5 -4 -4 -5 -6 -5 -3 1 4 4
-2 -6 -5 -5 -4 -4 -3 -2 -3 -5 -6 -6 -5 -6 -7 -10 -12 -11 -8 -7 -8 -8 -8 -7 -7 -7 -6 -6 -6 -6 -6 -6 -5 -5 -5 -4 -5 -4 -4 -4 -4 -2 3
-2 -5 -5 -4 -4 -4 -3 -4 -3 -4 -5 -5 -4 -5 -6 -9 -10 -11 -10 -8 -7 -7 -7 -7 -7 -7 -7 -7 -7 -6 -6 -6 -5 -5 -4 -3 -3 -4 -4 -4 -3 -2 -1
-0 -3 -4 -2 -3 -4 -4 -3 -3 -4 -4 -4 -4 -4 -5 -7 -9 -10 -11 -10 -8 -7 -7 -7 -7 -7 -7 -7 -6 -6 -6 -6 -5 -4 -3 -3 -3 -3 -3 -4 -4 -4 -3

GFSGL_850_dewp_096.txt.gz
Dewpoint
15 15 14 14 16 16 15 16 15 14 14 14 14 14 16 14 14 14 15 16 16 16 16 16 15 14 14 13 14 14 14 14 14 13 14 15 16 16 15 11 14 14 12
14 14 14 15 15 16 16 16 16 14 14 14 14 14 14 16 17 14 14 16 17 16 16 16 16 14 15 13 14 15 14 15 14 14 14 14 16 16 16 16 15 13 14
14 14 14 14 14 15 16 16 16 15 13 15 14 13 14 13 14 14 15 16 16 16 16 16 16 15 16 14 14 14 13 13 14 14 13 14 14 15 16 15 15 15 14
15 14 14 14 14 13 14 16 16 15 13 16 15 14 13 13 13 14 13 14 16 16 16 16 16 16 16 17 16 16 15 16 14 14 13 12 13 13 15 14 12 13 14
15 15 14 14 14 14 13 14 14 14 16 15 16 16 16 15 16 13 12 13 13 13 16 17 16 16 14 14 16 16 16 16 14 13 13 12 13 13 14 13 14 13 13
15 15 15 14 14 14 13 15 14 13 14 14 16 16 17 16 14 12 12 13 16 12 15 16 15 14 13 13 14 14 15 14 16 16 14 13 14 16 15 15 14 14 14
15 15 15 15 15 14 14 13 13 13 13 13 14 16 13 13 12 12 12 12 16 16 16 16 16 14 15 16 16 14 14 15 15 15 15 16 16 15 16 16 16 16 15
15 15 15 15 15 14 14 13 13 13 13 12 12 12 12 12 13 13 13 14 16 16 16 16 16 16 13 12 14 16 16 17 16 15 15 15 15 15 15 15 16 16 16
15 14 13 14 14 14 14 14 14 13 13 12 13 12 12 12 11 11 11 12 14 15 14 13 13 13 13 13 13 14 17 17 16 16 17 15 13 13 14 14 16 16 15
13 13 13 13 13 13 13 13 13 13 13 12 13 12 12 12 12 12 12 11 11 13 12 12 12 12 12 13 13 13 13 14 14 14 14 14 15 15 15 16 16 17 16
10 9 9 8 8 9 11 12 11 10 10 10 9 9 10 10 10 11 11 12 12 11 11 11 11 11 12 13 13 13 13 13 13 14 13 14 15 15 15 16 16 17 17
2 2 -0 -1 -0 -0 -0 1 2 4 5 6 6 5 5 5 4 5 4 5 7 9 9 9 9 10 11 12 12 12 12 13 13 12 13 13 12 13 12 13 13 12 11
-5 -6 -6 -6 -6 -6 -6 -5 -4 -3 1 0 4 4 4 1 0 -0 -0 -1 -1 0 0 -1 -2 -2 -1 -1 2 6 8 10 11 11 11 12 12 12 12 12 12 12 13
-7 -8 -9 -10 -9 -9 -4 -2 1 1 2 2 2 1 -2 -4 -6 -8 -9 -10 -10 -11 -11 -12 -14 -13 -10 -12 -11 -10 -2 1 5 6 6 7 8 8 9 9 9 10 11
-12 -9 -10 -1 -4 -6 -3 -2 -0 -10 -9 -0 -2 -2 -2 -1 -13 -14 -15 -17 -18 -19 -20 -15 -2 -0 0 1 2 3 3 5 4 5 6 6 6 6 6 7 7 8 8
-4 -1 -1 -0 -0 -0 0 -7 -9 -10 -10 -11 -11 -11 -13 -14 -15 -17 -19 -20 -21 -21 -19 -17 -7 -13 -2 -0 1 1 2 3 4 6 5 5 5 5 7 8 8 8 8
-1 -0 -2 -3 -2 -1 -1 -1 -2 -11 -12 -13 -13 -13 -14 -15 -17 -18 -19 -18 -18 -17 -1 -1 -4 -5 0 -8 -5 1 2 2 -1 2 2 3 4 3 3 4 5 5 7
-4 -7 -2 -2 -3 -3 -2 -2 -3 -2 -1 -3 -12 -13 -13 -13 -14 -14 -14 -13 -2 -2 -2 -2 -1 -1 -0 -0 0 -1 -0 -2 1 1 2 2 3 3 3 3 3 3 4
-2 -3 -3 -3 -3 -4 -3 -4 -4 -3 -3 -3 -2 -8 -12 -12 -12 -12 -13 -5 -3 -3 -3 -2 -3 -3 -3 -3 -2 -1 -2 -1 -1 0 1 1 2 3 3 3 3 4 5
-2 -3 -4 -3 -6 -4 -4 -5 -5 -4 -4 -3 -3 -4 -7 -3 -3 -2 -2 -3 -3 -3 -2 -2 -2 -2 -2 -3 -2 -2 -2 -2 -2 -1 -1 -0 -0 0 1 2 3 3 3
-2 -7 -7 -3 -3 -4 -4 -4 -4 -5 -5 -5 -5 -8 -15 -8 -3 -3 -3 -3 -3 -3 -2 -2 -3 -2 -2 -2 -2 -2 -2 -2 -2 -2 -2 -2 -2 -1 -1 -0 1 1 2
-3 -2 -3 -2 -3 -2 -3 -3 -3 -4 -4 -4 -5 -5 -14 -6 -4 -4 -3 -3 -3 -3 -3 -3 -3 -3 -3 -3 -3 -3 -3 -3 -3 -3 -2 -2 -2 -2 -2 -2 -1 -1 -1
-2 -1 -2 -2 -2 -2 -2 -2 -2 -2 -2 -3 -3 -4 -5 -5 -4 -4 -3 -3 -3 -3 -3 -3 -3 -3 -3 -3 -4 -4 -3 -3 -3 -3 -3 -3 -3 -3 -3 -3 -2 -2 -2
-1 -1 -1 -1 -1 -2 -2 -1 -1 -1 -2 -2 -3 -3 -3 -4 -4 -4 -3 -3 -3 -3 -3 -3 -3 -4 -3 -3 -3 -3 -4 -4 -4 -5 -4 -4 -4 -3 -3 -3 -3 -3 -2
-0 -1 -1 -1 -1 -2 -2 -2 -2 -1 -2 -2 -2 -2 -3 -3 -4 -4 -4 -4 -4 -5 -4 -5 -4 -3 -4 -4 -4 -5 -5 -5 -5 -4 -3 -3 -3 -2 -2 -2 -1 -1 -2
-0 0 -1 -1 -0 -0 -1 -1 -1 -1 -2 -2 -2 -2 -1 -2 -2 -3 -4 -4 -4 -4 -10 -7 -6 -5 -6 -5 -5 -5 -5 -5 -5 -3 -2 -1 -1 -1 -1 -1 -1 -1 -1

GFSGL_850_dewp_099.txt.gz
Dewpoint
17 16 16 16 16 16 16 16 16 16 15 16 15 17 16 17 17 16 14 16 18 16 16 16 16 16 15 14 13 13 13 13 13 13 14 14 15 16 16 14 16 15 13
16 15 16 14 16 16 16 16 16 16 17 16 16 17 17 17 17 17 17 16 17 16 16 16 16 15 15 14 13 14 14 14 15 14 14 13 13 14 15 15 16 15 14
14 14 15 15 14 15 16 16 16 16 16 17 17 15 15 16 17 17 16 17 16 16 16 16 16 16 15 15 14 15 14 14 14 14 14 13 12 12 13 15 14 14 15
14 14 15 14 14 14 14 14 14 16 16 16 17 17 17 17 14 17 17 17 17 16 16 16 16 16 16 16 15 15 14 14 14 15 13 13 13 11 12 13 13 12 13
14 14 14 13 13 14 14 14 13 14 16 16 16 16 17 16 15 15 17 17 17 17 17 17 16 16 16 15 15 16 16 16 16 15 13 12 12 15 15 14 15 14 14
16 15 15 14 15 14 15 14 13 14 15 16 16 16 16 16 15 14 14 15 16 17 17 17 16 16 13 14 14 13 13 14 14 16 15 15 14 15 16 16 16 15 15
15 15 15 15 14 14 14 14 14 15 15 15 16 14 13 13 12 13 14 13 14 16 16 16 16 15 15 16 16 15 14 13 13 14 14 13 13 14 15 14 16 16 16
15 15 15 14 15 14 14 14 14 13 14 15 15 14 12 12 12 12 13 13 13 16 16 16 16 14 12 13 13 14 16 17 16 16 16 16 15 15 15 16 14 14 16
15 15 15 15 15 14 14 14 13 14 14 14 14 13 11 11 12 11 11 14 16 15 13 13 14 13 13 13 13 14 15 16 15 15 15 15 14 13 13 14 14 16 15
15 14 14 14 14 14 14 14 14 14 14 14 14 13 12 11 12 12 12 11 13 13 14 13 12 12 12 12 12 13 13 16 15 13 13 13 13 13 14 15 15 16 16
13 13 13 13 13 13 13 13 12 12 13 13 12 12 12 11 11 11 12 12 12 12 11 12 11 11 11 11 11 12 12 13 13 13 12 13 13 13 13 13 14 15 16
6 8 4 4 5 6 6 8 10 10 10 11 11 9 9 9 9 8 6 6 4 6 8 10 10 9 9 8 5 6 8 9 9 11 12 13 13 13 13 13 13 13 12
-3 -4 -3 -3 -5 -5 -4 -3 -2 -1 6 7 7 7 6 6 4 -0 -1 -1 -2 -3 -3 -3 -4 -6 -6 -6 -6 -8 -7 -5 6 9 9 9 8 8 10 9 9 9 9
-5 -7 -7 -9 -8 -8 -3 1 3 3 3 3 3 4 4 4 -0 -6 -8 -10 -11 -11 -12 -14 -13 -6 -5 -1 0 4 4 4 1 -3 -2 5 6 6 6 6 6 6 7
-7 -5 -9 -4 -6 -1 2 2 2 1 -0 2 3 3 2 2 2 -12 -14 -16 -18 -19 -21 -12 1 2 2 2 2 2 3 3 4 5 6 5 5 4 5 5 7 8 8
3 2 1 0 2 1 2 -3 -7 -10 -10 -8 -7 -8 -8 -10 -12 -15 -18 -19 -20 -19 -5 -1 1 -0 1 1 2 2 2 3 4 2 3 3 3 3 4 3 3 3 4
0 0 0 -3 -1 -0 0 1 0 -8 -11 -11 -11 -12 -13 -15 -16 -17 -17 -16 -14 -5 -0 0 1 1 1 1 1 1 -1 -1 -6 -3 2 1 2 3 3 3 3 3 3
-5 -2 -0 -2 -2 -2 -2 -1 -1 -0 0 -1 -11 -13 -15 -15 -16 -15 -14 -6 -1 -1 -2 -1 -0 -0 -0 0 0 1 1 1 1 -0 0 1 1 2 2 2 3 3 3
-5 -1 -4 -2 -3 -3 -3 -2 -3 -3 -3 -2 -1 -6 -12 -13 -12 -12 -10 -1 -1 -2 -2 -1 -1 -1 -0 -0 0 0 0 -0 -1 -0 -1 -0 -0 0 0 1 1 1 2
-0 -2 -3 -3 -3 -3 -4 -4 -5 -4 -3 -3 -3 -3 -3 -3 -2 -1 -1 -1 -2 -2 -1 -1 -1 -1 -0 -0 -0 -0 -1 -1 -1 -1 -1 -1 -1 -1 -1 -1 -1 -0 -0
-0 -1 -7 -4 -4 -4 -4 -4 -5 -5 -5 -4 -4 -3 -13 -3 -3 -3 -3 -2 -2 -2 -1 -1 -1 -1 -1 -1 -1 -1 -2 -2 -2 -2 -2 -2 -2 -2 -1 -1 -1 -1 -1
-1 -1 -5 -4 -3 -3 -3 -4 -4 -4 -5 -5 -5 -5 -9 -13 -4 -3 -3 -2 -2 -2 -2 -1 -2 -2 -2 -2 -2 -2 -2 -2 -2 -2 -2 -2 -2 -2 -2 -3 -2 -2 -2
-1 -1 -2 -3 -3 -3 -2 -3 -3 -3 -3 -3 -4 -4 -4 -5 -4 -4 -3 -3 -2 -2 -2 -2 -2 -2 -2 -2 -2 -2 -3 -3 -3 -4 -6 -5 -5 -4 -3 -2 -2 -2 -2
-0 -1 -1 -1 -1 -2 -2 -2 -2 -2 -2 -2 -2 -3 -4 -3 -4 -4 -3 -3 -3 -3 -3 -3 -2 -2 -2 -2 -2 -2 -3 -5 -5 -5 -5 -3 -2 -2 -2 -2 -2 -1 -1
1 -0 -0 -0 -0 -0 -1 -2 -1 -1 -1 -2 -3 -2 -2 -3 -3 -3 -4 -4 -3 -3 -3 -3 -3 -3 -2 -2 -2 -2 -4 -5 -5 -4 -2 -2 -2 -2 -1 -1 -1 -1 -1
2 1 1 1 0 0 -0 -0 -1 -1 -1 -1 -1 -2 -2 -2 -2 -2 -3 -3 -4 -4 -4 -4 -3 -2 -2 -2 -3 -6 -5 -5 -4 -3 -2 -2 -2 -2 -2 -1 -1 -1 -1

GFSGL_850_dewp_102.txt.gz
Dewpoint
17 17 16 15 16 13 13 14 16 16 15 14 16 16 16 14 14 14 13 15 16 15 13 15 15 15 11 10 14 13 15 14 14 15 14 13 12 13 13 15 14 14 14
12 14 15 15 15 16 16 15 16 16 15 15 14 15 15 16 16 16 13 14 16 15 15 14 14 14 16 15 11 13 14 13 15 14 14 14 13 11 12 13 13 14 14
12 12 14 16 15 15 16 14 15 16 15 15 16 15 14 14 14 15 15 15 14 15 15 16 16 15 15 15 14 14 14 14 14 13 13 13 12 13 13 13 14 13 12
12 14 14 14 14 14 14 15 15 14 15 15 13 15 15 14 15 15 16 14 14 15 16 15 16 16 14 15 15 15 14 15 15 15 16 15 14 15 15 15 15 16 15
14 14 14 13 13 13 13 14 14 13 13 12 15 15 16 16 16 14 14 15 15 15 15 16 17 16 16 15 15 14 14 15 14 16 14 13 14 14 13 14 13 13 11
14 14 15 15 14 13 13 13 13 14 13 13 12 15 14 14 14 14 13 14 15 16 15 14 14 14 14 14 14 15 14 13 12 12 11 12 11 11 11 11 11 13 13
15 16 15 15 15 14 14 15 15 14 13 11 11 11 9 12 12 12 12 13 13 13 13 13 14 15 15 15 15 14 12 13 14 15 15 16 15 13 13 12 13 13 13
16 16 15 16 15 14 14 14 14 14 14 13 13 10 13 13 12 12 12 13 13 13 14 14 14 13 12 12 13 14 13 13 13 15 15 15 15 14 15 14 13 13 13
16 16 15 15 14 14 14 14 14 13 14 14 14 13 13 12 12 12 11 13 15 16 14 14 13 13 12 12 13 13 12 13 13 13 13 13 13 13 13 14 13 14 15
15 15 15 15 15 15 14 13 14 13 14 14 15 14 13 12 11 12 12 11 13 13 12 13 12 12 12 11 11 10 10 11 12 12 13 12 12 13 13 14 14 16 16
14 14 14 14 14 13 13 13 14 13 14 14 14 14 13 13 12 11 11 11 12 12 12 12 12 12 11 11 9 8 7 8 9 9 9 12 13 13 13 13 14 13 13
13 12 13 13 13 12 12 12 12 12 12 13 13 12 10 10 9 9 9 7 7 6 6 8 10 11 9 6 7 10 8 4 -3 -1 8 11 11 11 12 11 12 11 8
2 3 7 1 -1 -1 0 1 2 4 8 8 8 7 8 8 7 4 -1 -1 -1 -2 -3 -6 -6 -7 -9 -11 -7 -1 -0 -2 -2 -3 -1 3 3 4 4 4 4 5 5
-6 -5 -6 -8 -8 -8 -6 -6 2 4 3 -0 4 5 5 5 2 -4 -7 -9 -11 -11 -13 -15 -14 -5 -0 2 3 3 3 4 4 5 5 5 5 4 4 5 5 6 6
-7 -8 -8 -7 -7 -7 -3 -1 0 3 2 3 4 4 4 4 3 -1 -11 -16 -17 -19 -20 -18 -3 2 2 3 3 3 3 3 1 1 0 -2 -0 -1 0 1 1 2 2
-1 -1 -1 1 1 0 2 -1 -0 -5 -6 -0 2 2 -0 -3 -3 -5 -14 -18 -20 -21 -10 -2 -3 -4 -4 -3 -7 -5 0 -1 -2 -7 -10 -7 -5 -4 -4 0 3 3 4
2 2 2 1 1 1 2 2 2 -1 -4 -12 -11 -8 -10 -12 -13 -16 -17 -18 -16 -4 0 1 2 2 2 1 1 -0 -2 -4 -2 -6 -7 -6 -4 -4 -5 -4 -2 0 1
-7 -2 1 0 -3 -1 0 0 0 1 -1 0 -1 -11 -14 -15 -15 -16 -13 -4 -2 -2 -1 0 0 0 1 0 -0 -1 -2 -1 -3 -4 -2 -1 -1 -2 -1 -1 -1 -1 -2
-5 0 -2 -2 -1 -1 -2 -1 -1 -2 -1 1 -1 -4 -12 -14 -13 -13 -2 -0 -1 -1 -1 -0 -0 0 0 0 -1 -1 -2 -1 -1 -1 -1 -1 -1 -1 -2 -2 -2 -1 -1
-2 -1 -1 -2 -1 -2 -2 -2 -3 -3 -3 -2 -1 0 -3 -5 -2 -1 -2 -1 -1 -1 -0 -0 0 0 0 -1 -1 -2 -1 -1 -1 -1 -1 -2 -3 -4 -4 -4 -4 -5 -4
3 2 -4 -5 -2 -2 -3 -3 -4 -4 -3 -3 -2 -2 -3 -5 -1 -2 -2 -1 -1 -1 -0 -0 -0 -0 -1 -1 -2 -3 -3 -3 -3 -4 -5 -6 -7 -7 -7 -6 -5 -4 -4
3 1 0 -5 -4 -3 -3 -3 -3 -3 -4 -4 -3 -4 -5 -10 -4 -3 -2 -2 -1 -2 -1 -2 -1 -1 -1 -3 -5 -6 -4 -4 -4 -7 -8 -8 -8 -7 -6 -5 -5 -4 -3
4 1 -0 -1 -4 -3 -3 -3 -3 -3 -3 -4 -4 -4 -4 -8 -3 -3 -3 -2 -2 -1 -1 -2 -2 -2 -2 -4 -2 -2 -2 -4 -6 -7 -7 -6 -6 -6 -5 -4 -3 -3 -2
5 3 -0 -0 -2 -2 -2 -2 -2 -3 -3 -3 -2 -3 -3 -4 -4 -3 -3 -2 -2 -2 -2 -2 -2 -3 -2 -2 -2 -2 -4 -5 -7 -6 -6 -5 -5 -4 -3 -2 -2 -2 -2
7 4 2 -0 -0 -1 -1 -1 -2 -2 -2 -1 -1 -2 -2 -2 -2 -2 -3 -3 -3 -3 -2 -3 -2 -3 -2 -2 -2 -2 -6 -6 -6 -5 -5 -4 -3 -2 -1 -1 -1 -2 -2
6 6 3 1 1 1 1 -0 -1 -1 -1 -1 -1 -2 -1 -1 -2 -2 -2 -3 -3 -3 -3 -3 -3 -3 -2 -2 -2 -3 -5 -6 -5 -5 -3 -2 -1 -1 -2 -2 -2 -2 -2

GFSGL_850_dewp_105.txt.gz
Dewpoint
15 16 15 12 11 13 14 15 14 12 14 11 12 14 14 14 14 15 14 13 16 16 13 12 15 15 14 11 9 12 12 13 15 14 13 14 13 12 12 12 12 13 14
17 16 16 12 13 14 15 14 14 12 13 13 14 13 15 16 16 16 15 14 13 15 15 14 13 12 13 12 14 14 14 15 14 14 13 13 12 14 13 13 14 14 15
15 15 15 14 14 13 15 15 15 13 13 14 13 14 14 15 15 15 15 15 14 14 16 15 16 15 15 15 14 13 13 12 13 12 12 12 15 15 15 15 15 14 14
14 13 14 14 14 14 14 14 14 13 14 15 14 13 15 15 14 15 14 15 14 15 14 15 15 15 15 15 14 14 14 14 14 14 14 14 14 14 14 12 12 12 11
14 13 12 13 14 14 14 13 13 14 15 13 15 15 16 14 13 14 13 14 15 14 14 15 15 15 15 15 15 15 15 14 12 12 11 11 10 10 10 10 11 10 8
14 13 13 13 14 13 14 13 13 13 14 13 12 13 14 14 13 13 13 14 13 14 15 15 14 14 14 12 13 14 13 13 13 13 13 13 14 14 13 12 12 12 12
14 14 14 15 15 15 14 14 14 14 14 14 14 13 10 9 8 11 12 13 14 14 13 12 13 12 12 13 13 13 14 13 12 13 13 14 15 14 13 12 13 13 13
16 16 16 16 16 15 15 14 14 14 14 14 12 11 10 8 11 12 12 12 12 13 13 12 12 13 14 13 13 12 13 13 12 12 13 12 13 13 13 13 13 14 15
16 16 16 16 15 15 14 14 13 14 15 14 14 14 14 13 12 12 12 12 13 13 13 14 13 13 12 12 12 13 12 12 12 13 14 14 13 13 14 14 14 14 15
16 16 15 15 14 14 14 14 14 14 13 14 13 13 13 13 13 12 12 12 12 12 12 12 13 12 12 11 10 10 10 9 9 10 11 12 13 13 14 14 14 13 11
15 15 15 15 14 14 14 13 13 14 13 14 14 13 13 13 13 12 11 11 12 12 12 12 12 12 11 11 11 10 10 10 10 4 2 9 12 11 10 9 9 9 8
14 14 14 14 14 14 13 13 13 13 13 13 13 13 12 11 10 10 9 9 8 8 7 7 5 5 4 -1 -7 -6 -5 -5 -5 -3 -2 0 5 9 10 10 7 6 6
12 12 11 12 12 12 12 11 10 11 12 12 11 9 9 9 8 7 4 -2 -1 -3 -5 -6 -8 -9 -9 -2 2 3 1 -0 1 -1 -2 -1 -0 0 -2 -6 -5 -3 2
-0 -0 3 2 -3 -5 -5 -5 -3 -3 -0 2 5 6 6 6 5 2 -3 -11 -11 -12 -14 -15 -12 -8 -4 -0 2 3 1 2 2 2 1 2 2 -3 -9 -8 -10 -13 -14
-5 -5 -5 -6 -7 -7 -6 -5 -4 -1 2 4 2 2 3 3 3 2 -1 -6 -17 -18 -19 -17 -7 -1 2 3 3 3 2 2 1 -1 -5 -11 -12 -13 -12 -10 -9 -8 -4
-6 -7 -7 -6 -3 -4 -7 -7 -5 -2 1 1 2 3 4 3 3 -1 -9 -14 -18 -20 -16 -8 -2 -4 -5 -3 -2 -5 -6 -4 -7 -9 -10 -10 -11 -11 -10 -10 -10 -9 -10
1 3 2 1 2 1 1 -1 -0 -2 -3 -4 -9 -13 -6 -3 -5 -13 -15 -18 -18 -2 2 2 2 1 1 1 -1 -3 -4 -7 -8 -8 -8 -8 -9 -9 -10 -10 -9 -9 -10
-5 0 2 2 -1 0 1 1 0 0 0 -1 -2 -3 -8 -15 -15 -15 -17 -10 -4 -0 0 1 1 0 -1 -2 -4 -5 -5 -5 -6 -6 -6 -7 -8 -8 -9 -9 -9 -9 -10
-4 -6 -5 -1 -0 -2 -1 -1 -0 -1 -1 0 -0 -2 -6 -16 -16 -15 -3 0 0 -0 -1 -1 -0 -1 -1 -2 -3 -4 -4 -3 -4 -5 -6 -7 -9 -10 -11 -11 -10 -10 -9
-2 -3 -3 -2 -3 -2 -1 -2 -2 -1 -2 -2 -2 -2 -2 -12 -9 -10 -3 -1 -1 -1 -1 -1 -1 -2 -3 -5 -5 -6 -7 -7 -8 -8 -9 -9 -10 -10 -9 -9 -8 -7 -7
5 -2 -2 -1 -3 -3 -4 -6 -4 -3 -3 -3 -2 -2 -2 -3 -2 -0 -1 -2 -1 -1 -1 -2 -2 -3 -4 -5 -6 -8 -8 -8 -9 -8 -9 -10 -9 -8 -7 -7 -6 -6 -5
7 4 2 1 -3 -2 -2 -5 -4 -4 -4 -4 -3 -3 -2 -3 -3 -1 -2 -2 -2 -2 -2 -3 -3 -1 -2 -3 -5 -7 -8 -9 -7 -8 -9 -9 -8 -7 -7 -6 -5 -5 -4
7 6 4 3 1 -2 -3 -3 -3 -3 -4 -4 -4 -3 -4 -4 -5 -3 -2 -2 -2 -2 -2 -2 -3 -2 -2 -3 -4 -5 -6 -6 -7 -9 -9 -8 -7 -7 -5 -5 -4 -3 -3
5 7 5 3 2 0 -3 -3 -3 -3 -3 -3 -3 -4 -4 -3 -8 -3 -3 -3 -2 -2 -2 -2 -3 -3 -3 -4 -4 -5 -7 -7 -7 -8 -8 -7 -6 -5 -3 -3 -2 -2 -2
5 5 6 6 1 -0 0 -2 -2 -2 -2 -2 -3 -3 -2 -3 -3 -4 -3 -3 -3 -2 -3 -3 -3 -3 -3 -2 -3 -3 -5 -5 -7 -7 -7 -6 -4 -2 -2 -2 -2 -2 -3
2 3 5 6 5 2 2 -1 -1 -1 -2 -2 -2 -2 -1 -2 -2 -2 -2 -3 -3 -3 -3 -3 -3 -3 -3 -3 -3 -4 -4 -5 -7 -6 -6 -5 -2 -2 -2 -2 -3 -2 -2

GFSGL_850_dewp_108.txt.gz
Dewpoint
12 12 14 14 14 15 15 14 13 13 13 13 12 13 13 15 15 14 15 15 14 13 14 14 13 14 15 15 14 15 15 15 14 14 13 13 12 11 12 12 13 12 13
13 14 14 15 14 14 14 13 12 11 13 14 14 14 14 14 14 15 14 13 13 13 14 14 13 13 12 12 13 12 13 14 14 14 13 13 12 12 15 15 15 14 15
14 15 16 14 11 12 13 13 14 14 13 12 14 14 14 15 15 15 15 14 14 14 13 14 14 15 14 15 15 14 14 13 13 13 13 13 15 14 15 14 12 12 13
13 15 15 14 14 14 14 13 14 14 14 12 13 14 14 15 15 14 14 14 14 15 15 14 14 15 15 14 14 14 14 14 14 13 13 13 13 13 12 11 10 9 9
12 14 14 14 13 13 14 14 14 14 14 13 15 15 13 13 14 13 13 13 13 13 13 14 14 15 15 13 14 14 14 13 13 13 12 11 11 11 12 11 11 10 9
14 14 14 13 13 14 14 14 14 13 13 15 15 14 13 13 13 13 13 13 13 13 14 14 14 12 13 13 12 12 14 13 13 12 12 12 12 13 14 13 12 12 11
15 15 14 14 14 14 14 14 13 13 13 13 14 14 13 12 10 8 10 12 13 13 13 13 12 12 12 12 13 13 13 13 13 12 12 12 12 13 13 12 12 13 14
16 15 15 14 14 14 14 14 13 13 14 14 14 14 12 11 9 9 8 12 12 12 13 13 13 12 12 13 13 13 13 13 13 13 13 13 13 14 13 12 13 14 14
16 15 15 15 15 15 15 14 14 14 14 14 14 13 12 12 12 12 12 13 13 13 13 13 13 13 13 12 12 12 12 12 13 13 13 13 13 13 13 14 14 14 13
16 16 16 16 16 15 14 14 14 13 13 14 14 14 14 13 13 12 12 11 12 12 13 13 13 13 13 12 11 11 10 8 8 7 9 11 12 13 12 12 11 11 10
16 16 16 15 15 14 14 14 14 13 14 13 14 13 13 13 12 12 12 12 11 12 12 12 12 12 11 11 11 10 8 8 8 9 8 4 10 11 10 9 8 8 8
15 15 15 15 15 14 14 13 13 14 14 14 13 13 13 12 10 10 10 10 9 8 8 7 6 5 4 3 0 -2 -4 -4 -4 -4 -3 -2 0 3 4 4 4 4 5
14 14 14 14 14 14 13 13 12 13 13 13 13 13 11 10 9 8 4 2 -1 2 -0 -3 -5 -7 -7 -7 -2 -0 -0 2 2 0 -1 -1 -0 1 -0 -1 -2 -2 -2
11 10 9 9 10 10 10 9 8 10 11 11 10 9 8 7 6 3 -0 -8 -13 -12 -13 -13 -11 -6 -1 0 1 2 3 2 1 -1 -1 -3 -5 -9 -12 -15 -17 -18 -16
-4 -4 -4 -3 -3 -5 -5 -5 -3 0 1 1 1 4 5 4 4 3 2 -3 -9 -17 -17 -6 -1 1 2 3 3 3 2 2 1 -1 -7 -12 -14 -14 -14 -14 -13 -13 -14
-6 -7 -7 -6 -6 -5 -6 -6 -4 -3 1 2 2 2 3 4 4 3 2 -6 -15 -18 -13 -3 -1 -1 -1 1 1 -0 -3 -6 -8 -10 -11 -10 -11 -11 -12 -12 -13 -14 -14
-2 -0 0 -0 0 1 -0 -0 -1 -1 -3 -5 -4 -5 -10 -10 -4 -1 -3 -13 -17 -14 -3 0 -0 0 -0 -1 -1 -2 -4 -7 -7 -8 -9 -10 -10 -11 -13 -14 -14 -14 -14
-2 -2 0 1 1 -1 -1 0 0 -0 -1 -0 -1 -1 -3 -6 -11 -15 -14 -16 -8 0 2 2 1 1 0 -1 -3 -5 -7 -8 -8 -9 -10 -11 -13 -13 -13 -13 -13 -12 -12
4 -2 -4 1 1 0 -2 -1 0 0 -0 -1 -1 -1 -2 -5 -14 -15 -11 -6 -3 0 0 0 0 -0 -1 -2 -4 -6 -6 -8 -9 -9 -10 -11 -12 -13 -12 -12 -11 -11 -10
6 5 -2 -5 -4 -2 -1 -2 -1 -1 -1 -1 -2 -1 -2 -6 -13 -11 -1 -0 0 0 -0 -1 -1 -1 -2 -3 -5 -6 -7 -8 -9 -10 -11 -12 -12 -11 -11 -11 -10 -9 -9
8 7 7 -0 -2 -2 -2 -3 -2 -2 -2 -2 -3 -2 -2 -2 -3 -7 -3 -2 -1 -1 -1 -1 -1 -2 -4 -5 -5 -7 -9 -10 -10 -10 -11 -12 -11 -10 -9 -8 -8 -8 -7
7 8 7 6 5 -0 -2 -3 -2 -5 -4 -3 -3 -3 -3 -2 -3 -4 -2 -2 -2 -2 -3 -3 -3 -4 -4 -4 -5 -7 -9 -9 -10 -10 -12 -11 -9 -8 -7 -7 -7 -7 -5
3 5 6 6 6 4 2 -1 -3 -3 -4 -4 -3 -4 -4 -3 -3 -4 -2 -2 -2 -2 -3 -3 -3 -4 -4 -4 -5 -7 -7 -7 -9 -11 -11 -9 -8 -7 -7 -6 -6 -5 -5
3 3 3 5 7 5 5 2 -1 -3 -3 -3 -3 -3 -4 -4 -4 -4 -3 -2 -2 -3 -3 -3 -3 -3 -4 -5 -6 -6 -5 -7 -9 -10 -9 -8 -7 -7 -6 -5 -5 -4 -3
5 4 3 3 4 5 4 3 1 -3 -3 -3 -3 -3 -3 -3 -3 -4 -5 -3 -3 -3 -3 -3 -3 -4 -4 -5 -5 -5 -4 -6 -7 -9 -8 -6 -6 -6 -6 -4 -3 -4 -3
4 4 3 2 1 3 5 4 2 -3 -2 -2 -2 -2 -2 -3 -2 -2 -3 -4 -3 -3 -3 -3 -3 -3 -3 -3 -4 -4 -4 -6 -6 -8 -9 -6 -5 -5 -5 -4 -3 -3 -2

GFSGL_850_dewp_111.txt.gz
Dewpoint
13 12 14 14 14 14 14 15 14 14 14 13 14 15 14 14 14 15 14 14 14 14 13 14 13 14 14 14 14 13 13 14 14 14 13 13 13 12 11 10 11 13 13
14 14 15 14 14 15 14 15 14 13 13 13 13 14 14 14 14 15 14 15 15 14 13 14 14 13 13 13 14 15 15 14 14 14 14 13 12 12 13 14 13 14 14
15 14 13 13 14 13 14 13 13 12 13 13 13 14 15 15 15 15 15 15 14 13 13 13 13 14 14 15 15 15 14 15 15 14 15 14 14 15 14 14 13 12 10
14 14 14 14 15 14 14 13 13 14 14 13 12 11 14 14 14 14 15 14 14 14 14 14 14 14 14 13 13 14 14 14 14 14 14 13 12 12 11 12 11 10 9
14 14 14 14 14 15 13 14 14 14 14 14 13 13 14 13 14 15 14 14 14 14 14 13 13 12 12 14 13 13 14 14 13 13 13 12 13 13 14 14 13 12 11
14 14 14 14 14 14 14 14 14 15 14 14 14 14 14 14 13 13 13 13 13 14 14 13 13 13 13 12 12 12 13 13 13 13 12 11 12 12 12 13 12 11 11
14 14 14 15 15 14 14 14 15 14 14 13 13 14 15 14 12 12 11 12 13 13 12 12 12 12 12 12 12 12 13 12 12 13 13 13 13 13 13 12 12 12 13
14 15 14 15 14 14 14 14 14 14 13 14 14 14 14 14 14 12 11 9 10 13 12 13 14 14 13 12 12 13 13 13 13 13 13 13 13 13 13 12 13 14 13
15 15 15 14 14 14 15 14 14 14 13 14 14 14 13 12 12 11 10 12 12 12 12 12 13 13 13 13 13 13 12 12 12 12 11 11 12 12 12 12 13 13 12
11 15 15 15 15 15 15 15 14 14 14 14 14 14 14 14 13 12 12 12 12 12 13 13 14 13 13 12 12 11 11 10 8 7 8 10 11 12 11 11 11 10 10
16 15 15 15 16 15 15 14 14 14 14 14 14 14 14 14 13 12 12 12 12 12 12 12 12 12 12 11 11 11 9 8 8 8 8 6 8 9 9 9 8 7 7
15 15 15 15 15 15 14 14 14 14 14 14 14 14 13 13 11 10 10 11 10 10 10 10 10 9 7 6 4 1 -1 -2 -2 -2 -2 -2 0 1 1 1 1 1 1
14 14 14 14 14 15 14 14 13 14 14 13 13 13 13 12 10 9 7 2 3 3 5 4 2 1 -1 -3 -3 -1 1 2 3 1 0 -1 -3 -4 -5 -4 -5 -6 -4
13 13 13 13 13 13 13 12 12 13 13 13 13 12 11 9 8 6 2 -1 -9 -13 -10 -10 -9 -8 -5 -2 2 3 4 3 2 1 -1 -4 -7 -10 -13 -15 -14 -14 -14
5 6 6 4 2 0 1 2 4 4 6 8 7 5 4 4 4 3 2 1 -4 -12 -16 -16 -6 -1 1 2 3 3 3 2 1 -1 -5 -9 -11 -12 -13 -14 -14 -15 -17
-5 -5 -5 -5 -5 -6 -5 -4 -3 -2 -0 1 2 2 2 2 3 3 3 3 -0 -14 -13 -6 -2 1 2 3 2 1 -0 -3 -6 -8 -9 -10 -11 -13 -14 -15 -16 -17 -17
-2 -1 -1 -2 -2 -1 -1 -2 -1 -1 -2 -4 -4 -4 -5 -7 -10 -10 -6 -2 -4 -14 -10 -3 -1 -0 -1 -1 -1 -1 -3 -5 -8 -8 -9 -11 -13 -14 -15 -15 -15 -15 -15
-0 -0 -1 -1 0 0 -1 0 1 1 -0 -1 -1 -1 -1 -3 -5 -10 -13 -13 -13 -11 -4 1 1 1 1 -0 -1 -3 -5 -6 -6 -8 -10 -12 -13 -14 -14 -15 -15 -14 -14
6 6 3 -2 -3 -2 -1 -1 -2 -1 0 -0 -1 -1 -1 -3 -5 -11 -14 -12 -8 -2 2 2 1 1 -0 -1 -2 -4 -6 -6 -8 -10 -12 -13 -14 -14 -14 -14 -13 -13 -12
8 8 7 6 3 -3 -4 -2 -1 -2 -1 -1 -1 -2 -2 -3 -5 -13 -9 -5 -2 0 1 0 -0 -1 -1 -2 -3 -5 -7 -8 -10 -11 -12 -14 -14 -14 -13 -12 -11 -11 -10
7 7 8 7 7 6 -1 -2 -2 -2 -1 -2 -2 -2 -2 -2 -3 -4 -7 -2 -0 0 -0 -0 -1 -1 -2 -3 -5 -6 -7 -9 -10 -11 -12 -14 -13 -12 -11 -10 -9 -8 -7
2 3 4 5 6 7 7 6 1 -3 -3 -3 -5 -3 -2 -2 -2 -3 -4 -4 -3 -2 -2 -3 -3 -4 -4 -5 -5 -6 -7 -9 -10 -12 -13 -13 -11 -10 -8 -8 -8 -7 -6
-0 1 2 2 4 5 7 6 4 2 -1 -2 -4 -4 -3 -3 -3 -2 -4 -3 -2 -2 -2 -3 -3 -4 -4 -5 -5 -6 -8 -9 -10 -11 -12 -11 -9 -8 -7 -7 -6 -5 -5
0 1 3 3 3 2 2 4 6 4 5 -0 -2 -4 -4 -4 -3 -2 -4 -4 -1 -2 -2 -3 -3 -4 -5 -6 -6 -7 -6 -7 -9 -10 -11 -10 -8 -7 -6 -6 -4 -4 -4
-1 1 4 5 4 3 2 0 0 5 5 4 -1 -3 -3 -3 -3 -3 -4 -4 -2 -2 -3 -3 -3 -3 -4 -4 -4 -5 -5 -5 -7 -8 -10 -9 -6 -5 -6 -5 -4 -3 -3
-2 -0 3 5 4 4 2 0 1 2 4 4 2 -2 -2 -3 -3 -3 -3 -3 -4 -3 -3 -3 -2 -2 -2 -3 -3 -4 -4 -4 -6 -7 -8 -10 -7 -5 -5 -4 -4 -3 -3

GFSGL_850_dewp_114.txt.gz
Dewpoint
12 13 13 13 14 15 14 14 14 14 14 14 14 13 14 15 14 14 14 14 14 14 14 14 14 13 13 14 14 14 13 13 14 13 13 13 13 13 13 13 13 14 13
13 14 13 13 13 14 12 14 14 14 14 14 13 14 14 14 14 14 14 14 15 14 15 14 14 15 13 13 13 14 14 14 14 14 12 12 12 13 15 14 14 14 13
13 14 14 13 13 13 13 13 13 14 15 12 13 13 13 13 13 14 14 14 14 14 14 13 12 13 14 14 15 15 15 14 14 14 14 14 13 13 13 13 12 12 11
14 14 14 13 13 14 13 12 12 12 13 14 14 13 13 14 14 14 14 14 14 14 14 14 14 14 14 14 15 14 14 14 14 14 14 14 13 13 13 13 11 11 11
14 14 14 14 13 14 13 14 13 13 14 14 14 13 12 13 13 13 15 14 14 14 14 14 14 14 13 13 14 13 12 13 13 14 14 13 12 12 12 12 12 12 11
12 14 15 14 13 14 14 14 14 14 15 14 14 14 14 14 14 13 13 14 13 13 13 14 14 13 13 13 12 12 13 12 12 13 13 13 13 12 12 13 12 12 12
15 15 14 14 14 14 14 14 14 14 15 15 14 13 13 14 14 14 12 13 13 13 14 14 13 13 13 14 12 12 11 12 13 13 13 13 13 12 12 12 12 12 13
14 14 14 15 14 14 15 14 15 15 14 14 14 14 14 14 14 14 13 10 9 11 12 12 12 12 12 13 13 12 12 13 13 13 13 13 12 12 11 11 12 13 13
15 14 14 12 12 14 14 14 14 14 14 14 14 14 14 14 13 12 11 11 11 11 13 13 13 12 12 13 13 13 12 12 12 12 11 11 11 11 11 11 11 12 11
14 15 16 15 14 14 15 15 15 14 14 14 14 14 14 13 13 13 12 12 12 13 13 13 13 13 13 13 12 11 11 10 10 8 8 8 9 9 9 9 10 10 9
13 13 14 15 14 15 15 15 14 14 14 14 14 14 14 14 14 13 13 12 12 12 12 12 12 13 12 12 11 11 11 9 8 8 7 7 8 8 7 6 6 5 4
15 14 12 13 14 15 15 14 14 14 14 14 14 13 14 14 12 11 10 10 11 11 11 11 11 11 11 9 7 4 1 -0 0 1 2 2 1 0 -0 -1 -2 -3 -5
14 14 13 12 14 14 14 14 14 14 14 14 14 13 13 13 12 10 9 6 4 5 7 7 6 6 4 1 -1 -1 -0 2 4 3 2 0 -2 -4 -7 -9 -9 -9 -9
13 13 13 13 13 13 13 13 13 13 14 14 13 13 12 11 9 8 5 1 -2 -8 -11 -9 -6 -6 -5 -5 -1 2 4 4 3 2 0 -2 -6 -9 -11 -12 -12 -13 -13
10 9 8 7 6 7 8 9 10 11 12 12 11 10 6 5 6 6 3 2 1 -3 -11 -12 -10 -6 -1 1 2 3 3 2 2 0 -3 -7 -10 -11 -13 -15 -15 -17 -17
-5 -5 -5 -5 -5 -5 -4 -4 -2 -1 1 1 1 1 2 2 2 3 3 3 2 1 -5 -11 -4 1 3 3 3 2 1 -1 -4 -6 -7 -9 -10 -12 -14 -15 -16 -16 -17
-1 0 0 -0 -1 -1 -1 -2 -1 -1 -2 -3 -3 -4 -3 -4 -5 -7 -8 -10 -8 -3 -4 -10 -1 1 2 1 -1 -1 -2 -3 -5 -7 -8 -10 -12 -14 -15 -15 -16 -16 -16
2 3 3 -0 -1 -0 -1 -2 -2 -1 0 -1 -2 -2 -2 -2 -3 -4 -7 -11 -13 -12 -11 -10 -1 1 0 1 -1 -2 -4 -5 -6 -7 -10 -12 -13 -14 -14 -15 -15 -15 -14
7 7 7 6 4 1 -2 -2 -2 -2 -3 -0 -1 -2 -2 -2 -3 -5 -9 -13 -15 -14 -9 -3 2 1 1 -1 -2 -3 -5 -6 -7 -9 -11 -13 -13 -14 -14 -14 -13 -13 -12
8 8 8 7 8 7 7 4 -2 -2 -2 -2 -2 -2 -2 -2 -2 -4 -8 -13 -9 -6 -1 3 2 1 -1 -1 -2 -4 -6 -7 -9 -11 -12 -13 -14 -14 -12 -12 -11 -10 -10
5 5 6 6 6 7 7 7 6 1 -1 -2 -2 -3 -3 -2 -1 -3 -4 -7 -5 -1 1 1 -0 -1 -1 -3 -4 -5 -6 -8 -9 -11 -12 -14 -13 -12 -11 -10 -10 -9 -8
2 1 1 1 2 3 4 6 7 7 6 1 -2 -2 -3 -3 -2 -2 -3 -4 -4 -1 -0 -1 -2 -4 -5 -5 -5 -5 -7 -8 -10 -11 -12 -13 -12 -11 -10 -9 -8 -7 -7
-8 -7 -5 -4 0 2 2 3 5 5 7 6 4 -1 -2 -4 -3 -2 -2 -3 -4 -3 -2 -2 -4 -4 -4 -4 -4 -5 -7 -8 -9 -11 -12 -13 -11 -9 -8 -8 -7 -6 -6
-6 -7 -7 -2 -0 3 3 2 2 1 1 2 5 5 4 -3 -4 -3 -2 -2 -4 -3 -1 -2 -3 -3 -4 -5 -5 -7 -7 -7 -9 -10 -11 -11 -9 -8 -7 -6 -5 -5 -4
-4 -3 -4 -4 -1 3 4 4 3 2 1 -1 0 3 5 3 -3 -3 -3 -1 -3 -3 -1 -2 -3 -3 -5 -4 -4 -5 -6 -6 -6 -8 -9 -10 -8 -6 -5 -5 -5 -4 -4
-4 -3 -2 -2 0 3 4 4 3 2 0 -0 1 2 5 3 -0 -2 -2 -2 -3 -4 -2 -2 -3 -2 -2 -3 -3 -4 -4 -4 -5 -7 -7 -9 -10 -7 -5 -4 -4 -4 -4

GFSGL_850_dewp_117.txt.gz
Dewpoint
13 12 13 14 12 14 15 14 14 14 14 14 14 14 14 14 14 14 14 14 14 14 13 13 13 13 13 13 14 14 14 13 15 14 14 13 11 12 13 13 14 14 15
12 12 12 13 13 14 13 14 13 14 14 14 14 14 13 13 14 14 14 14 13 13 14 13 14 14 14 14 13 13 13 14 15 16 16 16 13 13 13 14 14 15 12
12 12 12 13 13 13 14 14 13 14 14 14 13 13 13 14 14 14 13 13 13 14 14 14 13 13 13 14 13 14 14 15 14 14 15 14 13 12 12 11 12 12 13
12 12 13 14 13 13 14 14 14 13 13 13 13 13 13 14 13 13 14 14 14 14 14 14 13 14 14 14 14 14 14 14 14 14 15 16 13 13 12 12 13 12 12
13 13 13 14 14 14 14 14 13 13 12 12 12 13 14 13 13 13 13 14 14 14 14 14 14 14 14 14 14 14 14 13 13 13 12 13 13 15 12 14 13 12 13
14 14 14 14 15 14 13 14 14 13 12 13 14 14 14 13 14 14 14 13 14 14 13 14 14 14 14 13 13 13 12 13 13 13 13 13 13 12 12 13 13 14 15
14 14 14 14 15 14 14 13 14 14 14 14 14 14 14 14 13 14 14 13 13 13 13 14 14 13 14 13 13 13 12 12 12 13 13 13 12 12 12 12 12 13 15
14 14 14 15 15 15 14 14 15 14 14 14 14 15 14 13 13 14 14 13 11 10 13 14 13 12 12 11 11 10 12 13 13 13 13 12 12 11 11 11 11 12 12
14 14 15 15 15 15 15 15 14 14 14 14 14 14 14 14 14 14 13 13 12 12 12 12 11 12 12 12 11 12 13 12 11 11 11 10 10 10 9 10 11 12 13
15 15 15 15 15 14 14 14 14 14 15 15 15 14 14 14 13 12 12 12 12 13 13 13 13 13 13 13 13 12 11 11 11 11 10 9 8 8 8 8 9 10 11
14 14 14 14 14 14 13 14 14 15 15 15 14 14 14 14 14 13 13 13 12 12 12 13 13 13 13 13 12 12 11 11 10 9 8 8 7 7 5 3 1 2 2
14 14 14 14 14 13 14 14 14 14 14 14 14 14 14 13 13 13 11 11 11 11 12 12 12 12 12 11 11 9 7 3 2 3 4 3 1 -0 -1 -3 -4 -6 -8
14 14 13 14 12 12 10 13 12 14 14 14 14 14 13 13 12 11 10 9 8 6 6 7 8 7 6 5 3 1 1 2 3 3 3 2 0 -2 -5 -9 -13 -15 -15
13 13 13 13 13 11 11 13 14 14 14 14 14 13 13 12 11 10 8 5 2 -1 -5 -8 -7 -6 -5 -3 -1 0 2 3 4 3 2 0 -2 -6 -10 -11 -12 -12 -13
10 10 11 12 12 12 11 12 12 13 13 13 13 12 11 8 8 7 6 3 2 1 -2 -9 -11 -8 -5 -2 -1 3 3 3 3 2 0 -2 -6 -9 -11 -12 -14 -15 -15
-5 -5 -5 -5 -4 -3 -2 -0 1 2 2 2 2 2 1 2 2 3 3 2 2 2 1 -1 -7 -5 0 2 3 3 3 2 -1 -4 -7 -8 -9 -11 -13 -15 -16 -16 -16
0 0 0 -0 -1 -1 -2 -2 -3 -2 -3 -3 -4 -4 -4 -4 -4 -5 -6 -6 -7 -9 -7 -3 -5 -3 1 2 3 0 -2 -2 -4 -5 -8 -9 -11 -13 -14 -15 -16 -16 -16
5 5 3 0 -1 -1 -1 -1 -2 -2 -2 -1 -1 -2 -3 -3 -4 -4 -5 -8 -10 -12 -13 -6 1 -2 2 2 0 -0 -2 -4 -6 -7 -9 -11 -13 -14 -14 -15 -15 -14 -10
7 7 7 7 7 6 6 5 1 -3 -2 -2 -3 -1 -2 -2 -3 -3 -4 -7 -12 -14 -14 -10 -7 -1 2 1 0 -2 -3 -5 -6 -8 -10 -12 -13 -14 -14 -13 -14 -13 -10
7 7 7 7 6 6 7 7 7 5 1 -1 -1 -2 -1 -2 -2 -2 -3 -5 -10 -12 -10 -7 -3 2 1 0 -1 -2 -4 -6 -7 -9 -11 -12 -14 -14 -13 -12 -9 -3 -3
4 4 4 3 3 3 5 6 6 6 6 6 6 1 -2 -2 -2 -2 -2 -4 -6 -8 -5 -0 2 2 1 -1 -1 -4 -5 -6 -8 -9 -11 -12 -14 -11 -11 -9 -5 -4 -3
-1 -2 -3 -3 -3 1 4 4 5 5 6 5 5 4 2 -1 -2 -3 -2 -2 -4 -6 -2 1 1 0 -1 -4 -5 -5 -5 -6 -8 -9 -10 -12 -12 -9 -6 -4 -2 -2 -2
-11 -10 -9 -5 -4 -3 2 4 5 5 5 5 4 4 4 5 0 -2 -3 -1 -3 -4 -3 -1 -1 -3 -5 -4 -4 -5 -4 -5 -8 -9 -11 -12 -11 -6 -3 -2 -2 -2 -2
-6 -6 -5 -5 -4 -2 4 4 5 4 3 3 4 3 3 2 2 4 2 -2 -1 -3 -3 -2 -2 -3 -4 -4 -4 -4 -6 -7 -8 -9 -10 -8 -4 -8 -2 -2 -1 -2 -2
-6 -5 -5 -4 -3 -2 1 4 5 5 5 5 4 4 3 4 3 1 4 2 -0 -1 -2 -2 -1 -3 -3 -5 -6 -6 -6 -7 -7 -7 -9 -10 -7 -7 -3 -2 -2 -2 -2
-9 -9 -8 -6 -4 -2 -1 1 2 3 3 4 4 4 4 4 4 3 4 1 -0 -0 1 -0 -0 -2 -3 -4 -4 -4 -5 -5 -5 -7 -8 -10 -10 -5 -2 -2 -2 -2 -1

GFSGL_850_dewp_120.txt.gz
Dewpoint
16 16 16 16 16 16 16 16 15 13 14 14 14 14 16 15 16 16 16 16 17 16 16 16 16 16 15 14 14 14 14 14 14 12 13 14 15 16 15 15 14 14 15
16 16 16 16 16 16 14 16 15 14 14 14 14 14 14 16 17 17 15 16 17 17 16 16 16 15 16 15 15 15 15 16 15 15 15 14 16 16 15 13 16 14 15
16 16 16 16 15 16 16 16 16 15 15 16 14 13 13 15 14 14 14 16 16 16 16 16 16 16 16 16 16 16 16 16 16 16 15 15 16 15 15 16 16 15 15
16 16 16 16 16 15 16 16 16 13 13 16 16 16 16 14 16 16 16 15 16 16 17 16 16 16 16 16 16 16 13 14 15 16 16 15 15 15 15 15 14 15 15
15 17 16 16 16 15 16 16 16 15 15 13 12 13 14 16 16 15 15 16 16 16 16 16 14 15 14 14 14 14 13 15 15 15 15 14 13 14 14 14 14 14 15
13 13 16 14 13 13 15 15 15 15 14 15 15 15 13 13 13 13 13 14 14 14 15 16 14 14 14 14 14 13 13 13 13 12 14 15 13 14 16 15 14 14 15
14 14 15 15 15 14 14 15 15 14 14 14 14 14 14 14 14 13 13 14 14 14 13 15 15 15 14 14 14 13 13 12 12 12 12 15 15 15 12 12 16 16 16
14 14 15 15 15 15 15 15 14 14 15 14 14 14 14 15 14 14 12 13 14 14 12 13 14 14 13 13 12 12 11 11 12 13 13 13 13 12 11 13 13 14 13
14 14 14 14 14 14 14 15 15 14 15 15 14 13 14 14 14 14 13 14 14 12 12 11 12 12 11 12 12 12 12 12 12 11 11 11 10 10 9 10 12 12 13
13 12 14 15 15 15 15 15 15 15 15 15 14 14 14 14 14 14 13 13 13 12 12 13 13 12 12 14 14 13 12 12 11 11 10 9 9 8 8 8 8 10 10
14 14 14 14 15 15 15 14 13 14 14 15 15 14 14 13 13 13 13 13 13 12 13 13 12 13 13 13 13 12 12 12 11 9 9 8 7 7 4 -1 -2 -1 5
14 15 14 14 14 13 13 14 14 14 12 13 14 13 13 13 14 13 13 12 11 11 12 12 12 12 12 12 12 11 10 8 9 8 7 6 5 5 -0 -3 -6 -8 -8
15 14 14 14 13 13 13 11 11 12 11 11 12 13 13 13 13 12 12 10 9 7 7 7 7 8 9 8 7 6 3 6 7 5 5 5 2 -0 -3 -5 -10 -15 -17
14 13 13 13 12 11 11 13 13 11 12 13 13 13 13 13 13 12 10 8 6 3 1 -1 -5 -7 -4 -1 -1 -0 1 2 3 5 4 2 0 -1 -4 -8 -8 -5 -2
12 12 12 12 13 12 11 12 13 12 12 12 12 12 12 11 10 9 8 6 4 1 1 -1 -4 -4 3 -4 -1 -1 2 3 4 3 2 1 0 -2 -6 -9 -7 -2 -2
1 -0 -4 -3 -2 -1 3 4 4 4 6 4 4 3 2 1 1 1 2 2 2 1 1 4 4 4 3 4 4 3 4 3 3 1 -2 -5 -1 -3 -4 -3 -6 -3 -2
-0 -0 -1 2 3 2 3 3 2 -2 -2 -3 -3 -4 -4 -4 -5 -5 -5 -5 -6 -7 -8 -3 3 4 3 3 4 4 3 3 -3 -2 0 -0 -1 -2 -8 -2 -2 -3 -2
5 4 5 2 -1 -1 -2 1 3 3 3 3 -2 -2 -3 -4 -4 -5 -5 -6 -8 -7 -10 -3 -0 3 4 4 4 3 3 -0 1 -0 -1 -1 -2 -2 -2 -2 -3 -3 -2
8 8 8 7 6 6 6 6 5 4 2 -0 1 -1 -3 -2 -3 -3 -4 -4 -4 -3 -3 -3 -1 1 3 3 3 3 2 1 0 -1 -1 -2 -2 -2 -2 -3 -3 -7 -7
8 6 6 8 8 7 7 6 5 5 5 5 4 3 4 -1 -2 -2 -2 -3 -1 -1 -1 -0 -0 2 2 4 4 3 1 -2 -3 -2 -2 -2 -2 -2 -3 -2 -3 -2 -2
5 5 3 3 4 4 4 4 5 4 4 4 4 5 4 3 2 2 1 1 1 1 0 1 2 3 4 4 4 3 2 0 -0 -1 -2 -2 -2 -3 -2 -2 -2 -2 -2
-1 -1 -1 -0 1 1 2 2 2 3 3 3 2 2 3 3 3 2 2 2 1 1 2 2 3 3 4 4 3 2 0 -1 -1 -2 -2 -3 -2 -2 -2 -2 -2 -2 -2
-1 -1 -1 -1 0 1 1 1 1 2 2 1 1 1 1 1 1 2 2 2 1 1 2 2 3 2 2 3 1 0 -1 -1 -1 -2 -2 -3 -3 -3 -2 -2 -2 -2 -2
0 0 1 1 2 1 2 2 2 2 3 2 2 2 1 1 1 1 1 2 3 2 1 2 2 1 1 1 0 0 -1 -1 -1 -2 -2 -3 -3 -2 -3 -2 -2 -2 -2
1 1 2 2 2 2 2 2 2 2 2 2 2 2 2 2 1 1 1 2 2 2 2 2 2 2 2 1 -1 -0 -2 -3 -2 -3 -2 -2 -2 -2 -3 -3 -3 -2 -2
2 2 2 2 2 3 2 2 1 1 1 2 2 2 2 3 3 3 3 3 4 4 2 3 2 2 2 2 1 -0 -2 -5 -6 -6 -2 -3 -3 -3 -3 -2 -2 -3 -3

GFSGL_850_dewp_123.txt.gz
Dewpoint
15 15 15 16 16 16 16 16 16 17 15 15 16 16 17 17 16 16 15 15 17 17 17 16 17 16 16 14 14 14 13 12 12 13 13 13 15 15 15 16 14 15 15
15 15 16 16 16 16 16 16 16 16 16 16 17 17 17 17 17 16 16 16 16 17 16 16 16 15 16 17 15 14 14 15 16 14 15 14 14 16 16 12 17 15 16
15 15 16 16 17 16 17 17 17 16 16 17 16 16 16 16 16 17 17 17 17 17 16 16 16 16 16 15 15 16 15 15 15 15 12 15 15 15 16 15 15 15 14
16 15 15 15 16 16 16 17 16 16 17 17 17 16 16 17 17 17 17 17 17 16 16 16 17 16 15 15 15 16 15 13 13 11 13 14 15 16 15 15 15 16 16
16 16 16 16 16 16 17 16 16 17 16 16 16 16 17 17 17 17 16 16 17 17 16 16 16 16 15 14 15 14 14 13 12 16 16 16 15 12 12 13 12 14 15
17 17 17 17 17 17 16 16 16 16 16 16 16 16 16 16 16 16 15 15 16 16 17 16 16 14 14 14 14 14 14 13 13 13 13 15 16 14 13 15 15 15 16
16 17 16 17 17 17 17 16 15 15 16 16 15 14 15 16 15 14 14 13 15 16 16 15 14 16 14 14 14 14 13 14 13 13 12 12 12 12 12 13 15 15 15
15 16 16 16 16 15 15 15 15 15 15 14 14 14 14 15 15 15 15 14 14 14 13 14 13 16 14 14 13 13 12 12 11 12 13 12 13 13 12 12 14 13 14
16 16 16 14 13 13 14 15 15 15 15 15 14 15 15 15 14 14 14 14 13 14 14 13 12 11 14 13 12 12 12 12 12 12 12 11 11 10 10 9 12 13 13
15 14 13 13 14 15 15 15 15 15 15 15 15 15 15 13 14 14 14 14 14 13 12 12 13 13 13 12 13 14 14 13 12 11 11 10 10 10 9 9 9 10 10
14 13 13 13 14 13 13 15 15 14 14 15 14 15 15 14 14 13 13 13 14 14 14 13 12 13 13 13 13 13 13 13 13 12 12 10 9 8 7 3 -1 -2 1
14 14 14 14 13 13 13 14 14 13 13 13 13 13 13 14 14 14 14 13 12 12 13 13 12 12 12 12 12 12 12 11 11 11 10 9 8 6 6 -1 -4 -6 -9
15 14 14 14 14 14 13 11 12 11 11 11 12 12 13 13 12 13 13 12 9 4 8 7 5 5 6 7 9 9 9 6 8 9 8 7 6 5 1 -2 -5 -9 -14
14 14 13 14 14 14 13 13 11 12 12 13 11 10 11 12 13 13 12 9 7 6 4 3 -2 -5 -6 -2 3 -0 3 4 6 7 6 6 4 2 3 2 1 2 0
13 13 13 13 12 12 12 13 13 13 12 12 12 12 12 12 12 10 9 8 7 5 1 1 3 3 4 3 6 5 1 -1 2 3 3 3 2 1 -1 -2 -8 -0 -1
3 2 5 8 8 8 8 9 7 8 11 10 9 7 5 3 2 2 2 2 2 0 -2 -2 5 5 4 4 5 6 5 3 5 3 5 4 2 -0 0 -1 -1 -1 -1
-0 3 4 4 4 5 5 4 1 -1 -2 -3 -4 -4 -4 -5 -5 -5 -5 -5 -6 -7 -9 -10 -9 -4 3 4 4 4 4 5 4 3 2 2 1 1 -0 -1 -1 -1 -1
5 6 5 4 4 3 5 5 4 4 4 4 1 -3 -3 -3 -4 -5 -5 -5 -4 -2 -2 -1 -1 -0 3 5 4 4 4 3 3 2 2 1 0 -1 -1 -1 -1 -1 -1
9 8 8 7 7 7 7 6 5 5 5 5 5 4 3 1 -1 -3 -3 -3 -4 -2 -1 -1 -1 -1 -0 2 4 5 4 4 3 2 1 0 -0 -1 -1 -2 -2 -2 -2
7 5 6 8 7 7 6 5 4 4 4 5 5 5 4 4 4 3 3 3 3 2 1 1 1 1 1 3 4 5 4 4 2 2 1 -0 -0 -1 -2 -2 -2 -2 -1
2 4 1 1 2 2 3 2 2 3 2 2 2 2 3 3 3 2 2 2 2 2 2 2 2 3 3 4 5 5 4 3 2 1 0 -1 -1 -1 -1 -2 -2 -2 -2
-3 -3 -3 -2 -1 -1 1 1 -1 0 1 1 1 1 1 1 2 1 1 2 1 1 1 1 2 2 3 4 4 4 3 2 1 0 -0 -1 -2 -1 -2 -2 -2 -2 -2
-2 -2 -1 -1 -0 -0 1 1 1 1 1 1 1 0 0 0 0 0 0 0 0 1 2 2 2 2 3 4 3 3 2 0 -1 -1 -1 -2 -2 -2 -2 -2 -2 -2 -2
-1 -1 -1 0 -0 -0 0 0 0 0 1 0 0 -0 0 0 0 0 0 0 0 1 2 1 1 2 2 3 3 1 0 -0 -1 -1 -0 -2 -2 -2 -2 -2 -2 -2 -2
-1 -0 0 0 0 0 1 0 1 1 -0 -0 -0 -0 0 0 1 1 2 2 2 2 2 3 2 0 4 3 2 1 1 -1 -1 -1 -1 -2 -2 -2 -2 -3 -3 -2 -2
0 0 1 1 1 1 0 -0 -1 -1 0 1 2 2 3 4 3 3 3 3 3 3 3 3 3 2 3 3 3 2 2 0 -1 -4 -4 -2 -2 -2 -2 -2 -3 -3 -3

GFSGL_850_dewp_129.txt.gz
Dewpoint
13 11 12 13 13 14 15 15 15 15 15 15 16 15 14 15 15 16 16 15 14 16 16 16 15 15 15 16 12 13 14 14 15 14 15 14 13 13 14 14 13 12 14
14 12 11 13 13 13 14 15 14 14 15 13 14 14 13 14 15 15 15 15 14 14 14 15 13 14 14 16 15 14 14 15 15 14 12 13 13 10 11 12 12 11 14
14 11 13 15 15 13 13 13 12 13 14 15 14 14 14 15 15 16 16 15 15 15 15 15 15 15 15 14 14 14 15 14 15 15 15 14 12 12 14 13 12 13 14
14 13 15 15 15 15 14 15 15 15 16 15 14 15 15 14 14 15 15 15 14 15 15 15 15 15 15 16 15 14 15 14 14 14 14 12 12 14 14 12 13 13 13
15 14 13 16 15 15 15 15 17 16 15 14 14 15 15 16 15 14 15 14 15 14 14 14 14 15 15 15 14 13 14 14 14 14 14 13 13 13 14 13 13 13 14
16 15 14 15 16 14 15 15 14 14 14 15 16 15 16 16 15 15 15 15 15 14 14 14 14 15 15 13 13 13 14 14 14 14 14 13 13 12 12 12 14 14 13
14 17 14 15 15 15 15 15 15 15 15 14 14 15 14 14 14 14 15 14 14 14 13 13 13 13 14 13 13 13 14 14 14 14 13 12 11 11 12 12 13 12 13
13 17 15 15 15 16 16 15 14 14 14 14 14 14 15 14 14 14 14 14 14 14 14 14 14 14 13 13 14 14 14 13 13 12 12 11 12 12 12 11 11 11 12
13 16 16 16 16 16 15 15 15 15 16 15 15 15 16 16 15 15 14 14 15 15 15 14 14 13 13 12 13 14 13 12 13 13 12 12 12 11 11 10 10 10 11
15 15 15 13 16 16 16 16 15 15 14 15 15 15 15 15 15 15 15 15 14 14 14 14 13 13 13 13 13 13 13 13 13 13 12 12 11 11 10 10 9 9 9
15 16 16 16 15 15 13 14 14 14 15 15 15 15 15 15 14 14 13 14 14 14 14 12 12 12 12 12 12 13 13 14 14 13 13 13 11 9 9 8 6 -1 0
13 14 14 14 13 13 11 11 12 13 12 13 13 13 13 13 13 12 11 13 13 13 13 13 13 12 12 11 11 11 12 12 12 13 14 12 12 11 9 8 7 4 -2
13 14 13 14 11 10 10 13 12 12 11 12 13 12 12 12 11 10 10 10 10 10 11 9 6 6 5 3 5 3 7 7 9 10 10 11 10 10 8 7 7 4 -3
14 13 11 11 12 12 13 11 11 10 11 12 12 12 12 11 12 12 11 10 11 11 10 7 2 2 2 4 4 2 1 1 4 8 9 8 7 7 7 7 4 0 -1
13 12 13 12 13 13 12 12 12 12 12 10 10 11 12 12 11 10 9 7 4 2 0 -1 -2 0 4 6 6 6 5 4 4 -0 4 7 7 5 4 3 1 -0 -3
13 12 12 12 11 12 12 12 12 12 12 12 12 12 11 8 4 1 -2 -4 -6 -7 -6 -3 -6 -7 -4 2 4 5 6 6 6 5 4 3 3 3 2 1 0 -0 -2
4 3 3 3 2 1 0 0 -3 -3 -4 -4 -4 -4 -4 -5 -5 -5 -5 -4 -4 -2 -1 -0 0 1 1 0 0 1 3 3 5 5 5 5 3 2 2 1 1 -0 -1
5 5 6 5 5 5 5 5 4 4 3 2 1 1 1 0 0 -0 -0 -0 0 -1 -2 -1 0 1 1 1 1 1 5 5 5 4 4 4 2 1 1 -0 -1 -1 -0
7 7 5 4 4 5 5 4 4 3 2 3 4 4 4 3 0 -0 0 2 1 1 1 2 1 1 0 0 0 1 1 5 5 5 4 4 3 1 0 0 -1 -0 -1
8 8 8 6 6 6 5 5 5 5 3 3 4 5 3 0 1 2 2 2 1 2 2 2 2 2 2 2 2 2 2 3 4 5 5 4 2 1 0 -0 -1 -1 -2
2 0 5 2 4 6 3 2 2 2 2 2 2 1 0 -0 1 1 2 2 2 2 2 3 3 2 3 2 2 2 3 4 4 4 4 3 1 -0 -0 -1 -1 -1 -1
-3 -2 -1 -1 -0 -0 1 2 1 1 1 1 1 1 1 1 1 0 0 1 1 2 1 2 2 2 2 2 1 1 0 4 4 3 3 3 1 -0 -1 -1 -1 -1 -2
-2 -2 -2 -1 -1 0 1 2 1 1 1 0 -0 0 0 1 1 1 1 1 2 2 2 2 2 1 -0 1 2 3 2 2 1 3 2 2 0 -1 -1 -1 -2 -2 -2
-2 -1 -0 0 -0 1 0 0 0 0 0 -0 -0 -1 -0 1 1 2 2 2 3 3 3 2 2 1 0 1 -0 3 3 2 1 1 2 1 1 -0 -1 -1 -1 -1 -1
-1 -1 -0 -1 1 0 0 0 0 -0 -0 -1 -2 -1 -0 1 2 3 3 3 3 1 2 3 2 1 0 -1 -1 1 3 3 2 1 1 1 0 -1 -0 1 -1 -1 -1
-0 -0 0 1 1 1 1 -0 -0 -0 -1 0 0 -0 -1 1 2 2 2 2 1 3 3 2 3 1 1 1 1 0 2 3 3 2 1 0 -0 0 1 -0 -1 -2 -1